[[[{"header":{"parameterUnit":"kt","parameterCategory":2,"dx":1,"dy":1,"la1":29.587661999999998,"la2":31.0,"lo1":-88.76705300000003,"lo2":-86.6583820000003,"nx":115,"ny":88,"refTime":"2022-10-20T06:00:00:Z","depth":0,"parameterNumber":1,"parameterNumberName":"U-component_of_WINDS"},"data":[-11.1882,-11.1389,-11.1389,-11.1389,-11.1389,-11.1389,-11.1389,-11.1389,-11.1389,-11.1389,-11.1389,-11.1389,-11.1389,-11.1389,-11.1389,-11.1389,-11.1389,-11.1389,-11.1389,-11.1389,-11.1389,-11.1389,-11.1389,-11.1279,-11.0121,-10.8164,-10.5826,-10.3256,-10.2068,-9.8655,-9.6395,-9.6395,-9.6395,-9.6395,-9.6395,-9.6395,-9.6395,-9.6395,-9.6395,-9.6395,-9.6395,-9.6395,-9.6395,-9.6395,-9.6395,-9.6395,-9.6395,-9.6395,-9.6395,-9.6395,-9.6395,-9.6395,-9.5641,-9.4153,-9.3085,-9.2444,-9.0328,-8.8714,-8.7307,-8.5885,-8.5987,-8.8763,-8.8637,-8.8045,-9.0876,-9.3112,-9.0772,-8.7925,-8.6056,-8.339,-8.1081,-7.9088,-7.8009,-7.6619,-7.5741,-7.5362,-7.5134,-7.5058,-7.4982,-7.4982,-7.4982,-7.4982,-7.4982,-7.4982,-7.4982,-7.4982,-7.4982,-7.4982,-7.4982,-7.4678,-7.4375,-7.3539,-7.2666,-7.1983,-7.1451,-7.1413,-7.2476,-7.4147,-7.6045,-7.7792,-7.912,-7.9842,-8.0487,-8.1019,-8.1208,-8.1246,-8.1057,-8.0829,-8.0525,-8.0335,-8.0107,-7.8933,-7.5924,-7.2925,-7.0124,-11.1498,-11.1389,-11.1389,-11.1389,-11.1389,-11.1389,-11.1389,-11.1389,-11.1389,-11.1389,-11.1389,-11.1389,-11.1389,-11.1389,-11.1389,-11.1389,-11.1389,-11.1389,-11.1389,-11.1389,-11.1389,-11.1389,-11.1389,-11.1389,-11.106,-10.9343,-10.5995,-10.3963,-10.2068,-9.8778,-9.6395,-9.6395,-9.6395,-9.6395,-9.6395,-9.6395,-9.6395,-9.6395,-9.6395,-9.6395,-9.6395,-9.6395,-9.6395,-9.6395,-9.6395,-9.6395,-9.6395,-9.6395,-9.6395,-9.6395,-9.6395,-9.6395,-9.5467,-9.3771,-9.2701,-9.0848,-8.8759,-8.6376,-8.4812,-8.3774,-8.4339,-8.4654,-8.4222,-8.5851,-8.9164,-8.9574,-8.7436,-8.5474,-8.4033,-8.1932,-7.959,-7.7698,-7.7021,-7.6121,-7.559,-7.5096,-7.5058,-7.502,-7.502,-7.4982,-7.4982,-7.4982,-7.4982,-7.4982,-7.4982,-7.4982,-7.4982,-7.4982,-7.4906,-7.4602,-7.4033,-7.3198,-7.259,-7.2097,-7.1527,-7.2135,-7.3388,-7.4906,-7.5969,-7.726,-7.8551,-7.9804,-8.0639,-8.0905,-8.0867,-8.0867,-8.0715,-8.0677,-8.0373,-8.0145,-7.9729,-7.8781,-7.5464,-7.1684,-6.8556,-11.1716,-11.1389,-11.1389,-11.1389,-11.1389,-11.1389,-11.1389,-11.1389,-11.1389,-11.1389,-11.1389,-11.1389,-11.1389,-11.1389,-11.1389,-11.1389,-11.1389,-11.1389,-11.1389,-11.1389,-11.1389,-11.1389,-11.1389,-11.1389,-11.1389,-11.0121,-10.6287,-10.2426,-9.9391,-9.7145,-9.6395,-9.6395,-9.6395,-9.6395,-9.6395,-9.6395,-9.6395,-9.6395,-9.6395,-9.6395,-9.6395,-9.6395,-9.6395,-9.6395,-9.6395,-9.6395,-9.6395,-9.6395,-9.6395,-9.6395,-9.6395,-9.6395,-9.5767,-9.3771,-9.1625,-8.9676,-8.7439,-8.4407,-8.2823,-8.2718,-8.4095,-8.6282,-8.6752,-8.7431,-9.0292,-8.8501,-8.6371,-8.402,-8.2545,-8.0694,-7.8381,-7.7593,-7.6916,-7.6303,-7.5846,-7.5542,-7.5504,-7.5314,-7.4982,-7.4982,-7.4982,-7.4982,-7.4982,-7.4982,-7.4982,-7.4982,-7.4982,-7.4982,-7.4792,-7.4489,-7.3653,-7.2932,-7.2628,-7.2211,-7.2097,-7.297,-7.4185,-7.5134,-7.6159,-7.7222,-7.8209,-7.9652,-8.0753,-8.0981,-8.1019,-8.0753,-8.0715,-8.0829,-8.0601,-8.0107,-7.9388,-7.8288,-7.4505,-7.0749,-6.6188,-11.1882,-11.1389,-11.1389,-11.1389,-11.1389,-11.1389,-11.1389,-11.1389,-11.1389,-11.1389,-11.1389,-11.1389,-11.1389,-11.1389,-11.1389,-11.1389,-11.1389,-11.1389,-11.1389,-11.1389,-11.1389,-11.1389,-11.1389,-11.1389,-11.1389,-11.0011,-10.7711,-10.408,-10.0315,-9.7717,-9.6395,-9.6395,-9.6395,-9.6395,-9.6395,-9.6395,-9.6395,-9.6395,-9.6395,-9.6395,-9.6395,-9.6395,-9.6395,-9.6395,-9.6395,-9.6395,-9.6395,-9.6395,-9.6395,-9.6395,-9.6395,-9.6395,-9.627,-9.3644,-9.0848,-8.8187,-8.6376,-8.4137,-8.2959,-8.3681,-8.5371,-8.7606,-8.9486,-9.0467,-9.011,-8.8327,-8.6095,-8.3453,-8.1228,-7.9293,-7.7785,-7.7504,-7.7098,-7.6552,-7.6075,-7.6142,-7.6066,-7.558,-7.502,-7.4982,-7.4982,-7.4982,-7.4982,-7.4982,-7.4982,-7.4982,-7.4982,-7.4944,-7.4754,-7.4337,-7.3501,-7.3198,-7.2856,-7.2856,-7.3046,-7.3653,-7.4602,-7.5552,-7.6235,-7.7032,-7.7867,-7.8969,-7.9956,-8.0563,-8.0981,-8.0563,-8.0411,-8.0677,-8.0449,-8.0032,-7.8933,-7.5924,-7.2305,-6.8209,-6.3484,-11.1389,-11.1389,-11.1389,-11.1389,-11.1389,-11.1389,-11.1389,-11.1389,-11.1389,-11.1389,-11.1389,-11.1389,-11.1389,-11.1389,-11.1389,-11.1389,-11.1389,-11.1389,-11.1389,-11.1389,-11.1389,-11.1389,-11.1389,-11.1389,-11.1389,-11.1279,-10.9622,-10.6287,-10.2782,-9.8901,-9.6395,-9.6395,-9.6395,-9.6395,-9.6395,-9.6395,-9.6395,-9.6395,-9.6395,-9.6395,-9.6395,-9.6395,-9.6395,-9.6395,-9.6395,-9.6395,-9.6395,-9.6395,-9.6395,-9.6395,-9.6395,-9.6395,-9.5593,-9.3898,-9.0978,-8.8582,-8.7836,-8.5574,-8.4407,-8.5842,-8.7615,-8.8948,-9.093,-9.095,-8.935,-8.7279,-8.4496,-8.1784,-8.0392,-7.8591,-7.7707,-7.731,-7.7038,-7.6714,-7.6341,-7.6291,-7.6253,-7.6099,-7.5689,-7.5548,-7.5548,-7.5124,-7.5124,-7.4982,-7.4982,-7.4982,-7.4982,-7.4982,-7.4716,-7.4223,-7.3805,-7.3577,-7.3388,-7.3388,-7.3615,-7.4185,-7.5058,-7.5703,-7.6273,-7.7032,-7.8095,-7.8741,-7.9234,-7.9842,-8.0449,-8.0183,-8.0107,-8.0221,-8.0221,-7.954,-7.749,-7.3853,-6.9621,-6.5364,-6.1108,-11.1716,-11.1389,-11.1389,-11.1389,-11.1389,-11.1389,-11.1389,-11.1389,-11.1389,-11.1389,-11.1389,-11.1389,-11.1389,-11.1389,-11.1389,-11.1389,-11.1389,-11.1389,-11.1389,-11.1389,-11.1389,-11.1389,-11.1389,-11.1389,-11.1389,-11.0674,-10.9566,-10.7825,-10.3492,-9.9269,-9.6395,-9.6395,-9.6395,-9.6395,-9.6395,-9.6395,-9.6395,-9.6395,-9.6395,-9.6395,-9.6395,-9.6395,-9.6395,-9.6395,-9.6395,-9.6395,-9.6395,-9.6395,-9.6395,-9.6395,-9.6395,-9.6395,-9.6019,-9.5341,-9.3085,-8.9238,-8.9238,-8.8232,-8.5885,-8.81,-8.8939,-8.965,-9.1022,-9.0419,-8.8269,-8.6025,-8.3432,-8.077,-7.9333,-7.8208,-7.7604,-7.718,-7.6936,-7.6691,-7.6524,-7.6394,-7.6356,-7.6356,-7.6215,-7.6215,-7.5831,-7.5548,-7.5265,-7.5124,-7.4982,-7.4982,-7.4982,-7.4982,-7.4716,-7.4413,-7.4261,-7.3995,-7.3881,-7.3881,-7.4299,-7.4716,-7.5476,-7.6121,-7.6729,-7.764,-7.8437,-7.912,-7.9538,-7.9842,-8.0032,-8.0032,-8.007,-8.0032,-7.9691,-7.8592,-7.6995,-7.196,-6.6758,-6.2524,-5.8876,-11.1825,-11.1389,-11.1389,-11.1389,-11.1389,-11.1389,-11.1389,-11.1389,-11.1389,-11.1389,-11.1389,-11.1389,-11.1389,-11.1389,-11.1389,-11.1389,-11.1389,-11.1389,-11.1389,-11.1389,-11.1389,-11.1389,-11.1389,-11.1389,-11.1389,-11.084,-10.951,-10.7543,-10.3728,-10.1281,-9.8778,-9.6646,-9.6395,-9.6395,-9.6395,-9.6395,-9.6395,-9.6395,-9.6395,-9.6395,-9.6395,-9.6395,-9.6395,-9.6395,-9.6395,-9.6395,-9.6395,-9.6395,-9.6395,-9.6395,-9.6395,-9.6395,-9.6395,-9.6144,-9.5593,-9.0978,-9.1237,-9.1496,-8.81,-9.0718,-9.2316,-9.0818,-9.0108,-8.8678,-8.6375,-8.4305,-8.3025,-8.0933,-7.9133,-7.8494,-7.8034,-7.7753,-7.7472,-7.719,-7.7113,-7.6918,-7.6777,-7.6777,-7.6535,-7.6394,-7.6151,-7.5728,-7.5124,-7.4982,-7.4982,-7.4982,-7.4982,-7.4982,-7.4868,-7.4906,-7.4754,-7.4413,-7.4299,-7.4375,-7.4754,-7.5248,-7.5931,-7.6653,-7.7678,-7.8589,-7.912,-7.95,-7.9842,-8.0032,-8.0032,-8.0032,-8.0032,-7.9577,-7.9237,-7.8136,-7.5121,-6.9275,-6.3932,-5.9657,-5.5839,-11.1389,-11.1389,-11.1389,-11.1389,-11.1389,-11.1389,-11.1389,-11.1389,-11.1389,-11.1389,-11.1389,-11.1389,-11.1389,-11.1389,-11.1389,-11.1389,-11.1389,-11.1389,-11.1389,-11.1389,-11.1389,-11.1389,-11.1389,-11.1389,-11.1389,-11.1389,-11.0564,-10.8277,-10.4315,-10.2597,-9.995,-9.7469,-9.6395,-9.6395,-9.6395,-9.6395,-9.6395,-9.6395,-9.6395,-9.6395,-9.6395,-9.6395,-9.6395,-9.6395,-9.6395,-9.6395,-9.6395,-9.6395,-9.6395,-9.6395,-9.6395,-9.6395,-9.6395,-9.6395,-9.6395,-9.5893,-9.5341,-9.3644,-9.1366,-9.2701,-9.3213,-8.9858,-8.8452,-8.6102,-8.4053,-8.2762,-8.1759,-8.0212,-7.8934,-7.8535,-7.8217,-7.8077,-7.7797,-7.7658,-7.7478,-7.7338,-7.7338,-7.7338,-7.7097,-7.6816,-7.6574,-7.5869,-7.5265,-7.4982,-7.4982,-7.5058,-7.5172,-7.5134,-7.5058,-7.5134,-7.5248,-7.4868,-7.4678,-7.4792,-7.5248,-7.5779,-7.6425,-7.7032,-7.8133,-7.9196,-7.9576,-7.9956,-8.0032,-8.0032,-8.0032,-8.0032,-8.0032,-7.9729,-7.8781,-7.5464,-7.2271,-6.6916,-6.124,-5.6954,-5.5289,-11.1389,-11.1389,-11.1389,-11.1389,-11.1389,-11.1389,-11.1389,-11.1389,-11.1389,-11.1389,-11.1389,-11.1389,-11.1389,-11.1389,-11.1389,-11.1389,-11.1389,-11.1389,-11.1389,-11.1389,-11.1389,-11.1389,-11.1389,-11.1389,-11.1279,-11.1389,-11.084,-10.8727,-10.3963,-10.3845,-10.116,-9.7593,-9.6395,-9.6395,-9.6395,-9.6395,-9.6395,-9.6395,-9.6395,-9.6395,-9.6395,-9.6395,-9.6395,-9.6395,-9.6395,-9.6395,-9.6395,-9.6395,-9.6395,-9.6395,-9.6395,-9.6395,-9.6395,-9.6395,-9.6395,-9.5641,-9.4835,-9.2316,-9.1108,-9.2444,-9.0978,-8.7616,-8.6339,-8.4095,-8.1661,-8.1479,-8.0635,-7.9632,-7.8435,-7.8217,-7.8217,-7.7618,-7.7478,-7.7758,-7.7618,-7.7758,-7.7898,-7.8456,-7.8356,-7.7658,-7.7237,-7.6253,-7.5407,-7.5265,-7.4982,-7.5172,-7.5438,-7.5248,-7.5096,-7.5476,-7.5741,-7.521,-7.4906,-7.4906,-7.5286,-7.6121,-7.688,-7.745,-7.8513,-7.9652,-8.0032,-8.0032,-8.0032,-8.0032,-8.0032,-8.0032,-8.0032,-7.9388,-7.8136,-7.5121,-7.0559,-6.5046,-5.8848,-5.6572,-5.5256,-11.1389,-11.1389,-11.1389,-11.1389,-11.1389,-11.1389,-11.1389,-11.1389,-11.1389,-11.1389,-11.1332,-11.0881,-11.0768,-11.0599,-11.0373,-10.9978,-11.0147,-11.0317,-11.0824,-11.0824,-11.1219,-11.1332,-11.1389,-11.1279,-11.0894,-11.0564,-11.0674,-10.8615,-10.2901,-10.378,-10.0919,-9.7593,-9.6395,-9.6395,-9.6395,-9.6395,-9.6395,-9.6395,-9.6395,-9.6395,-9.6395,-9.6395,-9.6395,-9.6395,-9.6395,-9.6395,-9.6395,-9.6395,-9.6395,-9.6395,-9.6395,-9.6395,-9.6395,-9.6395,-9.6395,-9.5893,-9.5214,-9.2573,-9.1929,-8.9415,-8.81,-8.4842,-8.2836,-8.2211,-8.0266,-8.0454,-8.0333,-7.9571,-7.8774,-7.8635,-7.8496,-7.8037,-7.7898,-7.8037,-7.8177,-7.8316,-7.7898,-7.8635,-7.8774,-7.7937,-7.7377,-7.6292,-7.5548,-7.5407,-7.5124,-7.5134,-7.6083,-7.6083,-7.5362,-7.5703,-7.6121,-7.5552,-7.4982,-7.4982,-7.5438,-7.6501,-7.7336,-7.7754,-7.8665,-7.9766,-8.0032,-8.0032,-8.0032,-8.0032,-8.0032,-8.0032,-8.0032,-7.9691,-7.7947,-7.4777,-6.9934,-6.4569,-5.8798,-5.5887,-5.5082,-11.1389,-11.1389,-11.1389,-11.1389,-11.1389,-11.1389,-11.1389,-11.1389,-11.1389,-11.1332,-11.105,-11.026,-10.9809,-10.9357,-10.868,-10.8567,-10.8737,-10.947,-10.9978,-11.0373,-11.105,-11.1332,-11.1389,-11.117,-11.0674,-10.8952,-10.9064,-10.7202,-10.0989,-10.2545,-10.0678,-9.7593,-9.6395,-9.6395,-9.6395,-9.6395,-9.6395,-9.6395,-9.6395,-9.6395,-9.6395,-9.6395,-9.6395,-9.6395,-9.6395,-9.6395,-9.6395,-9.6395,-9.6395,-9.6395,-9.6395,-9.6395,-9.6395,-9.6395,-9.6395,-9.627,-9.5893,-9.5767,-9.5593,-9.0589,-8.5708,-8.1305,-8.1896,-8.1269,-8.0249,-8.0451,-8.0933,-7.959,-7.9191,-7.9191,-7.933,-7.929,-7.9052,-7.8913,-7.8873,-7.8734,-7.7758,-7.7658,-7.7518,-7.6957,-7.6574,-7.6151,-7.5869,-7.5548,-7.5265,-7.5552,-7.6691,-7.6615,-7.5703,-7.5817,-7.6349,-7.5817,-7.4982,-7.4982,-7.5248,-7.6615,-7.7602,-7.7981,-7.8627,-7.9576,-8.0032,-8.0032,-8.0032,-8.0032,-8.0032,-8.0032,-8.0032,-8.0032,-7.7794,-7.5274,-7.009,-6.4312,-5.8719,-5.5056,-5.542,-11.1389,-11.1389,-11.1389,-11.1389,-11.1389,-11.1389,-11.1389,-11.1389,-11.1389,-11.0994,-11.0147,-10.9809,-10.9188,-10.8398,-10.7834,-10.8003,-10.8624,-10.9301,-11.0034,-11.0486,-11.0881,-11.1332,-11.1389,-11.1113,-11.0672,-11.0232,-10.9399,-10.7202,-10.2307,-10.1709,-9.9463,-9.7469,-9.6395,-9.6395,-9.6395,-9.6395,-9.6395,-9.6395,-9.6395,-9.6395,-9.6395,-9.6395,-9.6395,-9.6395,-9.6395,-9.6395,-9.6395,-9.6395,-9.6395,-9.6395,-9.6395,-9.6395,-9.6395,-9.6395,-9.6395,-9.5767,-9.4962,-9.4407,-9.3771,-8.9807,-8.3461,-8.1182,-8.1732,-8.1373,-8.0795,-8.1567,-8.1163,-7.9844,-7.9052,-7.8913,-7.9469,-7.8913,-7.8635,-7.8316,-7.8456,-7.8217,-7.7237,-7.6816,-7.6535,-7.6292,-7.6292,-7.6151,-7.5869,-7.5407,-7.52,-7.5476,-7.6501,-7.6691,-7.6007,-7.6083,-7.6463,-7.5741,-7.502,-7.4982,-7.5058,-7.6387,-7.7564,-7.7981,-7.8741,-7.9614,-8.0032,-8.0032,-8.0032,-8.0032,-8.0032,-8.0032,-7.9691,-7.9237,-7.749,-7.5274,-6.9588,-6.3613,-5.8584,-5.5761,-5.5987,-11.1389,-11.1389,-11.1389,-11.1389,-11.1389,-11.1389,-11.1389,-11.1389,-11.1389,-11.0712,-10.9639,-10.8624,-10.7777,-10.7213,-10.71,-10.7326,-10.7552,-10.8285,-10.8793,-10.9357,-10.9922,-11.0317,-11.0712,-11.0603,-11.0391,-10.9566,-10.839,-10.6172,-10.2967,-10.1178,-9.8728,-9.7096,-9.6395,-9.6395,-9.6395,-9.6395,-9.6395,-9.6395,-9.6395,-9.6395,-9.6395,-9.6395,-9.6395,-9.6395,-9.6395,-9.6395,-9.6395,-9.6395,-9.6395,-9.6395,-9.6395,-9.6395,-9.6395,-9.6395,-9.6395,-9.6144,-9.3771,-9.3341,-9.2957,-8.8232,-8.3909,-8.2687,-8.2959,-8.2592,-8.0023,-8.0851,-8.0673,-8.0121,-7.8913,-7.8496,-7.8913,-7.8356,-7.7797,-7.7478,-7.7198,-7.6957,-7.6676,-7.6535,-7.6292,-7.5728,-7.5728,-7.5869,-7.5548,-7.5303,-7.5352,-7.5438,-7.6273,-7.6842,-7.6501,-7.6425,-7.6007,-7.54,-7.5096,-7.4982,-7.5096,-7.6197,-7.7488,-7.8209,-7.8931,-7.9538,-8.0032,-8.0032,-8.0032,-8.0032,-8.0032,-8.0032,-7.954,-7.8592,-7.6231,-7.277,-6.8019,-6.2814,-5.97,-5.6747,-5.6337,-11.1389,-11.1389,-11.1389,-11.1389,-11.1389,-11.1389,-11.1389,-11.1389,-11.1389,-11.0712,-10.9414,-10.7439,-10.6367,-10.5859,-10.5746,-10.5351,-10.4561,-10.6592,-10.7157,-10.7157,-10.7213,-10.8567,-10.9188,-10.9424,-10.911,-10.8453,-10.6708,-10.423,-10.1487,-10.0181,-9.8086,-9.6722,-9.6395,-9.6395,-9.6395,-9.6395,-9.6395,-9.6395,-9.6395,-9.6395,-9.6395,-9.6395,-9.6395,-9.6395,-9.6395,-9.6395,-9.6395,-9.6395,-9.6395,-9.6395,-9.6395,-9.6395,-9.6395,-9.6395,-9.6395,-9.5593,-9.3213,-9.1496,-9.0718,-8.7174,-8.5349,-8.5574,-8.4677,-8.1909,-7.9885,-7.9746,-7.9608,-7.9469,-7.8496,-7.8217,-7.7937,-7.7658,-7.7338,-7.7136,-7.705,-7.6704,-7.6537,-7.6459,-7.6061,-7.538,-7.5162,-7.5303,-7.5124,-7.5466,-7.5514,-7.5855,-7.6653,-7.7374,-7.7032,-7.6425,-7.5893,-7.5324,-7.5058,-7.5058,-7.5172,-7.6007,-7.7184,-7.8057,-7.9044,-7.9652,-7.9994,-8.0032,-8.0032,-8.0032,-8.0032,-8.0032,-7.9691,-7.669,-7.3699,-7.0403,-6.6442,-6.1882,-5.8341,-5.6342,-5.5961,-11.1389,-11.1389,-11.1389,-11.1389,-11.1389,-11.1389,-11.1389,-11.1389,-11.1389,-11.0768,-10.9414,-10.7947,-10.6141,-10.4899,-10.4674,-10.4956,-10.5407,-10.6084,-10.6649,-10.7213,-10.7608,-10.7834,-10.8059,-10.8285,-10.8421,-10.9166,-10.5617,-10.3193,-10.1158,-9.8979,-9.6605,-9.652,-9.6346,-9.6395,-9.6395,-9.6395,-9.6395,-9.6395,-9.6395,-9.6395,-9.6395,-9.6395,-9.6395,-9.6395,-9.6395,-9.6395,-9.6395,-9.6444,-9.6444,-9.6493,-9.659,-9.6688,-9.6542,-9.6542,-9.6542,-9.5593,-9.214,-8.9807,-8.8627,-8.6509,-8.3367,-8.2004,-8.0535,-8.1045,-7.9804,-8.1045,-8.1278,-7.8654,-7.7819,-7.7439,-7.7338,-7.7338,-7.6777,-7.669,-7.682,-7.656,-7.6323,-7.6285,-7.6066,-7.559,-7.54,-7.5248,-7.5324,-7.5628,-7.6007,-7.6349,-7.6956,-7.7716,-7.7336,-7.6653,-7.5969,-7.5172,-7.502,-7.502,-7.5438,-7.6159,-7.6956,-7.7943,-7.9158,-7.9842,-7.9994,-8.0032,-8.0032,-8.0032,-8.0032,-7.9388,-7.7642,-7.447,-7.1149,-6.6916,-6.2974,-5.9495,-5.747,-5.5971,-5.5264,-11.1389,-11.1389,-11.1389,-11.1389,-11.1389,-11.1389,-11.1389,-11.1389,-11.1389,-11.0712,-10.9583,-10.8285,-10.6705,-10.5294,-10.4843,-10.5012,-10.5182,-10.5746,-10.6141,-10.6028,-10.6028,-10.6367,-10.6818,-10.7044,-10.6702,-10.6134,-10.3635,-10.1612,-9.9704,-9.6934,-9.5029,-9.5712,-9.6102,-9.6346,-9.6395,-9.6395,-9.6395,-9.6395,-9.6395,-9.6395,-9.6395,-9.6395,-9.6395,-9.6395,-9.6395,-9.6395,-9.6542,-9.6737,-9.7078,-9.7176,-9.7664,-9.7615,-9.7225,-9.703,-9.6786,-9.6116,-9.2058,-8.9807,-8.9284,-8.7174,-8.544,-8.3554,-8.2236,-8.0976,-8.0565,-8.0141,-7.8575,-7.7444,-7.6651,-7.6466,-7.6559,-7.6496,-7.6113,-7.5907,-7.5958,-7.5723,-7.5694,-7.5855,-7.6045,-7.5969,-7.5855,-7.5779,-7.5779,-7.6273,-7.688,-7.7184,-7.764,-7.7905,-7.7412,-7.6729,-7.5931,-7.5134,-7.502,-7.4982,-7.559,-7.6387,-7.7184,-7.7754,-7.8969,-7.9918,-7.9994,-8.0032,-8.0032,-8.0032,-7.954,-7.7794,-7.5581,-7.1771,-6.6726,-6.2814,-5.9038,-5.7605,-5.6002,-5.4987,-5.5352,-11.1389,-11.1389,-11.1389,-11.1389,-11.1389,-11.1389,-11.1389,-11.1389,-11.1389,-11.0655,-10.9188,-10.8116,-10.6931,-10.5746,-10.552,-10.4956,-10.4674,-10.5012,-10.5125,-10.4561,-10.4448,-10.4956,-10.5633,-10.5482,-10.4623,-10.3997,-10.1173,-9.8673,-9.6471,-9.5072,-9.4517,-9.498,-9.5712,-9.6298,-9.6346,-9.6395,-9.6395,-9.6395,-9.6395,-9.6395,-9.6395,-9.6395,-9.6395,-9.6444,-9.659,-9.6737,-9.6883,-9.7713,-9.8201,-9.8299,-9.8982,-9.8884,-9.8201,-9.7908,-9.7274,-9.6077,-9.4073,-9.1929,-9.0718,-8.81,-8.5932,-8.4065,-8.3299,-8.2649,-8.0674,-7.8267,-7.67,-7.5889,-7.5157,-7.5048,-7.5408,-7.5178,-7.4934,-7.4934,-7.4896,-7.4934,-7.4906,-7.502,-7.5476,-7.5476,-7.5134,-7.5362,-7.5628,-7.6653,-7.764,-7.7943,-7.8095,-7.783,-7.7412,-7.6691,-7.5931,-7.5248,-7.4982,-7.4982,-7.5476,-7.6539,-7.7222,-7.7526,-7.8779,-7.9994,-8.0032,-8.0032,-8.0032,-7.954,-7.8592,-7.7337,-7.2081,-6.6884,-6.2334,-5.9172,-5.7415,-5.6002,-5.4883,-5.5065,-5.5134,-11.1389,-11.1389,-11.1389,-11.1389,-11.1389,-11.1389,-11.1389,-11.1389,-11.1389,-11.0204,-10.8285,-10.7721,-10.6536,-10.4899,-10.4448,-10.4335,-10.4109,-10.4222,-10.4335,-10.3997,-10.4053,-10.4053,-10.3821,-10.2895,-10.2127,-10.1818,-9.8384,-9.4939,-9.3262,-9.2731,-9.3369,-9.4394,-9.4882,-9.5468,-9.6249,-9.6395,-9.6395,-9.6395,-9.6395,-9.6395,-9.6395,-9.6395,-9.6395,-9.6444,-9.7225,-9.7664,-9.7762,-9.8738,-9.9275,-9.9226,-9.8884,-9.8396,-9.7957,-9.7225,-9.703,-9.6991,-9.4071,-9.12,-8.8931,-8.6244,-8.3717,-8.1774,-7.9882,-7.8849,-7.7795,-7.7162,-7.6007,-7.5105,-7.4301,-7.4084,-7.4313,-7.3995,-7.3995,-7.3995,-7.3957,-7.3995,-7.4071,-7.4299,-7.4716,-7.4527,-7.4413,-7.4451,-7.464,-7.5514,-7.6729,-7.7146,-7.7867,-7.764,-7.7488,-7.6729,-7.6045,-7.54,-7.5058,-7.5058,-7.5628,-7.6729,-7.7564,-7.7943,-7.8969,-7.9956,-8.0032,-8.0032,-7.954,-7.9085,-7.749,-7.2271,-6.6884,-6.1503,-5.9144,-5.7415,-5.5812,-5.4857,-5.4857,-5.5013,-5.516,-11.1389,-11.1389,-11.1389,-11.1389,-11.1389,-11.1389,-11.1389,-11.1389,-11.1389,-11.0317,-10.8906,-10.7947,-10.6649,-10.5182,-10.4392,-10.4053,-10.3997,-10.3997,-10.3997,-10.3997,-10.3997,-10.3997,-10.3746,-10.2969,-10.1629,-9.8781,-9.5148,-9.1957,-9.0998,-9.1758,-9.2979,-9.4101,-9.5175,-9.5809,-9.6298,-9.6395,-9.6395,-9.6395,-9.6395,-9.6395,-9.6395,-9.6395,-9.6786,-9.7078,-9.7713,-9.8299,-9.8836,-9.986,-10.0446,-10.0349,-9.986,-9.9665,-9.9177,-9.8122,-9.6476,-9.4359,-9.2439,-9.0055,-8.6889,-8.4053,-8.1713,-7.9557,-7.8213,-7.7095,-7.6358,-7.577,-7.4998,-7.4237,-7.3532,-7.355,-7.3653,-7.3767,-7.3501,-7.3274,-7.3122,-7.3122,-7.3236,-7.3539,-7.335,-7.3008,-7.3198,-7.3463,-7.3691,-7.4716,-7.5817,-7.6691,-7.745,-7.7602,-7.7564,-7.688,-7.6159,-7.5628,-7.5286,-7.54,-7.5893,-7.7184,-7.8285,-7.8551,-7.9196,-7.9804,-8.0032,-8.0032,-7.954,-7.7032,-7.1615,-6.641,-6.1824,-5.9305,-5.7415,-5.5348,-5.5021,-5.4857,-5.4857,-5.4987,-5.516,-11.1389,-11.1389,-11.1389,-11.1389,-11.1389,-11.1389,-11.1389,-11.1389,-11.1163,-11.0429,-10.9132,-10.7947,-10.6649,-10.552,-10.4392,-10.4053,-10.3997,-10.3997,-10.3997,-10.3997,-10.3997,-10.3484,-10.3016,-10.1819,-10.0025,-9.6231,-9.3248,-9.1113,-9.0949,-9.1954,-9.293,-9.376,-9.5126,-9.6151,-9.6298,-9.6395,-9.6395,-9.6395,-9.6395,-9.6395,-9.6395,-9.6444,-9.6786,-9.7811,-9.825,-9.8933,-9.9909,-10.0934,-10.1569,-10.152,-10.1325,-10.0623,-9.8837,-9.6918,-9.4057,-9.1112,-8.9154,-8.7162,-8.4612,-8.1841,-8.0405,-7.9448,-7.7638,-7.5943,-7.5038,-7.4322,-7.3715,-7.3146,-7.3125,-7.3313,-7.3426,-7.316,-7.2932,-7.2476,-7.2173,-7.1983,-7.2135,-7.2362,-7.24,-7.1983,-7.2211,-7.2552,-7.3501,-7.4489,-7.5324,-7.6007,-7.6729,-7.7032,-7.726,-7.6918,-7.6387,-7.6045,-7.5703,-7.5969,-7.6273,-7.7754,-7.8703,-7.8893,-7.9272,-7.988,-7.988,-7.988,-7.6384,-7.1649,-6.6442,-6.2144,-5.9629,-5.7253,-5.5649,-5.5184,-5.5021,-5.4883,-5.4883,-5.4909,-5.5108,-11.1389,-11.1389,-11.1389,-11.1389,-11.1389,-11.1389,-11.1332,-11.1163,-11.0373,-10.9188,-10.7947,-10.6762,-10.5689,-10.4561,-10.4109,-10.4053,-10.3997,-10.3997,-10.3997,-10.3894,-10.3792,-10.281,-10.1135,-9.9437,-9.711,-9.4338,-9.2741,-9.2126,-9.1479,-9.1807,-9.2979,-9.4345,-9.5077,-9.5712,-9.6298,-9.6395,-9.6395,-9.6395,-9.6395,-9.6395,-9.6395,-9.6444,-9.6883,-9.7908,-9.8689,-9.9812,-10.0983,-10.1813,-10.2447,-10.2594,-10.1764,-9.8639,-9.4864,-9.1746,-8.938,-8.7789,-8.4789,-8.2882,-8.1108,-7.9012,-7.6863,-7.5422,-7.4892,-7.4098,-7.3149,-7.2821,-7.2662,-7.2655,-7.2586,-7.2662,-7.2651,-7.2362,-7.1869,-7.1451,-7.0844,-7.0464,-7.0426,-7.0464,-7.1261,-7.1186,-7.1679,-7.2135,-7.3046,-7.3919,-7.4602,-7.5286,-7.5969,-7.6501,-7.6918,-7.6994,-7.6918,-7.6653,-7.6691,-7.688,-7.726,-7.8361,-7.8779,-7.9082,-7.95,-7.9691,-7.954,-7.6537,-7.1494,-6.6442,-6.2974,-5.979,-5.709,-5.5812,-5.5348,-5.5021,-5.4883,-5.4883,-5.4883,-5.4883,-5.503,-11.1389,-11.1389,-11.1389,-11.1389,-11.1276,-11.0712,-11.0429,-11.0204,-10.9132,-10.7947,-10.6818,-10.6254,-10.5238,-10.4053,-10.3997,-10.3997,-10.3997,-10.3997,-10.3997,-10.3792,-10.2603,-10.1609,-10.0023,-9.809,-9.5061,-9.199,-9.1645,-9.171,-9.1752,-9.2246,-9.3223,-9.4687,-9.5419,-9.5907,-9.6346,-9.6395,-9.6395,-9.6395,-9.6395,-9.6395,-9.6395,-9.6395,-9.6786,-9.7322,-9.8787,-10.0544,-10.1764,-10.2106,-10.1715,-10.0934,-9.9519,-9.6979,-9.3989,-9.1905,-8.8901,-8.5764,-8.2147,-7.9848,-7.7101,-7.5233,-7.4098,-7.336,-7.3228,-7.269,-7.2402,-7.2544,-7.267,-7.2793,-7.2817,-7.2508,-7.1967,-7.1679,-7.1679,-7.1375,-7.092,-7.073,-7.0768,-7.111,-7.1565,-7.1717,-7.1603,-7.1831,-7.2249,-7.297,-7.3691,-7.4678,-7.5362,-7.6235,-7.6653,-7.6994,-7.707,-7.7298,-7.745,-7.7754,-7.8095,-7.8513,-7.8969,-7.9386,-7.9426,-7.8935,-7.6879,-7.1805,-6.6947,-6.3453,-5.998,-5.709,-5.5975,-5.5512,-5.4857,-5.4883,-5.4883,-5.4883,-5.4883,-5.4883,-5.5117,-11.0599,-11.0599,-11.0599,-11.0599,-11.0429,-10.9639,-10.9244,-10.9132,-10.789,-10.6874,-10.6084,-10.5633,-10.4899,-10.3997,-10.3997,-10.3997,-10.3997,-10.3997,-10.3997,-10.369,-10.1923,-10.0819,-9.8415,-9.6231,-9.3424,-9.1117,-9.0001,-9.0733,-9.1856,-9.2783,-9.3808,-9.5077,-9.5956,-9.6395,-9.6395,-9.6395,-9.6395,-9.6395,-9.6395,-9.6395,-9.6395,-9.6395,-9.6444,-9.6639,-9.825,-10.0202,-10.1569,-10.1129,-9.9422,-9.7176,-9.4835,-9.225,-8.9631,-8.8302,-8.5329,-8.1367,-7.8831,-7.6709,-7.3738,-7.2755,-7.2114,-7.2022,-7.2061,-7.1813,-7.176,-7.2133,-7.2599,-7.3086,-7.2991,-7.245,-7.1891,-7.1907,-7.1565,-7.1375,-7.1224,-7.1261,-7.1527,-7.1755,-7.2021,-7.2362,-7.2135,-7.1945,-7.297,-7.335,-7.3615,-7.4033,-7.4944,-7.5855,-7.6387,-7.6804,-7.707,-7.745,-7.7716,-7.8171,-7.8551,-7.8969,-7.9348,-7.9766,-7.8783,-7.7642,-7.2271,-6.7231,-6.3932,-6.0464,-5.7443,-5.6302,-5.5348,-5.4883,-5.4883,-5.4883,-5.4883,-5.4883,-5.4883,-5.4883,-5.5013,-10.8059,-10.8059,-10.8059,-10.8116,-10.8172,-10.7947,-10.7947,-10.7721,-10.6649,-10.6028,-10.5689,-10.473,-10.4279,-10.3997,-10.3997,-10.3997,-10.3997,-10.3997,-10.3997,-10.3792,-10.2913,-9.9971,-9.5344,-9.2969,-9.1348,-9.0235,-9.005,-9.1124,-9.2442,-9.2979,-9.4199,-9.5712,-9.6249,-9.6395,-9.6395,-9.6395,-9.6395,-9.6395,-9.6395,-9.6395,-9.6395,-9.6395,-9.6395,-9.659,-9.7713,-9.8836,-9.9421,-9.8578,-9.5332,-8.8969,-8.7562,-8.4651,-7.9569,-7.8467,-7.6681,-7.4829,-7.4209,-7.3464,-7.2245,-7.2075,-7.1813,-7.125,-7.1118,-7.0894,-7.0575,-7.0672,-7.1321,-7.2641,-7.1891,-7.1967,-7.1945,-7.1034,-7.0806,-7.1224,-7.1337,-7.1679,-7.1907,-7.111,-7.1148,-7.3084,-7.2856,-7.3274,-7.4147,-7.4754,-7.4678,-7.4527,-7.4868,-7.559,-7.5931,-7.6387,-7.6842,-7.726,-7.783,-7.8437,-7.8893,-7.9272,-7.9576,-7.9653,-7.8251,-7.4659,-6.9275,-6.4251,-6.0786,-5.8418,-5.6791,-5.5512,-5.4883,-5.4883,-5.4883,-5.4883,-5.4883,-5.4883,-5.4883,-5.4883,-5.4883,-10.7721,-10.7721,-10.7721,-10.7721,-10.7608,-10.6987,-10.6705,-10.6479,-10.5407,-10.4843,-10.473,-10.4222,-10.3997,-10.3997,-10.3997,-10.3997,-10.3997,-10.3997,-10.3997,-10.3792,-10.2603,-9.8846,-9.4614,-9.2741,-9.1348,-9.0235,-9.005,-9.1222,-9.2783,-9.3125,-9.4345,-9.6005,-9.6395,-9.6395,-9.6395,-9.6395,-9.6395,-9.6395,-9.6395,-9.6395,-9.6395,-9.6395,-9.6395,-9.6542,-9.6786,-9.6972,-9.701,-9.5805,-9.159,-8.5544,-8.2987,-8.136,-7.8589,-7.749,-7.6033,-7.4553,-7.29,-7.2017,-7.1536,-7.1026,-7.0762,-7.0499,-7.0367,-7.0273,-7.0085,-7.054,-7.1148,-7.2249,-7.1679,-7.1793,-7.2021,-7.0996,-7.0578,-7.111,-7.1717,-7.2325,-7.3122,-7.2856,-7.3463,-7.3843,-7.3843,-7.3691,-7.4754,-7.4451,-7.4527,-7.483,-7.4982,-7.521,-7.5514,-7.5969,-7.6425,-7.6766,-7.726,-7.7943,-7.8475,-7.8855,-7.9196,-7.92,-7.7453,-7.277,-6.7073,-6.1108,-5.858,-5.6981,-5.5675,-5.4883,-5.4883,-5.4883,-5.4805,-5.4753,-5.4857,-5.4883,-5.4883,-5.4883,-5.4883,-10.6762,-10.6705,-10.6367,-10.6423,-10.6536,-10.5464,-10.5125,-10.5238,-10.4109,-10.3771,-10.394,-10.3715,-10.3658,-10.3997,-10.3997,-10.3997,-10.3997,-10.3997,-10.3792,-10.281,-10.0713,-9.7547,-9.501,-9.326,-9.1529,-9.0284,-9.0392,-9.1368,-9.3027,-9.3467,-9.4589,-9.6346,-9.6395,-9.6395,-9.6395,-9.6395,-9.6298,-9.6053,-9.5956,-9.5858,-9.5565,-9.5344,-9.5317,-9.5192,-9.4346,-9.3546,-9.312,-9.1402,-8.7235,-8.1269,-7.9436,-7.8294,-7.6859,-7.5687,-7.46,-7.3679,-7.2544,-7.1338,-7.0746,-7.0273,-7.0009,-7.0047,-7.0009,-7.0085,-7.035,-7.0958,-7.1717,-7.2438,-7.1869,-7.1603,-7.2059,-7.0996,-7.0388,-7.0958,-7.1831,-7.2742,-7.3463,-7.3995,-7.4337,-7.4754,-7.3957,-7.3995,-7.4489,-7.4564,-7.4413,-7.483,-7.4982,-7.5058,-7.5172,-7.5514,-7.5703,-7.6121,-7.6615,-7.7374,-7.8019,-7.8399,-7.8594,-7.8409,-7.5059,-7.0324,-6.4922,-5.9629,-5.747,-5.5702,-5.5047,-5.4674,-5.47,-5.4753,-5.4648,-5.4355,-5.4303,-5.431,-5.444,-5.4544,-5.4492,-10.4222,-10.4053,-10.2981,-10.3263,-10.3997,-10.3037,-10.3094,-10.3771,-10.2812,-10.2812,-10.3432,-10.2699,-10.2812,-10.3715,-10.3771,-10.3715,-10.3997,-10.3884,-10.2857,-10.0443,-9.8147,-9.6619,-9.5233,-9.2105,-9.0468,-9.0148,-9.088,-9.1905,-9.293,-9.376,-9.5273,-9.6005,-9.5929,-9.6298,-9.5804,-9.6298,-9.5587,-9.4856,-9.4759,-9.4271,-9.3491,-9.3028,-9.271,-9.271,-9.0176,-8.8585,-8.7831,-8.5105,-8.171,-7.8509,-7.5664,-7.3559,-7.1288,-7.0575,-7.0916,-7.0839,-7.0311,-7.0217,-7.0179,-7.0009,-7.0047,-7.0047,-7.0047,-7.0312,-7.0844,-7.1072,-7.1679,-7.2932,-7.1983,-7.1527,-7.1983,-7.1072,-7.0236,-7.0312,-7.1375,-7.2514,-7.3388,-7.2476,-7.2932,-7.4071,-7.3691,-7.3122,-7.4489,-7.4754,-7.4716,-7.4906,-7.4944,-7.4982,-7.502,-7.5058,-7.5096,-7.54,-7.5855,-7.6501,-7.7032,-7.7341,-7.7173,-7.6011,-7.2009,-6.7657,-6.2833,-5.941,-5.6981,-5.5702,-5.4831,-5.4544,-5.4251,-5.4277,-5.4225,-5.4277,-5.407,-5.3576,-5.3524,-5.3628,-5.3467,-10.174,-10.1683,-10.1232,-10.1288,-10.1627,-10.1232,-10.1288,-10.157,-10.1232,-10.1288,-10.157,-10.1175,-10.1288,-10.1796,-10.253,-10.2417,-10.1909,-10.3376,-10.1535,-9.7398,-9.4804,-9.3387,-9.2284,-9.0701,-9.005,-9.0148,-9.0441,-9.1173,-9.2149,-9.2637,-9.3077,-9.3757,-9.3902,-9.3704,-9.3237,-9.3237,-9.314,-9.2755,-9.2658,-9.2513,-9.2053,-9.1835,-9.1712,-9.1446,-8.9724,-8.775,-8.5252,-7.8586,-7.4329,-7.3068,-7.2036,-7.1157,-7.0141,-7.0047,-7.0047,-7.0047,-7.0047,-7.0047,-7.0047,-7.0047,-7.0047,-7.0047,-7.0047,-7.0198,-7.0388,-7.0464,-7.0958,-7.1869,-7.1224,-7.1034,-7.2059,-7.1413,-7.0616,-7.0123,-7.073,-7.1261,-7.2021,-7.2059,-7.2628,-7.297,-7.2894,-7.2856,-7.3388,-7.3767,-7.4185,-7.4299,-7.464,-7.4982,-7.4982,-7.4944,-7.4982,-7.5134,-7.5286,-7.559,-7.6083,-7.604,-7.5872,-7.2256,-6.8556,-6.4648,-6.0999,-5.7968,-5.6332,-5.5169,-5.4596,-5.431,-5.3966,-5.3992,-5.3992,-5.4303,-5.457,-5.4018,-5.3706,-5.3576,-5.1707,-10.0385,-10.0329,-9.9934,-9.999,-10.0272,-9.9934,-10.0047,-10.0272,-9.9934,-9.999,-10.0216,-9.9934,-9.999,-10.0498,-10.1175,-10.1175,-10.03,-9.9977,-9.829,-9.4676,-9.2432,-9.1231,-9.0803,-8.9884,-8.9415,-8.9463,-8.9706,-9.0288,-9.0847,-9.1403,-9.1719,-9.1935,-9.2005,-9.1835,-9.1563,-9.1345,-9.1105,-9.0866,-9.0866,-9.0675,-9.0266,-8.9365,-8.8705,-8.8489,-8.6116,-8.3805,-8.1303,-7.4877,-7.1064,-7.0179,-7.0047,-7.0047,-7.0047,-7.0047,-7.0047,-7.0047,-7.0047,-7.0047,-7.0047,-7.0047,-7.0047,-7.0047,-7.0047,-7.0123,-7.035,-7.0464,-7.0844,-7.1489,-7.0958,-7.0768,-7.1679,-7.1375,-7.092,-7.0806,-7.0806,-7.1224,-7.1831,-7.2173,-7.2476,-7.2476,-7.2287,-7.2287,-7.2552,-7.2932,-7.335,-7.3426,-7.3767,-7.4109,-7.4147,-7.4033,-7.4223,-7.4261,-7.4461,-7.4472,-7.3641,-7.308,-7.1073,-6.7234,-6.434,-6.1072,-5.8197,-5.5601,-5.5152,-5.4507,-5.4315,-5.4075,-5.3919,-5.368,-5.3628,-5.381,-5.3493,-5.3571,-5.383,-5.24,-4.9975,-10.0272,-9.999,-9.9031,-9.9087,-9.9765,-9.8918,-9.9144,-9.9765,-9.8975,-9.9031,-9.9652,-9.8975,-9.9087,-9.9892,-9.9765,-10.0019,-9.8636,-9.4823,-9.2672,-9.2188,-9.0495,-9.0429,-9.1426,-8.8979,-8.7899,-8.7947,-8.9048,-8.9478,-8.9503,-9.0317,-9.0892,-9.1105,-9.101,-9.0839,-9.1249,-9.0765,-9.0553,-8.9715,-8.9476,-8.9047,-8.7783,-8.5208,-8.3789,-8.304,-7.8001,-7.4933,-7.4546,-7.3858,-7.2297,-7.0273,-7.0047,-7.0047,-7.0047,-7.0047,-7.0047,-7.0047,-7.0047,-7.0047,-7.0047,-7.0047,-7.0047,-7.0047,-7.0047,-7.0312,-7.0806,-7.0996,-7.1299,-7.1793,-7.1451,-7.1186,-7.1186,-7.0654,-7.0616,-7.2059,-7.1907,-7.1907,-7.2173,-7.24,-7.2438,-7.2249,-7.1717,-7.1641,-7.2211,-7.2438,-7.2514,-7.2514,-7.2704,-7.2856,-7.2932,-7.2932,-7.2666,-7.278,-7.2719,-7.2014,-7.1153,-6.9758,-6.5857,-6.2359,-6.0087,-5.8147,-5.5349,-5.4525,-5.4061,-5.3638,-5.3265,-5.3342,-5.3161,-5.3239,-5.3213,-5.3001,-5.183,-5.1519,-5.061,-4.935,-4.7432,-9.858,-9.779,-9.7338,-9.7451,-9.7733,-9.7434,-9.7451,-9.7677,-9.7338,-9.749,-9.7677,-9.7395,-9.7203,-9.717,-9.6521,-9.5374,-9.3401,-9.0932,-8.9266,-8.8482,-8.6459,-8.6231,-8.7105,-8.638,-8.5918,-8.6013,-8.6252,-8.6395,-8.6539,-8.7612,-8.7854,-8.7473,-8.8185,-8.8276,-8.7913,-8.7792,-8.7651,-8.7369,-8.7274,-8.7133,-8.6491,-8.3929,-8.2536,-8.1424,-7.5237,-7.1288,-7.1288,-7.1288,-7.0762,-7.0141,-7.0047,-7.0047,-7.0047,-7.0047,-7.0047,-7.0047,-7.0009,-7.0047,-7.0047,-7.0047,-7.0009,-7.0009,-7.0047,-7.0085,-7.0388,-7.0426,-7.054,-7.0692,-7.054,-7.073,-7.092,-7.0502,-7.0236,-7.0654,-7.0806,-7.0806,-7.0844,-7.071,-7.0844,-7.071,-7.052,-7.0578,-7.0806,-7.1337,-7.1603,-7.1679,-7.2211,-7.2476,-7.2514,-7.2514,-7.2514,-7.2377,-7.0975,-6.9559,-6.7986,-6.4648,-6.0489,-5.7845,-5.5461,-5.4698,-5.3193,-5.3139,-5.2922,-5.2565,-5.2485,-5.2563,-5.2641,-5.2745,-5.2849,-5.282,-5.1464,-4.926,-4.7748,-4.6212,-4.3002,-9.6078,-9.525,-9.5344,-9.5157,-9.5063,-9.5063,-9.4913,-9.4781,-9.4781,-9.4781,-9.4781,-9.4969,-9.4875,-9.4309,-9.1069,-8.8479,-8.6825,-8.5508,-8.4764,-8.4608,-8.3418,-8.3344,-8.4475,-8.4341,-8.4341,-8.4341,-8.4293,-8.4341,-8.4436,-8.5005,-8.5105,-8.478,-8.4797,-8.4405,-8.3786,-8.3398,-8.3092,-8.282,-8.3137,-8.3318,-8.2905,-8.0679,-7.8916,-7.8064,-7.2216,-6.9097,-6.9097,-6.9097,-6.9097,-6.9097,-6.9097,-6.9097,-6.9097,-6.9097,-6.9097,-6.9097,-6.9097,-6.9097,-6.9097,-6.9097,-6.9211,-6.9515,-6.9591,-6.9667,-6.9971,-7.0047,-7.0047,-7.0047,-7.0047,-7.0198,-7.0616,-7.035,-7.0047,-7.0047,-7.0047,-6.9687,-6.891,-6.9346,-6.9479,-6.8777,-6.9479,-6.9441,-6.9097,-6.9931,-7.0404,-6.977,-7.0685,-7.0813,-7.0481,-7.1024,-7.0369,-6.8944,-6.789,-6.6717,-6.4667,-5.9261,-5.5782,-5.3352,-5.206,-5.1624,-5.1449,-5.1349,-5.1268,-5.1054,-5.1343,-5.1473,-5.1576,-5.1732,-5.1154,-5.0941,-4.9398,-4.7424,-4.6054,-4.1976,-3.8653,-9.288,-9.2937,-9.288,-9.2719,-9.2147,-9.2295,-9.2018,-9.1871,-9.1759,-9.1704,-9.1908,-9.1889,-9.1759,-9.0906,-8.478,-8.1027,-8.0344,-7.9717,-8.0055,-8.1098,-8.1325,-8.2292,-8.3692,-8.3325,-8.3047,-8.2928,-8.2881,-8.2975,-8.3068,-8.3093,-8.3187,-8.3118,-8.1714,-8.0353,-7.9667,-7.8924,-7.774,-7.7511,-7.7987,-7.8166,-7.7914,-7.5417,-7.3031,-7.1703,-6.8862,-6.7579,-6.7541,-6.7465,-6.7503,-6.7465,-6.7541,-6.7541,-6.7503,-6.7541,-6.7579,-6.7541,-6.7503,-6.7503,-6.7541,-6.7579,-6.7921,-6.8604,-6.8832,-6.9135,-6.9781,-6.9971,-7.0009,-7.0009,-6.9158,-6.8781,-6.8856,-6.8272,-6.8611,-6.8761,-6.9233,-6.7905,-6.5762,-6.7407,-6.7978,-6.6604,-6.7407,-6.7541,-6.5896,-6.7978,-6.7614,-6.6738,-6.7675,-6.8341,-6.6397,-6.7564,-6.6702,-6.3974,-6.3637,-6.3809,-5.7152,-5.3956,-5.1939,-5.0593,-5.0235,-4.9381,-4.9357,-4.9356,-4.943,-4.9525,-5.0044,-5.0382,-5.0512,-5.0112,-4.9437,-4.8186,-4.6529,-4.3976,-4.1859,-3.7859,-3.4796,-9.288,-9.288,-9.2515,-9.2091,-9.1778,-9.2055,-9.1963,-9.1592,-9.15,-9.15,-9.1407,-9.004,-8.7439,-8.4151,-8.2838,-8.1156,-7.9733,-7.9725,-7.9562,-7.9241,-7.9302,-8.0004,-8.1053,-8.0987,-8.0874,-8.0874,-8.0921,-8.0921,-8.0967,-8.1622,-8.211,-8.1792,-8.0432,-7.9563,-7.9102,-7.7213,-7.6164,-7.5951,-7.6164,-7.6335,-7.5596,-7.1727,-6.9034,-6.8609,-6.7809,-6.7427,-6.7427,-6.7427,-6.7427,-6.7427,-6.7427,-6.7427,-6.7427,-6.7427,-6.7427,-6.7427,-6.7427,-6.7427,-6.7427,-6.7427,-6.7579,-6.7845,-6.8452,-6.8908,-6.9173,-6.9667,-7.0009,-6.9498,-6.5219,-6.2469,-6.217,-6.217,-6.2448,-6.2934,-6.3003,-6.2877,-6.251,-6.3021,-6.3394,-6.2612,-6.336,-6.3293,-6.2749,-6.3157,-6.3492,-6.2235,-6.2467,-6.233,-6.1548,-6.171,-6.2183,-6.0921,-5.9391,-5.7178,-5.2733,-5.0835,-5.0293,-4.9607,-4.9178,-4.8828,-4.8359,-4.8267,-4.8304,-4.885,-4.9031,-4.9317,-4.9311,-4.7785,-4.6594,-4.5302,-4.2199,-3.8478,-3.725,-3.4088,-3.1212,-9.0907,-9.1087,-9.0489,-9.009,-8.9724,-8.9999,-8.9816,-8.9357,-8.9412,-8.8895,-8.7909,-8.4993,-8.2129,-7.9297,-7.9107,-7.8402,-7.7181,-7.7932,-7.7897,-7.7382,-7.8163,-7.8864,-7.9425,-7.9799,-8.0079,-8.0079,-8.0079,-7.9585,-7.8844,-7.9077,-7.8941,-7.7836,-7.6292,-7.5359,-7.4939,-7.3195,-7.2171,-7.1845,-7.2171,-7.1885,-7.0621,-6.7614,-6.6189,-6.644,-6.644,-6.644,-6.644,-6.644,-6.644,-6.644,-6.644,-6.644,-6.644,-6.644,-6.644,-6.644,-6.644,-6.644,-6.644,-6.5396,-6.4727,-6.4891,-6.4644,-6.4434,-6.46,-6.5158,-6.5591,-6.5087,-6.1837,-5.928,-5.9445,-5.928,-5.9447,-5.9715,-5.9815,-5.9581,-5.8962,-5.9639,-5.9972,-5.9281,-6.0133,-6.1016,-6.101,-6.0148,-5.9136,-5.869,-5.9413,-5.9315,-5.7989,-5.862,-5.8285,-5.6543,-5.4333,-5.1896,-5.0056,-4.9534,-4.9294,-4.8749,-4.8462,-4.8462,-4.7915,-4.7889,-4.7967,-4.8304,-4.8642,-4.866,-4.7858,-4.5868,-4.4561,-4.2474,-3.9016,-3.4928,-3.2925,-3.0422,-2.8323,-8.8009,-8.8275,-8.7886,-8.7473,-8.7224,-8.6954,-8.6591,-8.6081,-8.5753,-8.454,-8.2436,-7.8608,-7.7019,-7.6368,-7.4462,-7.3505,-7.3599,-7.4095,-7.4563,-7.5124,-7.6947,-7.8069,-7.863,-7.9472,-7.9939,-8.0079,-8.0079,-7.8864,-7.6459,-7.6389,-7.4966,-7.249,-7.0619,-6.9571,-6.8685,-6.7691,-6.6693,-6.6011,-6.6731,-6.6101,-6.4087,-6.3975,-6.4221,-6.4591,-6.4468,-6.443,-6.3926,-6.4184,-6.4098,-6.4221,-6.4061,-6.3986,-6.3986,-6.4034,-6.3959,-6.3873,-6.3873,-6.3959,-6.3713,-6.1702,-6.0423,-6.053,-5.9141,-5.8301,-5.8531,-5.8384,-5.8224,-5.8191,-5.8224,-5.7861,-5.8389,-5.8092,-5.7793,-5.7787,-5.8086,-5.7589,-5.5699,-5.712,-5.7848,-5.5807,-5.7539,-5.9537,-5.9144,-5.7454,-5.5887,-5.5442,-5.6444,-5.6602,-5.4848,-5.5849,-5.5436,-5.1573,-4.9179,-4.8434,-4.8218,-4.8468,-4.8447,-4.8006,-4.7889,-4.7889,-4.7889,-4.7889,-4.7889,-4.7926,-4.8015,-4.6934,-4.5346,-4.3556,-4.2676,-3.9677,-3.6714,-3.3377,-2.9983,-2.7872,-2.6571,-8.7742,-8.7831,-8.7384,-8.7384,-8.7384,-8.5553,-8.4447,-8.3796,-8.2141,-8.0318,-7.846,-7.7469,-7.6114,-7.4353,-7.149,-7.0309,-6.9982,-6.8112,-6.886,-7.1665,-7.2319,-7.4656,-7.8256,-7.8724,-7.9285,-7.9986,-8.0079,-7.8752,-7.6459,-7.623,-7.4691,-7.1699,-6.8886,-6.7516,-6.7198,-6.5092,-6.3963,-6.3815,-6.4461,-6.4473,-6.4012,-6.4468,-6.3691,-6.1919,-6.1722,-6.0761,-5.8752,-5.8626,-5.8626,-5.8592,-5.8202,-5.8016,-5.7982,-5.7465,-5.7277,-5.7277,-5.7277,-5.7277,-5.7155,-5.6665,-5.6297,-5.6419,-5.6478,-5.6865,-5.6986,-5.3204,-5.0407,-5.0466,-5.1042,-5.1518,-5.1905,-5.1891,-5.2201,-5.3178,-5.3326,-5.3188,-5.3141,-5.3537,-5.3588,-5.2762,-5.301,-5.3463,-5.2952,-5.2345,-5.1984,-5.1781,-5.1692,-5.1476,-5.0402,-4.9992,-4.9988,-4.8161,-4.7348,-4.6988,-4.7271,-4.7444,-4.7537,-4.7837,-4.7863,-4.7863,-4.7889,-4.7889,-4.7745,-4.7458,-4.6118,-4.4258,-4.3263,-4.0198,-3.7148,-3.5816,-3.2992,-3.0181,-2.8947,-2.7388,-2.6095,-8.7204,-8.7204,-8.5881,-8.5553,-8.5827,-8.3275,-8.2046,-8.1414,-7.7061,-7.4384,-7.3595,-7.4884,-7.4896,-7.3778,-7.2085,-7.1337,-7.1244,-6.9608,-7.0075,-7.2132,-7.2693,-7.3902,-7.5434,-7.6378,-7.6461,-7.6104,-7.6394,-7.5312,-7.299,-7.248,-7.0949,-6.8125,-6.6105,-6.5044,-6.5044,-6.3728,-6.3022,-6.2862,-6.066,-5.9718,-6.0083,-5.8642,-5.7204,-5.6099,-5.6337,-5.5603,-5.3834,-5.3834,-5.3666,-5.3449,-5.3045,-5.3314,-5.417,-5.3868,-5.4103,-5.4955,-5.5056,-5.5056,-5.5056,-5.5056,-5.4279,-5.2763,-5.2265,-5.1457,-5.0372,-4.7451,-4.5836,-4.5989,-4.6575,-4.7207,-4.7384,-4.7412,-4.7803,-4.8752,-4.8835,-4.925,-5.0056,-5.0305,-5.0305,-5.0494,-5.0403,-5.0204,-5.0147,-4.9622,-4.9318,-4.9155,-4.8634,-4.8299,-4.8227,-4.7511,-4.6695,-4.6593,-4.6216,-4.6013,-4.6261,-4.646,-4.6876,-4.7395,-4.7499,-4.7603,-4.7863,-4.7889,-4.7145,-4.5993,-4.4525,-4.2234,-3.8632,-3.5915,-3.3283,-3.1787,-2.9213,-2.796,-2.7104,-2.6338,-2.5325,-8.6118,-8.63,-8.3743,-8.2771,-8.2628,-8.037,-7.9063,-7.7881,-7.2398,-6.9888,-7.0028,-7.2693,-7.3815,-7.3815,-7.3394,-7.3207,-7.3161,-7.274,-7.2787,-7.3207,-7.3831,-7.3326,-7.2098,-7.3154,-7.2872,-7.1338,-7.1715,-7.0775,-6.8644,-6.7845,-6.6232,-6.3975,-6.3146,-6.2898,-6.2774,-6.265,-6.211,-6.0876,-5.6172,-5.4088,-5.4752,-5.1628,-4.9818,-4.9765,-5.0349,-5.0141,-4.8954,-4.8877,-4.8731,-4.8239,-4.8106,-4.8797,-5.0255,-5.0076,-5.0949,-5.2497,-5.2596,-5.2694,-5.2837,-5.2903,-5.1777,-4.9111,-4.7175,-4.4498,-4.1202,-4.1497,-4.2244,-4.268,-4.3165,-4.3791,-4.385,-4.3801,-4.3964,-4.4597,-4.4623,-4.5044,-4.6056,-4.6269,-4.6537,-4.7264,-4.7517,-4.717,-4.7523,-4.7115,-4.6708,-4.7102,-4.6916,-4.6604,-4.684,-4.555,-4.4307,-4.4094,-4.4215,-4.428,-4.3459,-4.4321,-4.441,-4.5573,-4.5277,-4.5053,-4.555,-4.565,-4.4763,-4.2767,-4.1563,-3.9357,-3.4769,-3.283,-3.0874,-2.8372,-2.7182,-2.6312,-2.5338,-2.4617,-2.4231,-8.3743,-8.3649,-8.1569,-7.9162,-7.6913,-7.6417,-7.3841,-7.0124,0.0,0.0,0.0,-7.3581,-7.3815,-7.3628,-7.115,-7.0028,-6.9888,-6.7457,-6.7644,-6.9931,-6.8193,-6.8983,-7.1748,-7.0248,-6.9812,-7.0201,-6.9833,-6.8732,-6.6929,-6.6296,-6.4767,-6.2577,-6.2277,-6.1903,-6.1368,-6.1368,-5.801,-5.1348,-5.0993,-5.1262,-5.193,-5.2156,-5.0473,-4.6468,-4.699,-4.5635,-4.2279,-4.2221,-4.2385,-4.2629,-4.2099,-4.1981,-4.2276,-4.1441,-4.0998,-4.1323,-4.085,-4.1264,-4.2717,-4.2864,-4.3031,-4.3552,-4.2717,-3.984,-3.4444,-3.5408,-3.6411,-3.6902,-3.7542,-3.8176,-3.8913,-3.8983,-3.9217,-3.9842,-3.9889,-4.0023,-4.0275,-4.0298,-4.0377,-3.985,-4.0081,-4.0356,-4.2151,-4.2283,-4.2852,-4.4705,-4.4758,-4.5381,-4.5244,-4.1185,-3.805,-3.8096,-3.933,-3.9316,-3.7941,-3.8009,-3.8088,-3.9127,-3.9368,-3.9225,-3.9499,-3.9652,-3.9508,-3.8847,-3.6624,-3.4837,-3.3076,-3.0404,-2.7957,-2.7189,-2.6035,-2.5037,-2.4575,-2.3788,-2.2912,-8.1665,0.0,-7.9345,-7.7612,0.0,-7.5013,-7.0548,-6.4051,-6.5523,-6.7364,-6.928,-7.0823,-7.1805,-7.2179,-6.9546,-6.9277,-7.0584,-6.6898,-6.6909,-6.9566,-6.7375,-6.6553,-6.696,-6.6723,-6.5797,-6.4556,-6.4978,-6.4683,-6.346,-6.2866,-6.1419,-5.9021,-5.8665,-5.7346,-5.4978,-5.4827,-5.2136,-4.6705,-4.712,-4.7384,-4.7657,-4.646,-4.4459,-4.2155,-4.2496,0.0,0.0,0.0,0.0,0.0,0.0,0.0,0.0,0.0,0.0,-3.6746,-3.5052,-3.4146,-3.4875,-3.4928,-3.54,-3.6403,-3.5964,-3.3752,-2.9295,-3.0268,-3.1324,-3.2049,-3.282,-3.3746,-3.4663,-3.4816,-3.5013,-3.5601,-3.5796,-3.6123,-3.6783,-3.6824,-3.6757,-3.7045,-3.686,-3.6952,-3.8234,-3.7791,-3.8078,-3.9486,-3.9559,-3.9369,-3.9648,-3.7035,-3.5023,-3.5237,-3.6192,-3.6281,-3.5471,-3.533,-3.5739,-3.6164,-3.6461,-3.6642,-3.7087,-3.7171,-3.6612,-3.4951,-3.3735,-3.2033,-3.028,-2.8226,-2.6598,-2.6021,-2.4998,-2.4119,-2.3502,-2.2853,-2.2402,-7.8884,-7.869,-7.6681,-7.5448,-7.4816,-7.336,-6.8392,-6.1427,-6.0246,-6.1699,-6.5129,-6.7387,-6.8665,-6.9217,-6.7797,-6.8438,-7.0632,-6.7148,-6.685,-6.9112,-6.6879,-6.4415,-6.2074,-6.2931,-6.1795,-5.908,-6.0277,-6.0711,-6.0351,-5.9704,-5.8513,-5.6888,-5.5745,-5.3263,-4.9594,0.0,0.0,0.0,-4.3328,-4.3477,-4.3443,-4.0531,-3.8528,-3.7631,-3.8047,0.0,-3.6508,-3.6482,-3.6197,-3.5628,-3.3415,0.0,0.0,0.0,0.0,0.0,0.0,0.0,0.0,0.0,0.0,0.0,-2.8434,-2.6751,-2.4618,-2.5127,-2.6025,-2.6896,-2.7957,-2.8866,-2.9565,-2.9646,-2.993,-3.06,-3.0701,-3.1352,-3.2858,-3.2818,-3.311,-3.423,-3.3656,-3.3484,-3.4142,-3.3571,-3.3403,-3.4589,-3.4039,-3.3568,-3.3145,-3.2364,-3.2541,-3.3384,-3.2865,-3.2795,-3.2945,-3.2765,-3.2703,-3.3491,-3.3653,-3.3782,-3.4049,-3.4285,-3.3312,-3.132,-3.0988,-2.9986,-2.7299,-2.621,-2.5589,-2.4659,-2.38,-2.2902,-2.1564,-2.124,-2.1166,-7.4669,-7.4477,-7.2387,-6.9949,-6.7505,-6.8207,-6.7737,-6.6523,-6.4838,-6.4802,-6.5912,-6.5371,-6.4791,-6.4185,-6.47,-6.5131,-6.5467,-6.495,-6.4932,-6.5122,-6.2818,-6.1613,-6.1106,-5.9344,-5.8225,-5.775,-5.8215,-5.8703,-5.9299,-5.8844,-5.8803,-5.9047,-5.6379,-5.3785,-5.161,-4.341,-3.8548,-3.7232,-3.8994,-4.0131,-4.0777,-4.0678,-3.8679,-3.4527,-3.4721,-3.3359,-3.0,-2.9825,-2.9806,-2.9885,-2.9583,-2.943,-2.9647,-2.6936,-2.5578,0.0,-2.3773,0.0,0.0,0.0,0.0,0.0,0.0,0.0,0.0,-1.9499,-1.9596,-1.9965,-2.1542,-2.2206,-2.148,-2.131,-2.1841,-2.3085,-2.3155,-2.37,-2.5127,-2.5293,-2.5432,-2.5516,-2.5432,-2.6487,-2.9039,-2.9201,-3.0186,-3.2483,-3.2713,-3.098,-2.7294,-2.6366,-2.7243,-2.937,-2.7747,-2.6953,-2.6824,-2.6767,-2.7097,-2.6902,-2.7531,-2.7366,-2.7951,-2.8017,-2.7779,-2.7371,-2.7403,-2.6794,-2.5503,-2.468,-2.4036,-2.3212,-2.22,-2.08,-1.8743,-1.8047,-1.7291,-7.0961,-7.0341,-6.9432,-6.7644,-6.5354,-6.5213,-6.4528,-6.3425,-6.21,-6.1039,-6.0356,-6.0491,-6.0671,-6.0756,-5.99,-6.081,-6.2688,-6.0383,-6.0215,-6.1702,-5.9444,-5.7852,-5.6993,-5.6872,-5.6317,-5.562,-5.5977,-5.6359,-5.6541,-5.4446,-5.3228,-5.263,-4.9864,-4.7112,-4.4298,-3.876,-3.6005,-3.6384,-3.7397,-3.7948,-3.7902,-3.683,-3.53,-3.3383,-3.3559,-3.2749,-3.0787,-3.0745,-3.0652,-3.044,-2.8916,-2.8145,-2.838,-2.3916,-2.1402,0.0,0.0,0.0,0.0,0.0,0.0,0.0,0.0,0.0,0.0,0.0,-1.59,-1.6339,-1.9088,-1.983,-1.7644,-1.8475,-1.9032,-1.8912,-1.8431,-1.8929,-2.1109,-2.1273,-2.1436,-2.1816,-2.2402,-2.3345,-2.4753,-2.5211,-2.6123,-2.8028,-2.724,-2.5352,-2.2483,-2.3132,-2.4446,-2.5572,-2.532,-2.4815,-2.4815,-2.5086,-2.518,-2.5196,-2.5307,-2.5464,-2.5491,-2.5522,-2.5522,-2.5538,-2.5414,-2.5195,-2.4675,-2.3969,-2.3164,-2.2279,-1.9471,-1.6417,-1.5058,-1.4956,-1.4778,-6.783,-6.6756,-6.439,-6.2504,-6.1077,-6.0295,-5.9474,-5.8514,-5.7189,-5.6042,-5.4782,-5.4296,-5.4788,-5.5788,-5.3501,-5.4578,-5.8105,-5.475,-5.5043,-5.8107,-5.5706,-5.4021,-5.3084,-5.3538,-5.3199,-5.2268,-5.2574,-5.2832,-5.2965,-4.977,-4.761,-4.6507,-4.2508,-3.9228,-3.6537,-3.4175,-3.3746,-3.546,-3.5562,-3.5369,-3.4964,-3.3304,-3.2171,-3.18,-3.18,-3.1389,-3.0432,-3.0412,-3.0214,-2.9798,-2.7208,-2.6036,-2.6478,-2.0998,0.0,0.0,0.0,0.0,0.0,0.0,0.0,0.0,0.0,-1.1376,-1.0001,0.0,-1.3328,0.0,-1.698,-1.762,-1.5078,-1.6007,0.0,0.0,-1.5124,-1.5471,-1.7918,-1.811,-1.8311,-1.8897,-1.9649,-2.0561,-2.1246,-2.1586,-2.2057,-2.2647,-2.1456,-2.0051,-1.8914,-2.0689,-2.1895,-2.191,-2.2419,-2.3067,-2.2898,-2.3453,-2.3983,-2.4548,-2.4707,-2.4707,-2.458,-2.458,-2.458,-2.4469,-2.4272,-2.3638,-2.2735,-2.2023,-2.1242,-2.0021,-1.6091,-1.2157,-1.1781,-1.1715,-1.1551,-6.5821,-6.4192,-5.4909,-5.1007,-5.0754,-5.0667,-5.1855,-5.3589,-5.1818,-5.1432,-5.1652,-4.6922,-4.5729,-4.7111,-4.4679,0.0,-4.857,-4.8246,-5.0247,-5.4115,-5.1297,-5.0244,-5.0644,-4.8226,-4.7026,-4.6992,-4.7114,-4.7499,-4.7883,-4.5856,-4.5047,-4.5109,-3.6397,-3.1991,-3.2091,-3.0368,-3.0308,-3.2066,-3.2212,-3.2143,-3.1864,-3.1935,-3.0863,-2.8476,-2.8373,-2.7256,-2.4808,-2.4686,-2.4401,-2.398,-2.2314,-2.1218,-2.0758,0.0,0.0,0.0,0.0,0.0,0.0,0.0,0.0,0.0,0.0,0.0,0.0,0.0,0.0,0.0,-1.4042,0.0,-1.2752,-1.2296,0.0,0.0,0.0,-1.3309,-1.4819,-1.5043,-1.5145,-1.5227,0.0,0.0,-1.8065,-1.8484,-1.8373,-1.7583,-1.7685,-1.7698,-1.7177,-1.766,-1.7984,-1.7824,-1.7812,-1.785,-1.8272,-1.9754,-2.1522,-2.3271,-2.3996,-2.3734,-2.3734,-2.3766,-2.3642,-2.3056,-2.304,-2.1956,-1.8316,-1.7604,-1.6583,-1.3727,-1.2407,-1.137,-0.9145,-0.8604,-0.8024,-5.7351,-5.3003,-4.9058,-4.7324,-4.7324,-4.7324,-4.7222,-4.7003,-4.6218,-4.539,-4.446,-4.163,-4.069,-4.1244,-3.9492,0.0,0.0,0.0,-4.2948,-4.5637,-4.4843,-4.4875,-4.5853,-4.5572,-4.5438,-4.5471,-4.4923,-4.5002,-4.5581,-4.23,-3.7688,-3.1583,0.0,0.0,-2.6433,-2.6803,-2.7706,-2.9208,-3.0312,-2.9996,-2.8184,-2.8732,-2.7767,-2.5278,-2.5497,-2.4806,-2.3317,-2.3491,-2.2954,-2.147,-2.0197,-1.846,0.0,0.0,0.0,0.0,0.0,0.0,0.0,0.0,0.0,0.0,0.0,-0.8517,-0.7193,0.0,0.0,0.0,-1.0109,-0.9247,-0.8657,-0.9848,0.0,0.0,0.0,0.0,0.0,0.0,0.0,-1.2637,-1.3717,-1.4829,-1.5739,-1.4671,-1.3671,-1.3371,-1.4169,-1.4472,-1.3465,0.0,-1.617,-1.6331,-1.6709,-1.6981,-1.7242,-1.742,-1.7866,-1.9375,-1.9848,-1.9987,-2.0015,-2.0348,-2.0169,-1.9196,-1.8578,-1.7589,-1.5348,-1.2913,-1.0456,-0.7802,-0.7242,-0.6912,-0.581,-0.5626,-0.5552,-4.6888,0.0,0.0,0.0,0.0,-4.0789,-4.0414,-3.9831,-3.976,-3.9005,-3.7584,-3.5796,0.0,0.0,0.0,0.0,0.0,0.0,-3.7265,-3.92,-4.0122,-4.0707,-4.1147,-4.1362,-4.1461,-4.1364,-3.999,-3.9412,-3.9511,-3.569,-2.975,-2.1988,0.0,0.0,0.0,0.0,-2.4123,-2.5557,-2.7093,-2.6883,-2.4792,-2.5444,-2.4837,-2.3081,-2.3333,-2.3238,-2.2749,-2.2228,-2.1354,-1.9812,-1.783,0.0,0.0,0.0,0.0,0.0,0.0,0.0,0.0,0.0,0.0,0.0,0.0,0.0,0.0,0.0,0.0,0.0,0.0,0.0,-0.5171,-0.6893,-0.7425,0.0,0.0,0.0,0.0,0.0,0.0,0.0,0.0,0.0,-1.1911,-1.0494,-0.9737,0.0,0.0,-1.1787,-1.0517,-1.231,-1.3647,-1.3571,-1.381,0.0,-1.4187,-1.394,-1.3863,-1.4624,-1.5594,-1.6225,-1.6225,-1.6437,-1.6341,-1.5272,-1.4728,-1.3556,-1.1068,-0.8172,-0.5902,-0.421,-0.3673,-0.3697,-0.3705,-0.3747,-0.3905,0.0,0.0,0.0,0.0,0.0,0.0,0.0,0.0,-3.2191,-3.2259,0.0,-2.8969,0.0,0.0,0.0,0.0,0.0,-3.1641,0.0,0.0,-3.7898,-3.8203,-3.7045,-3.4534,-3.3294,-3.309,-3.0922,-2.9169,-2.8027,-2.4862,0.0,0.0,0.0,0.0,0.0,0.0,-1.8819,-2.0667,-2.1718,-2.2073,-2.1961,-2.231,-2.2501,-2.2402,-2.2402,-2.2386,-2.2307,-2.0086,-1.8751,-1.862,-1.4322,0.0,0.0,0.0,0.0,0.0,0.0,0.0,0.0,0.0,0.0,0.0,0.0,0.0,0.0,0.0,0.0,0.0,0.0,0.0,0.0,-0.3078,0.0,0.0,0.0,0.0,0.0,0.0,0.0,0.0,0.0,0.0,-0.6028,-0.6149,-0.7124,-0.9132,0.0,0.0,0.0,0.0,-0.9583,-0.821,-0.7909,-0.7651,-0.665,-0.8368,-0.9787,-0.9975,0.0,0.0,-1.3131,-1.3012,-1.2778,-1.2139,-1.2015,-1.0453,-0.4635,-0.358,-0.3279,-0.318,-0.3191,-0.3175,-0.3177,-0.3262,-0.3307,0.0,0.0,0.0,0.0,0.0,0.0,0.0,0.0,0.0,-2.582,0.0,-2.3334,0.0,0.0,0.0,0.0,0.0,0.0,0.0,0.0,-2.8393,-2.9055,-2.8735,-2.9639,-2.9215,0.0,-2.6918,-2.4002,0.0,0.0,0.0,0.0,0.0,0.0,0.0,0.0,-1.7841,-1.8355,-2.0599,-2.1818,-2.1818,-2.1944,-2.2118,-2.2339,-2.1928,-2.0922,-1.9409,-1.8021,-1.6676,0.0,0.0,0.0,0.0,0.0,0.0,0.0,0.0,0.0,0.0,0.0,0.0,0.0,0.0,0.0,0.0,0.0,0.0,0.0,0.0,0.0,0.0,0.0,-0.0691,0.0,0.0,0.0,0.0,0.0,0.0,0.0,0.0,0.0,-0.3472,-0.4313,-0.5511,-0.7118,-0.7888,-0.8538,-0.9206,0.0,0.0,0.0,0.0,0.0,0.0,0.0,-0.6288,-0.6814,-0.7109,-0.7478,-0.8435,-0.8834,-0.867,-0.7676,0.0,0.0,-0.3452,-0.2947,-0.2932,-0.3029,-0.3026,-0.304,-0.3077,-0.3132,-0.318,0.0,0.0,0.0,0.0,0.0,0.0,0.0,0.0,0.0,-1.9501,-1.9346,0.0,0.0,0.0,0.0,0.0,0.0,0.0,0.0,0.0,0.0,0.0,-2.284,-2.5028,0.0,0.0,0.0,0.0,0.0,0.0,0.0,0.0,0.0,0.0,0.0,0.0,-1.6987,-1.7113,-1.9828,-2.1423,-2.1644,-2.1644,-2.177,-2.1991,-2.1565,-2.0241,-1.779,0.0,0.0,0.0,0.0,0.0,0.0,0.0,0.0,0.0,0.0,0.0,0.0,0.0,0.0,0.0,0.0,0.0,0.0,0.0,0.0,0.0,0.0,0.0,0.0,0.0,0.1269,0.0,0.0,0.0,0.0,0.0,0.0,0.0,0.0,0.0,0.0,0.0,-0.3165,-0.4668,-0.5874,-0.6876,-0.753,-0.7956,-0.7784,0.0,0.0,0.0,0.0,0.0,0.0,0.0,0.0,0.0,0.0,0.0,0.0,0.0,0.0,-0.3829,-0.2835,-0.2402,-0.222,-0.222,0.0,0.0,0.0,0.0,0.0,0.0,0.0,0.0,0.0,0.0,0.0,0.0,0.0,0.0,0.0,0.0,0.0,0.0,-1.2113,0.0,0.0,0.0,0.0,0.0,0.0,0.0,0.0,0.0,0.0,0.0,0.0,0.0,0.0,0.0,0.0,0.0,0.0,0.0,0.0,0.0,0.0,-1.5961,-1.6757,-1.9086,-2.0649,-2.1312,-2.1328,-2.1422,-2.1344,-2.1281,-2.0179,-1.7702,0.0,0.0,0.0,0.0,0.0,0.0,0.0,0.0,0.0,0.0,0.0,0.0,0.0,0.0,0.0,0.0,0.0,0.0,0.0,0.0,0.0,0.0,0.0,0.0,0.0,0.0,0.2758,0.3226,0.3183,0.0,0.0,0.0,0.0,0.0,0.0,0.0,0.0,0.0,0.0,-0.3742,-0.4748,-0.4384,-0.534,-0.5194,-0.2447,-0.3281,-0.3386,-0.0854,-0.1908,-0.2576,0.0,0.0,0.0,0.0,0.0,0.0,0.0,0.0,0.0,0.0,0.0,0.0,0.0,0.0,0.0,0.0,0.0,0.0,0.0,0.0,0.0,0.0,0.0,0.0,0.0,0.0,0.0,0.0,0.0,0.0,0.0,0.0,0.0,0.0,0.0,0.0,0.0,0.0,0.0,0.0,0.0,0.0,0.0,0.0,0.0,0.0,0.0,0.0,0.0,0.0,0.0,0.0,0.0,0.0,-1.5929,-1.6741,-1.9055,-2.0512,-2.1312,-2.1076,-2.1168,-2.1281,-1.9633,-1.7914,0.0,0.0,0.0,0.0,0.0,0.0,0.0,0.0,0.0,0.0,0.0,0.0,0.0,0.0,0.0,0.0,0.0,0.0,0.0,0.0,0.0,0.0,0.0,0.0,0.0,0.0,0.0,0.0,0.4029,0.4028,0.3701,0.0,0.0,0.0,0.0,0.0,0.0,0.0,0.0,0.0,0.0,-0.2323,-0.3021,-0.3368,-0.3016,-0.1371,-0.1545,-0.1235,0.0468,0.0382,0.0,-0.0435,0.0,0.0,0.0,0.0,0.0,0.0,0.0,0.0,0.0,0.0,0.0,0.0,0.0,0.0,0.0,0.0,0.0,0.0,0.0,0.0,0.0,0.0,0.0,0.0,0.0,0.0,0.0,0.0,0.0,0.0,0.0,0.0,0.0,0.0,0.0,0.0,0.0,0.0,0.0,0.0,0.0,0.0,0.0,0.0,0.0,0.0,0.0,0.0,0.0,0.0,0.0,0.0,0.0,-1.5117,-1.5943,-1.8656,-2.0349,-2.0886,-2.0181,-1.986,-2.0058,-1.7661,-1.5552,0.0,0.0,0.0,0.0,0.0,0.0,0.0,0.0,0.0,0.0,0.0,0.0,0.0,0.0,0.0,0.0,0.0,0.0,0.0,0.0,0.0,0.0,0.0,0.0,0.0,0.0,0.0,0.0,0.3895,0.4052,0.3895,0.0,0.0,0.0,0.0,0.0,0.0,0.0,0.0,0.0,0.0,0.0339,-0.0364,-0.0836,0.0,0.0,0.0385,0.0568,0.1875,0.1836,0.143,0.1183,0.1,0.0,0.0,0.0,0.0,0.0,0.0,0.0,0.0,0.0,0.0,0.0,0.0,0.0,0.0,0.0,0.0,0.0,0.0,0.0,0.0,0.0,0.0,0.0,0.0,0.0,0.0,0.0,0.0,0.0,0.0,0.0,0.0,0.0,0.0,0.0,0.0,0.0,0.0,0.0,0.0,0.0,0.0,0.0,0.0,0.0,0.0,0.0,0.0,0.0,0.0,0.0,0.0,0.0,-1.4558,-1.7852,-1.9734,-1.9854,-1.8695,-1.7951,-1.7649,-1.5512,-1.3191,0.0,0.0,0.0,0.0,0.0,0.0,0.0,0.0,0.0,0.0,0.0,0.0,0.0,0.0,0.0,0.0,0.0,0.0,0.0,0.0,0.0,0.0,0.0,0.0,0.0,0.0,0.0,0.0,0.0,0.0,0.0,0.0,0.0,0.0,0.0,0.0,0.0,0.0,0.0,0.0,0.0,0.2904,0.3006,0.2168,0.1962,0.0,0.0,0.208,0.3552,0.272,0.2115,0.2988,0.0,0.0,0.0,0.0,0.0,0.0,0.0,0.0,0.0,0.0,0.0,0.0,0.0,0.0,0.0,0.0,0.0,0.0,0.0,0.0,0.0,0.0,0.0,0.0,0.0,0.0,0.0,0.0,0.0,0.0,0.0,0.0,0.0,0.0,0.0,0.0,0.0,0.0,0.0,0.0,0.0,0.0,0.0,0.0,0.0,0.0,0.0,0.0,0.0,0.0,0.0,0.0,0.0,0.0,-1.295,-1.6108,-1.7332,-1.6603,-1.633,-1.6129,-1.5962,-1.3515,0.0,0.0,0.0,0.0,0.0,0.0,0.0,0.0,0.0,0.0,0.0,0.0,0.0,0.0,0.0,0.0,0.0,0.0,0.0,0.0,0.0,0.0,0.0,0.0,0.0,0.0,0.0,0.2564,0.0,0.0,0.0,0.0,0.0,0.0,0.0,0.0,0.0,0.0,0.0,0.0,0.0,0.0,0.4362,0.4515,0.4357,0.4352,0.0,0.0,0.4326,0.4552,0.458,0.428,0.0,0.0,0.0,0.0,0.0,0.0,0.0,0.0,0.0,0.0,0.0,0.0,0.0,0.0,0.0,0.0,0.0,0.0,0.0,0.0,0.0,0.0,0.0,0.0,0.0,0.0,0.0,0.0,0.0,0.0,0.0,0.0,0.0,0.0,0.0,0.0,0.0,0.0,0.0,0.0,0.0,0.0,0.0,0.0,0.0,0.0,0.0,0.0,0.0,0.0,0.0,0.0,0.0,0.0,-1.1379,-1.1373,-1.4241,-1.5451,-1.5153,-1.4576,-1.4156,-1.4138,-1.1405,-0.9804,0.0,0.0,0.0,0.0,0.0,0.0,0.0,0.0,0.0,0.0,0.0,0.0,0.0,0.0,0.0,0.0,0.0,0.0,0.0,0.0,0.0,0.0,0.0,0.0,0.0,0.0,0.0,0.0,0.0,0.0,0.0,0.0,0.0,0.0,0.0,0.0,0.0,0.0,0.0,0.0,0.0,0.0,0.5021,0.5027,0.0,0.0,0.0,0.5185,0.5053,0.0,0.0,0.0,0.0,0.0,0.0,0.0,0.0,0.0,0.0,0.0,0.0,0.0,0.0,0.0,0.0,0.0,0.0,0.0,0.0,0.0,0.0,0.0,0.0,0.0,0.0,0.0,0.0,0.0,0.0,0.0,0.0,0.0,0.0,0.0,0.0,0.0,0.0,0.0,0.0,0.0,0.0,0.0,0.0,0.0,0.0,0.0,0.0,0.0,0.0,0.0,0.0,0.0,0.0,0.0,0.0,0.0,-0.9924,-1.2218,-1.3696,-1.4064,-1.2902,-1.2183,-1.2164,-0.9624,-0.8088,0.0,0.0,0.0,0.0,0.0,0.0,0.0,0.0,0.0,0.0,0.0,0.0,0.0,0.0,0.0,0.0,0.0,0.0,0.0,0.0,0.0,0.0,0.0,0.0,0.0,0.0,0.0,0.0,0.0,0.0,0.0,0.0,0.0,0.0,0.0,0.0,0.0,0.0,0.0,0.0,0.0,0.4507,0.4952,0.4815,0.4703,0.0,0.0,0.5138,0.5148,0.5385,0.0,0.0,0.0,0.0,0.0,0.0,0.0,0.0,0.0,0.0,0.0,0.0,0.0,0.0,0.0,0.0,0.0,0.0,0.0,0.0,0.0,0.0,0.0,0.0,0.0,0.0,0.0,0.0,0.0,0.0,0.0,0.0,0.0,0.0,0.0,0.0,0.0,0.0,0.0,0.0,0.0,0.0,0.0,0.0,0.0,0.0,0.0,0.0,0.0,0.0,0.0,0.0,0.0,0.0,0.0,0.0,-0.8313,-1.0556,-1.1507,-1.0915,-1.0547,-1.0444,-1.0428,-0.9341,-0.8453,0.0,0.0,0.0,0.0,0.0,0.0,0.0,0.0,0.0,0.0,0.0,0.0,0.0,0.0,0.0,0.0,0.0,0.0,0.0,0.0,0.0,0.0,0.0,0.0,0.0,0.0,0.0,0.0,0.0,0.0,0.0,0.0,0.0,0.0,0.0,0.0,0.0,0.0,0.0,0.0,0.0,0.4354,0.4719,0.4505,0.0,0.0,0.0,0.0,0.4594,0.456,0.0,0.0,0.0,0.0,0.0,0.0,0.0,0.0,0.0,0.0,0.0,0.0,0.0,0.0,0.0,0.0,0.0,0.0,0.0,0.0,0.0,0.0,0.0,0.0,0.0,0.0,0.0,0.0,0.0,0.0,0.0,0.0,0.0,0.0,0.0,0.0,0.0,0.0,0.0,0.0,0.0,0.0,0.0,0.0,0.0,0.0,0.0,0.0,0.0,0.0,0.0,0.0,0.0,0.0,0.0,0.0,-0.7642,-0.8869,-0.9624,-0.9635,-0.9675,-0.9715,-0.9786,-0.904,-0.8389,0.0,0.0,0.0,0.0,0.0,0.0,0.0,0.0,0.0,0.0,0.0,0.0,0.0,0.0,0.0,0.0,0.0,0.0,0.0,0.0,0.0,0.0,0.0,0.0,0.0,0.0,0.0,0.0,0.0,0.0,0.0,0.0,0.0,0.0,0.0,0.0,0.0,0.0,0.0,0.0,0.4067,0.4057,0.4407,0.0,0.0,0.0,0.0,0.0,0.0,0.4343,0.4314,0.0,0.0,0.0,0.0,0.0,0.0,0.0,0.0,0.0,0.0,0.0,0.0,0.0,0.0,0.0,0.0,0.0,0.0,0.0,0.0,0.0,0.0,0.0,0.0,0.0,0.0,0.0,0.0,0.0,0.0,0.0,0.0,0.0,0.0,0.0,0.0,0.0,0.0,0.0,0.0,0.0,0.0,0.0,0.0,0.0,0.0,0.0,0.0,0.0,0.0,0.0,0.0,0.0,0.0,0.0,-0.729,-0.7612,-0.8208,-0.9278,-0.9245,-0.9445,-0.9588,-0.8826,-0.8207,-0.7713,0.0,0.0,0.0,0.0,0.0,0.0,0.0,0.0,0.0,0.0,0.0,0.0,0.0,0.0,0.0,0.0,0.0,0.0,0.0,0.0,0.0,0.0,0.0,0.0,0.0,0.0,0.0,0.0,0.0,0.0,0.0,0.0,0.0,0.0,0.0,0.0,0.0,0.0,0.0,0.3803,0.3819,0.0,0.0,0.0,0.0,0.0,0.0,0.0,0.0,0.4217,0.0,0.0,0.0,0.0,0.0,0.0,0.0,0.0,0.0,0.0,0.0,0.0,0.0,0.0,0.0,0.0,0.0,0.0,0.0,0.0,0.0,0.0,0.0,0.0,0.0,0.0,0.0,0.0,0.0,0.0,0.0,0.0,0.0,0.0,0.0,0.0,0.0,0.0,0.0,0.0,0.0,0.0,0.0,0.0,0.0,0.0,0.0,0.0,0.0,0.0,0.0,0.0,0.0,0.0,0.0,0.0,-0.7373,-0.8056,-0.8929,-0.9112,-0.927,-0.9323,-0.8789,-0.8192,-0.7635,0.0,0.0,0.0,0.0,0.0,0.0,0.0,0.0,0.0,0.0,0.0,0.0,0.0,0.0,0.0,0.0,0.0,0.0,0.0,0.0,0.0,0.0,0.0,0.0,0.0,0.0,0.0,0.0,0.0,0.0,0.0,0.0,0.0,0.0,0.0,0.0,0.0,0.0,0.3385,0.3475,0.0,0.0,0.0,0.0,0.0,0.0,0.0,0.0,0.3938,0.0,0.0,0.0,0.0,0.0,0.0,0.0,0.0,0.0,0.0,0.0,0.0,0.0,0.0,0.0,0.0,0.0,0.0,0.0,0.0,0.0,0.0,0.0,0.0,0.0,0.0,0.0,0.0,0.0,0.0,0.0,0.0,0.0,0.0,0.0,0.0,0.0,0.0,0.0,0.0,0.0,0.0,0.0,0.0,0.0,0.0,0.0,0.0,0.0,0.0,0.0,0.0,0.0,0.0,0.0,0.0,0.0,0.0,-0.7913,-0.8588,-0.8874,-0.9096,-0.9135,-0.8397,-0.7826,0.0,0.0,0.0,0.0,0.0,0.0,0.0,0.0,0.0,0.0,0.0,0.0,0.0,0.0,0.0,0.0,0.0,0.0,0.0,0.0,0.0,0.0,0.0,0.0,0.0,0.0,0.0,0.0,0.0,0.0,0.0,0.0,0.0,0.0,0.0,0.0,0.0,0.0,0.0,0.0,0.0,0.0,0.0,0.0,0.0,0.0,0.0,0.0,0.0,0.0,0.0,0.0,0.0,0.0,0.0,0.0,0.0,0.0,0.0,0.0,0.0,0.0,0.0,0.0,0.0,0.0,0.0,0.0,0.0,0.0,0.0,0.0,0.0,0.0,0.0,0.0,0.0,0.0,0.0,0.0,0.0,0.0,0.0,0.0,0.0,0.0,0.0,0.0,0.0,0.0,0.0,0.0,0.0,0.0,0.0,0.0,0.0,0.0,0.0,0.0,0.0,0.0,0.0,0.0,0.0,0.0,0.0,0.0,-0.7699,-0.8183,-0.8612,-0.8897,-0.9032,-0.8016,-0.7302,0.0,0.0,0.0,0.0,0.0,0.0,0.0,0.0,0.0,0.0,0.0,0.0,0.0,0.0,0.0,0.0,0.0,0.0,0.0,0.0,0.0,0.0,0.0,0.0,0.0,0.0,0.0,0.0,0.0,0.0,0.0,0.0,0.0,0.0,0.0,0.0,0.0,0.0,0.0,0.0,0.0,0.0,0.0,0.0,0.0,0.0,0.0,0.0,0.3792,0.0,0.0,0.0,0.0,0.0,0.0,0.0,0.0,0.0,0.0,0.0,0.0,0.0,0.0,0.0,0.0,0.0,0.0,0.0,0.0,0.0,0.0,0.0,0.0,0.0,0.0,0.0,0.0,0.0,0.0,0.0,0.0,0.0,0.0,0.0,0.0,0.0,0.0,0.0,0.0,0.0,0.0,0.0,0.0,0.0,0.0,0.0,0.0,0.0,0.0,0.0,0.0,0.0,0.0,0.0,0.0,0.0,0.0,0.0,-0.7286,-0.7659,-0.8216,-0.8562,-0.8554,-0.7572,-0.6945,0.0,0.0,0.0,0.0,0.0,0.0,0.0,0.0,0.0,0.0,0.0,0.0,0.0,0.0,0.0,0.0,0.0,0.0,0.0,0.0,0.0,0.0,0.0,0.0,0.0,0.0,0.0,0.0,0.0,0.0,0.0,0.0,0.0,0.0,0.0,0.0,0.0,0.0,0.0,0.0,0.0,0.0,0.0,0.0,0.0,0.0,0.0,0.0,0.0,0.0,0.0,0.0,0.0,0.0,0.0,0.0,0.0,0.0,0.0,0.0,0.0,0.0,0.0,0.0,0.0,0.0,0.0,0.0,0.0,0.0,0.0,0.0,0.0,0.0,0.0,0.0,0.0,0.0,0.0,0.0,0.0,0.0,0.0,0.0,0.0,0.0,0.0,0.0,0.0,0.0,0.0,0.0,0.0,0.0,0.0,0.0,0.0,0.0,0.0,0.0,0.0,0.0,0.0,0.0,0.0,0.0,0.0,0.0,-0.6969,-0.7498,-0.7831,-0.7728,-0.7022,-0.6721,-0.6437,0.0,0.0,0.0,0.0,0.0,0.0,0.0,0.0,0.0,0.0,0.0,0.0,0.0,0.0,0.0,0.0,0.0,0.0,0.0,0.0,0.0,0.0,0.0,0.0,0.0,0.0,0.0,0.0,0.0,0.0,0.0,0.0,0.0,0.0,0.0,0.0,0.0,0.0,0.0,0.0,0.0,0.0,0.0,0.0,0.0,0.0,0.0,0.0,0.0,0.0,0.0,0.0,0.0,0.0,0.0,0.0,0.0,0.0,0.0,0.0,0.0,0.0,0.0,0.0,0.0,0.0,0.0,0.0,0.0,0.0,0.0,0.0,0.0,0.0,0.0,0.0,0.0,0.0,0.0,0.0,0.0,0.0,0.0,0.0,0.0,0.0,0.0,0.0,0.0,0.0,0.0,0.0,0.0,0.0,0.0,0.0,0.0,0.0,0.0,0.0,0.0,0.0,0.0,0.0,0.0,0.0,0.0,0.0,0.0,-0.6878,-0.7226,-0.6885,-0.5982,-0.6101,-0.6016,0.0,0.0,0.0,0.0,0.0,0.0,0.0,0.0,0.0,0.0,0.0,0.0,0.0,0.0,0.0,0.0,0.0,0.0,0.0,0.0,0.0,0.0,0.0,0.0,0.0,0.0,0.0,0.0,0.0,0.0,0.0,0.0,0.0,0.0,0.0,0.0,0.0,0.0,0.0,0.0,0.0,0.0,0.0,0.0,0.0,0.0,0.0,0.0,0.0,0.0,0.0,0.0,0.0,0.0,0.0,0.0,0.0,0.0,0.0,0.0,0.0,0.0,0.0,0.0,0.0,0.0,0.0,0.0,0.0,0.0,0.0,0.0,0.0,0.0,0.0,0.0,0.0,0.0,0.0,0.0,0.0,0.0,0.0,0.0,0.0,0.0,0.0,0.0,0.0,0.0,0.0,0.0,0.0,0.0,0.0,0.0,0.0,0.0,0.0,0.0,0.0,0.0,0.0,0.0,0.0,0.0,0.0,0.0,0.0,-0.5596,-0.602,-0.621,-0.6156,-0.6111,-0.5846,0.0,0.0,0.0,0.0,0.0,0.0,0.0,0.0,0.0,0.0,0.0,0.0,0.0,0.0,0.0,0.0,0.0,0.0,0.0,0.0,0.0,0.0,0.0,0.0,0.0,0.0,0.0,0.0,0.0,0.0,0.0,0.0,0.0,0.0,0.0,0.0,0.0,0.0,0.0,0.0,0.0,0.0,0.0,0.0,0.0,0.0,0.0,0.0,0.0,0.0,0.0,0.0,0.0,0.0,0.0,0.0,0.0,0.0,0.0,0.0,0.0,0.0,0.0,0.0,0.0,0.0,0.0,0.0,0.0,0.0,0.0,0.0,0.0,0.0,0.0,0.0,0.0,0.0,0.0,0.0,0.0,0.0,0.0,0.0,0.0,0.0,0.0,0.0,0.0,0.0,0.0,0.0,0.0,0.0,0.0,0.0,0.0,0.0,0.0,0.0,0.0,0.0,0.0,0.0,0.0,0.0,0.0,0.0,0.0,-0.4596,-0.4511,-0.4672,-0.497,-0.5275,-0.5261,-0.4905,0.0,0.0,0.0,0.0,0.0,0.0,0.0,0.0,0.0,0.0,0.0,0.0,0.0,0.0,0.0,0.0,0.0,0.0,0.0,0.0,0.0,0.0,0.0,0.0,0.0,0.0,0.0,0.0,0.0,0.0,0.0,0.0,0.0,0.0,0.0,0.0,0.0,0.0,0.0,0.0,0.0,0.0,0.0,0.0,0.0,0.0,0.0,0.0,0.0,0.0,0.0,0.0,0.0,0.0,0.0,0.0,0.0,0.0,0.0,0.0,0.0,0.0,0.0,0.0,0.0,0.0,0.0,0.0,0.0,0.0,0.0,0.0,0.0,0.0,0.0,0.0,0.0,0.0,0.0,0.0,0.0,0.0,0.0,0.0,0.0,0.0,0.0,0.0,0.0,0.0,0.0,0.0,0.0,0.0,0.0,0.0,0.0,0.0,0.0,0.0,0.0,0.0,0.0,0.0,0.0,0.0,0.0,0.0,-0.4273,-0.4007,-0.4058,-0.4426,-0.4739,-0.4802,0.0,0.0,0.0,0.0,0.0,0.0,0.0,0.0,0.0,0.0,0.0,0.0,0.0,0.0,0.0,0.0,0.0,0.0,0.0,0.0,0.0,0.0,0.0,0.0,0.0,0.0,0.0,0.0,0.0,0.0,0.0,0.0,0.0,0.0,0.0,0.0,0.0,0.0,0.0,0.0,0.0,0.0,0.0,0.0,0.0,0.0,0.0,0.0,0.0,0.0,0.0,0.0,0.0,0.0,0.0,0.0,0.0,0.0,0.0,0.0,0.0,0.0,0.0,0.0,0.0,0.0,0.0,0.0,0.0,0.0,0.0,0.0,0.0,0.0,0.0,0.0,0.0,0.0,0.0,0.0,0.0,0.0,0.0,0.0,0.0,0.0,0.0,0.0,0.0,0.0,0.0,0.0,0.0,0.0,0.0,0.0,0.0,0.0,0.0,0.0,0.0,0.0,0.0,0.0,0.0,0.0,0.0,0.0,-0.4365,-0.4586,-0.4609,-0.4575,-0.4658,-0.4658,-0.4619,0.0,0.0,0.0,0.0,0.0,0.0,0.0,0.0,0.0,0.0,0.0,0.0,0.0,0.0,0.0,0.0,0.0,0.0,0.0,0.0,0.0,0.0,0.0,0.0,0.0,0.0,0.0,0.0,0.0,0.0,0.0,0.0,0.0,0.0,0.0,0.0,0.0,0.0,0.0,0.0,0.0,0.0,0.0,0.0,0.0,0.0,0.0,0.0,0.0,0.0,0.0,0.0,0.0,0.0,0.0,0.0,0.0,0.0,0.0,0.0,0.0,0.0,0.0,0.0,0.0,0.0,0.0,0.0,0.0,0.0,0.0,0.0,0.0,0.0,0.0,0.0,0.0,0.0,0.0,0.0,0.0,0.0,0.0,0.0,0.0,0.0,0.0,0.0,0.0,0.0,0.0,0.0,0.0,0.0,0.0,0.0,0.0,0.0,0.0,0.0,0.0,0.0,0.0,0.0,0.0,0.0,0.0,0.0,0.0,-0.3384,0.0,-0.3869,0.0,-0.458,-0.4492,0.0,0.0,0.0,0.0,0.0,0.0,0.0,0.0,0.0,0.0,0.0,0.0,0.0,0.0,0.0,0.0,0.0,0.0,0.0,0.0,0.0,0.0,0.0,0.0,0.0,0.0,0.0,0.0,0.0,0.0,0.0,0.0,0.0,0.0,0.0,0.0,0.0,0.0,0.0,0.0,0.0,0.0,0.0,0.0,0.0,0.0,0.0,0.0,0.0,0.0,0.0,0.0,0.0,0.0,0.0,0.0,0.0,0.0,0.0,0.0,0.0,0.0,0.0,0.0,0.0,0.0,0.0,0.0,0.0,0.0,0.0,0.0,0.0,0.0,0.0,0.0,0.0,0.0,0.0,0.0,0.0,0.0,0.0,0.0,0.0,0.0,0.0,0.0,0.0,0.0,0.0,0.0,0.0,0.0,0.0,0.0,0.0,0.0,0.0,0.0,0.0,0.0,0.0,0.0,0.0,0.0,0.0,0.0,0.0,-0.3181,-0.3324,-0.3766,0.0,-0.4451,-0.4395,0.0,0.0,0.0,0.0,0.0,0.0,0.0,0.0,0.0,0.0,0.0,0.0,0.0,0.0,0.0,0.0,0.0,0.0,0.0,0.0,0.0,0.0,0.0,0.0,0.0,0.0,0.0,0.0,0.0,0.0,0.0,0.0,0.0,0.0,0.0,0.0,0.0,0.0,0.0,0.0,0.0,0.0,0.0,0.0,0.0,0.0,0.0,0.0,0.0,0.0,0.0,0.0,0.0,0.0,0.0,0.0,0.0,0.0,0.0,0.0,0.0,0.0,0.0,0.0,0.0,0.0,0.0,0.0,0.0,0.0,0.0,0.0,0.0,0.0,0.0,0.0,0.0,0.0,0.0,0.0,0.0,0.0,0.0,0.0,0.0,0.0,0.0,0.0,0.0,0.0,0.0,0.0,0.0,0.0,0.0,0.0,0.0,0.0,0.0,0.0,0.0,0.0,0.0,0.0,0.0,0.0,0.0,0.0,0.0,0.0,-0.4111,-0.4278,-0.4286,-0.4278,-0.4278,0.0,0.0,0.0,0.0,0.0,0.0,0.0,0.0,0.0,0.0,0.0,0.0,0.0,0.0,0.0,0.0,0.0,0.0,0.0,0.0,0.0,0.0,0.0,0.0,0.0,0.0,0.0,0.0,0.0,0.0,0.0,0.0,0.0,0.0,0.0,0.0,0.0,0.0,0.0,0.0,0.0,0.0,0.0,0.0,0.0,0.0,0.0,0.0,0.0,0.0,0.0,0.0,0.0,0.0,0.0,0.0,0.0,0.0,0.0,0.0,0.0,0.0,0.0,0.0,0.0,0.0,0.0,0.0,0.0,0.0,0.0,0.0,0.0,0.0,0.0,0.0,0.0,0.0,0.0,0.0,0.0,0.0,0.0,0.0,0.0,0.0,0.0,0.0,0.0,0.0,0.0,0.0,0.0,0.0,0.0,0.0,0.0,0.0,0.0,0.0,0.0,0.0,0.0,0.0,0.0,0.0,0.0,0.0,0.0,0.0,-0.4253,0.0,-0.4278,-0.4278,-0.4278,-0.4278,0.0,0.0,0.0,0.0,0.0,0.0,0.0,0.0,0.0,0.0,0.0,0.0,0.0,0.0,0.0,0.0,0.0,0.0,0.0,0.0,0.0,0.0,0.0,0.0,0.0,0.0,0.0,0.0,0.0,0.0,0.0,0.0,0.0,0.0,0.0,0.0,0.0,0.0,0.0,0.0,0.0,0.0,0.0,0.0,0.0,0.0,0.0,0.0,0.0,0.0,0.0,0.0,0.0,0.0,0.0,0.0,0.0,0.0,0.0,0.0,0.0,0.0,0.0,0.0,0.0,0.0,0.0,0.0,0.0,0.0,0.0,0.0,0.0,0.0,0.0,0.0,0.0,0.0,0.0,0.0,0.0,0.0,0.0,0.0,0.0,0.0,0.0,0.0,0.0,0.0,0.0,0.0,0.0,0.0,0.0,0.0,0.0,0.0,0.0,0.0,0.0,0.0,0.0,0.0,0.0,0.0,0.0,0.0,0.0,0.0,0.0,-0.4278,-0.4278,-0.4278,0.0,0.0,0.0,0.0,0.0,0.0,0.0,0.0,0.0,0.0,0.0,0.0,0.0,0.0,0.0,0.0,0.0,0.0,0.0,0.0,0.0,0.0,0.0,0.0,0.0,0.0,0.0,0.0,0.0,0.0,0.0,0.0,0.0,0.0,0.0,0.0,0.0,0.0,0.0,0.0,0.0,0.0,0.0,0.0,0.0,0.0,0.0,0.0,0.0,0.0,0.0,0.0,0.0,0.0,0.0,0.0,0.0,0.0,0.0,0.0,0.0,0.0,0.0,0.0,0.0,0.0,0.0,0.0,0.0,0.0,0.0,0.0,0.0,0.0,0.0,0.0,0.0,0.0,0.0,0.0,0.0,0.0,0.0,0.0,0.0,0.0,0.0,0.0,0.0,0.0,0.0,0.0,0.0,0.0,0.0,0.0,0.0,0.0,0.0,0.0,0.0,0.0,0.0,0.0,0.0,0.0,0.0,0.0,0.0,0.0,0.0,-0.4278,-0.4278,-0.4278,0.0,-0.4278,0.0,0.0,0.0,0.0,0.0,0.0,0.0,0.0,0.0,0.0,0.0,0.0,0.0,0.0,0.0,0.0,0.0,0.0,0.0,0.0,0.0,0.0,0.0,0.0,0.0,0.0,0.0,0.0,0.0,0.0,0.0,0.0,0.0,0.0,0.0,0.0,0.0,0.0,0.0,0.0,0.0,0.0,0.0,0.0,0.0,0.0,0.0,0.0,0.0,0.0,0.0,0.0,0.0,0.0,0.0,0.0,0.0,0.0,0.0,0.0,0.0,0.0,0.0,0.0,0.0,0.0,0.0,0.0,0.0,0.0,0.0,0.0,0.0,0.0,0.0,0.0,0.0,0.0,0.0,0.0,0.0,0.0,0.0,0.0,0.0,0.0,0.0,0.0,0.0,0.0,0.0,0.0,0.0,0.0,0.0,0.0,0.0,0.0,0.0,0.0,0.0,0.0,0.0,0.0,0.0,0.0,0.0,0.0,0.0,0.0,0.0,0.0,-0.4278,-0.4278,-0.4278,0.0,0.0,0.0,0.0,0.0,0.0,0.0,0.0,0.0,0.0,0.0,0.0,0.0,0.0,0.0,0.0,0.0,0.0,0.0,0.0,0.0,0.0,0.0,0.0,0.0,0.0,0.0,0.0,0.0,0.0,0.0,0.0,0.0,0.0,0.0,0.0,0.0,0.0,0.0,0.0,0.0,0.0,0.0,0.0,0.0,0.0,0.0,0.0,0.0,0.0,0.0,0.0,0.0,0.0,0.0,0.0,0.0,0.0,0.0,0.0,0.0,0.0,0.0,0.0,0.0,0.0,0.0,0.0,0.0,0.0,0.0,0.0,0.0,0.0,0.0,0.0,0.0,0.0,0.0,0.0,0.0,0.0,0.0,0.0,0.0,0.0,0.0,0.0,0.0,0.0,0.0,0.0,0.0,0.0,0.0,0.0,0.0,0.0,0.0,0.0,0.0,0.0,0.0,0.0,0.0,0.0,0.0,0.0,0.0,0.0,-0.4582,-0.4278,-0.4278,-0.4278,-0.4278,0.0,0.0,0.0,0.0,0.0,0.0,0.0,0.0,0.0,0.0,0.0,0.0,0.0,0.0,0.0,0.0,0.0,0.0,0.0,0.0,0.0,0.0,0.0,0.0,0.0,0.0,0.0,0.0,0.0,0.0,0.0,0.0,0.0,0.0,0.0,0.0,0.0,0.0,0.0,0.0,0.0,0.0,0.0,0.0,0.0,0.0,0.0,0.0,0.0,0.0,0.0,0.0,0.0,0.0,0.0,0.0,0.0,0.0,0.0,0.0,0.0,0.0,0.0,0.0,0.0,0.0,0.0,0.0,0.0,0.0,0.0,0.0,0.0,0.0,0.0,0.0,0.0,0.0,0.0,0.0,0.0,0.0,0.0,0.0,0.0,0.0,0.0,0.0,0.0,0.0,0.0,0.0,0.0,0.0,0.0,0.0,0.0,0.0,0.0,0.0,0.0,0.0,0.0,0.0,0.0,0.0,0.0,0.0,0.0,0.0,0.0,0.0,0.0,0.0,-0.4278,0.0,0.0,0.0,0.0,0.0,0.0,0.0,0.0,0.0,0.0,0.0,0.0,0.0,0.0,0.0,0.0,0.0,0.0,0.0,0.0,0.0,0.0,0.0,0.0,0.0,0.0,0.0,0.0,0.0,0.0,0.0,0.0,0.0,0.0,0.0,0.0,0.0,0.0,0.0,0.0,0.0,0.0,0.0,0.0,0.0,0.0,0.0,0.0,0.0,0.0,0.0,0.0,0.0,0.0,0.0,0.0,0.0,0.0,0.0,0.0,0.0,0.0,0.0,0.0,0.0,0.0,0.0,0.0,0.0,0.0,0.0,0.0,0.0,0.0,0.0,0.0,0.0,0.0,0.0,0.0,0.0,0.0,0.0,0.0,0.0,0.0,0.0,0.0,0.0,0.0,0.0,0.0,0.0,0.0,0.0,0.0,0.0,0.0,0.0,0.0,0.0,0.0,0.0,0.0,0.0,0.0,0.0,0.0,0.0,0.0,0.0,0.0,0.0,0.0,0.0,0.0,0.0,0.0,0.0,0.0,0.0,0.0,0.0,0.0,0.0,0.0,0.0,0.0,0.0,0.0,0.0,0.0,0.0,0.0,0.0,0.0,0.0,0.0,0.0,0.0,0.0,0.0,0.0,0.0,0.0,0.0,0.0,0.0,0.0,0.0,0.0,0.0,0.0,0.0,0.0,0.0,0.0,0.0,0.0,0.0,0.0,0.0,0.0,0.0,0.0,0.0,0.0,0.0,0.0,0.0,0.0,0.0,0.0,0.0,0.0,0.0,0.0,0.0,0.0,0.0,0.0,0.0,0.0,0.0,0.0,0.0,0.0,0.0,0.0,0.0,0.0,0.0,0.0,0.0,0.0,0.0,0.0,0.0,0.0,0.0,0.0,0.0,0.0,0.0,0.0,0.0,0.0,0.0,0.0,0.0,0.0,0.0,0.0,0.0,0.0,0.0,0.0,0.0,0.0,0.0,0.0,0.0,0.0,0.0,0.0,0.0,0.0,0.0,0.0,0.0,0.0,0.0,0.0,0.0,0.0,0.0,0.0,0.0,0.0,0.0,0.0,0.0,0.0,0.0,0.0,0.0,0.0,0.0,0.0,0.0,0.0,0.0,0.0,0.0,0.0,0.0,0.0,0.0,0.0,0.0,0.0,0.0,0.0,0.0,0.0,0.0,0.0,0.0,0.0,0.0,0.0,0.0,0.0,0.0,0.0,0.0,0.0,0.0,0.0,0.0,0.0,0.0,0.0,0.0,0.0,0.0,0.0,0.0,0.0,0.0,0.0,0.0,0.0,0.0,0.0,0.0,0.0,0.0,0.0,0.0,0.0,0.0,0.0,0.0,0.0,0.0,0.0,0.0,0.0,0.0,0.0,0.0,0.0,0.0,0.0,0.0,0.0,0.0,0.0,0.0,0.0,0.0,0.0,0.0,0.0,0.0,0.0,0.0,0.0,0.0,0.0,0.0,0.0,0.0,0.0,0.0,0.0,0.0,0.0,0.0,0.0,0.0,0.0,0.0,0.0,0.0,0.0,0.0,0.0,0.0,0.0,0.0,0.0,0.0,0.0,0.0,0.0,0.0,0.0,0.0,0.0,0.0,0.0,0.0,0.0,0.0,0.0,0.0,0.0,0.0,0.0,0.0,0.0,0.0,0.0,0.0,0.0,0.0,0.0,0.0,0.0,0.0,0.0,0.0,0.0,0.0,0.0,0.0,0.0,0.0,0.0,0.0,0.0,0.0,0.0,0.0,0.0,0.0,0.0,0.0,0.0,0.0,0.0,0.0,0.0,0.0,0.0,0.0,0.0,0.0,0.0,0.0,0.0,0.0,0.0,0.0,0.0,0.0,0.0,0.0,0.0,0.0,0.0,0.0,0.0,0.0,0.0,0.0,0.0,0.0,0.0,0.0,0.0,0.0,0.0,0.0,0.0,0.0,0.0,0.0,0.0,0.0,0.0,0.0,0.0,0.0,0.0,0.0,0.0,0.0,0.0,0.0,0.0,0.0,0.0,0.0,0.0,0.0,0.0,0.0,0.0,0.0,0.0,0.0,0.0,0.0,0.0,0.0,0.0,0.0,0.0,0.0,0.0,0.0,0.0,0.0,0.0,0.0,0.0,0.0,0.0,0.0,0.0,0.0,0.0,0.0,0.0,0.0,0.0,0.0,0.0,0.0,0.0,0.0,0.0,0.0,0.0,0.0,0.0,0.0,0.0,0.0,0.0,0.0,0.0,0.0,0.0,0.0,0.0,0.0,0.0,0.0,0.0,0.0,0.0,0.0,0.0,0.0,0.0,0.0,0.0,0.0,0.0,0.0,0.0,0.0,0.0,0.0,0.0,0.0,0.0,0.0,0.0,0.0,0.0,0.0,0.0,0.0,0.0,0.0,0.0,0.0,0.0,0.0,0.0,0.0,0.0,0.0,0.0,0.0,0.0,0.0,0.0,0.0,0.0,0.0,0.0,0.0,0.0,0.0,0.0,0.0,0.0,0.0,0.0,0.0,0.0,0.0,0.0,0.0,0.0,0.0,0.0,0.0,0.0,0.0,0.0,0.0,0.0,0.0,0.0,0.0,0.0,0.0,0.0,0.0,0.0,0.0,0.0,0.0,0.0,0.0,0.0,0.0,0.0,0.0,0.0,0.0,0.0,0.0,0.0,0.0,0.0,0.0,0.0,0.0,0.0,0.0,0.0,0.0,0.0,0.0,0.0,0.0,0.0,0.0,0.0,0.0,0.0,0.0,0.0,0.0,0.0,0.0,0.0,0.0,0.0,0.0,0.0,0.0,0.0,0.0,0.0,0.0,0.0,0.0,0.0,0.0,0.0,0.0,0.0,0.0,0.0,0.0,0.0,0.0,0.0,0.0,0.0,0.0,0.0,0.0,0.0,0.0,0.0,0.0,0.0,0.0,0.0,0.0,0.0,0.0,0.0,0.0,0.0,0.0,0.0,0.0,0.0,0.0,0.0,0.0,0.0,0.0,0.0,0.0,0.0,0.0,0.0,0.0,0.0,0.0,0.0,0.0,0.0,0.0,0.0,0.0,0.0,0.0,0.0,0.0,0.0,0.0,0.0,0.0,0.0,0.0,0.0,0.0,0.0,0.0,0.0,0.0,0.0,0.0,0.0,0.0,0.0,0.0,0.0,0.0,0.0,0.0,0.0,0.0,0.0,0.0,0.0,0.0,0.0,0.0,0.0,0.0,0.0,0.0,0.0,0.0,0.0,0.0,0.0,0.0,0.0,0.0,0.0,0.0,0.0,0.0,0.0,0.0,0.0,0.0,0.0,0.0,0.0,0.0,0.0,0.0,0.0,0.0,0.0,0.0,0.0,0.0,0.0,0.0,0.0,0.0,0.0,0.0,0.0,0.0,0.0,0.0,0.0,0.0,0.0,0.0,0.0,0.0,0.0,0.0,0.0,0.0,0.0,0.0,0.0,0.0,0.0,0.0,0.0,0.0,0.0,0.0,0.0,0.0,0.0,0.0,0.0,0.0,0.0,0.0,0.0,0.0,0.0,0.0,0.0,0.0,0.0,0.0,0.0,0.0,0.0,0.0,0.0,0.0,0.0,0.0,0.0,0.0,0.0,0.0,0.0,0.0,0.0,0.0,0.0,0.0,0.0,0.0,0.0,0.0,0.0,0.0,0.0,0.0,0.0,0.0,0.0,0.0,0.0,0.0,0.0,0.0,0.0,0.0,0.0,0.0,0.0,0.0,0.0,0.0,0.0,0.0,0.0,0.0,0.0,0.0,0.0,0.0,0.0,0.0,0.0,0.0,0.0,0.0,0.0,0.0,0.0,0.0,0.0,0.0,0.0,0.0,0.0,0.0,0.0,0.0,0.0,0.0,0.0,0.0,0.0,0.0,0.0,0.0,0.0,0.0,0.0,0.0,0.0,0.0,0.0,0.0,0.0,0.0,0.0,0.0,0.0,0.0,0.0,0.0,0.0,0.0,0.0,0.0,0.0,0.0,0.0,0.0,0.0,0.0,0.0,0.0,0.0,0.0,0.0,0.0,0.0,0.0,0.0,0.0,0.0,0.0,0.0,0.0,0.0,0.0,0.0,0.0,0.0,0.0,0.0,0.0,0.0,0.0,0.0,0.0,0.0,0.0,0.0,0.0,0.0,0.0,0.0,0.0,0.0,0.0,0.0,0.0,0.0,0.0,0.0,0.0,0.0,0.0,0.0,0.0,0.0,0.0,0.0,0.0,0.0,0.0,0.0,0.0,0.0,0.0,0.0,0.0,0.0,0.0,0.0,0.0,0.0,0.0,0.0,0.0,0.0,0.0,0.0,0.0,0.0,0.0,0.0,0.0,0.0,0.0,0.0,0.0,0.0,0.0,0.0,0.0,0.0,0.0,0.0,0.0]}],[{"header":{"parameterUnit":"kt","parameterCategory":2,"dx":1,"dy":1,"la1":29.587661999999998,"la2":31.0,"lo1":-88.76705300000003,"lo2":-86.6583820000003,"nx":115,"ny":88,"refTime":"2022-10-20T06:00:00:Z","depth":0,"parameterNumber":2,"parameterNumberName":"V-component_of_WINDS"},"data":[9.9858,10.0295,10.0295,10.0295,10.0295,10.0295,10.0295,10.0295,10.0295,10.0295,10.0295,10.0295,10.0295,10.0295,10.0295,10.0295,10.0295,10.0295,10.0295,10.0295,10.0295,10.0295,10.0295,10.0416,10.1573,10.3545,10.5826,10.8335,10.9455,11.2743,11.4879,11.4879,11.4879,11.4879,11.4879,11.4879,11.4879,11.4879,11.4879,11.4879,11.4879,11.4879,11.4879,11.4879,11.4879,11.4879,11.4879,11.4879,11.4879,11.4879,11.4879,11.4879,11.5508,11.6529,11.7287,11.7793,11.9327,12.0438,12.1556,12.2657,12.4529,12.4155,12.3124,12.4293,12.3656,12.2172,12.1559,12.1297,12.3186,12.5097,12.6967,12.9376,13.0472,13.1381,13.1188,13.053,13.0136,13.0004,12.9873,12.9873,12.9873,12.9873,12.9873,12.9873,12.9873,12.9873,12.9873,12.9873,12.9873,12.9347,12.8821,12.7374,12.5862,12.4678,12.3757,12.3692,12.5533,12.8426,13.1714,13.4739,13.704,13.829,13.9408,14.0328,14.0657,14.0723,14.0394,14.0,13.9474,13.9145,13.875,13.916,14.0565,14.1973,14.3378,10.0173,10.0295,10.0295,10.0295,10.0295,10.0295,10.0295,10.0295,10.0295,10.0295,10.0295,10.0295,10.0295,10.0295,10.0295,10.0295,10.0295,10.0295,10.0295,10.0295,10.0295,10.0295,10.0295,10.0295,10.0659,10.2411,10.5764,10.7657,10.9455,11.2635,11.4879,11.4879,11.4879,11.4879,11.4879,11.4879,11.4879,11.4879,11.4879,11.4879,11.4879,11.4879,11.4879,11.4879,11.4879,11.4879,11.4879,11.4879,11.4879,11.4879,11.4879,11.4879,11.5553,11.6836,11.7591,11.8932,12.05,12.2219,12.3402,12.42,12.5925,12.6993,12.5454,12.4622,12.4428,12.3571,12.2864,12.3498,12.5764,12.7684,12.9246,13.0923,13.141,13.1846,13.0925,13.007,13.0004,12.9939,12.9939,12.9873,12.9873,12.9873,12.9873,12.9873,12.9873,12.9873,12.9873,12.9873,12.9741,12.9215,12.8229,12.6782,12.573,12.4875,12.3889,12.4941,12.7111,12.9741,13.1583,13.3818,13.6054,13.8224,13.9671,14.0131,14.0065,14.0065,13.9802,13.9737,13.9211,13.8816,13.8793,13.9246,14.0813,14.2604,14.4134,9.993,10.0295,10.0295,10.0295,10.0295,10.0295,10.0295,10.0295,10.0295,10.0295,10.0295,10.0295,10.0295,10.0295,10.0295,10.0295,10.0295,10.0295,10.0295,10.0295,10.0295,10.0295,10.0295,10.0295,10.0295,10.1573,10.5363,10.912,11.2094,11.4246,11.4879,11.4879,11.4879,11.4879,11.4879,11.4879,11.4879,11.4879,11.4879,11.4879,11.4879,11.4879,11.4879,11.4879,11.4879,11.4879,11.4879,11.4879,11.4879,11.4879,11.4879,11.4879,11.5403,11.6836,11.8335,11.9818,12.1461,12.3679,12.4836,12.527,12.5265,12.5248,12.4182,12.3426,12.3425,12.3503,12.278,12.4858,12.7108,12.8201,12.9806,13.1073,13.156,13.1828,13.104,13.0514,13.0448,13.012,12.9873,12.9873,12.9873,12.9873,12.9873,12.9873,12.9873,12.9873,12.9873,12.9873,12.9544,12.9018,12.7571,12.6322,12.5796,12.5072,12.4875,12.6388,12.8492,13.0136,13.1911,13.3753,13.5462,13.7961,13.9868,14.0263,14.0328,13.9868,13.9802,14.0,13.9605,13.875,13.8901,13.9437,14.1237,14.3071,14.5237,9.9858,10.0295,10.0295,10.0295,10.0295,10.0295,10.0295,10.0295,10.0295,10.0295,10.0295,10.0295,10.0295,10.0295,10.0295,10.0295,10.0295,10.0295,10.0295,10.0295,10.0295,10.0295,10.0295,10.0295,10.0295,10.1693,10.4016,10.7543,11.1166,11.3657,11.4879,11.4879,11.4879,11.4879,11.4879,11.4879,11.4879,11.4879,11.4879,11.4879,11.4879,11.4879,11.4879,11.4879,11.4879,11.4879,11.4879,11.4879,11.4879,11.4879,11.4879,11.4879,11.4984,11.6939,11.8932,12.0824,12.2219,12.3862,12.4746,12.4354,12.4215,12.3674,12.2603,12.2259,12.2334,12.2412,12.3529,12.5785,12.7503,12.8448,12.9456,13.0596,13.1541,13.1596,13.1434,13.1219,13.1088,13.058,12.9939,12.9873,12.9873,12.9873,12.9873,12.9873,12.9873,12.9873,12.9873,12.9807,12.9478,12.8755,12.7308,12.6782,12.619,12.619,12.6519,12.7571,12.9215,13.0859,13.2043,13.3424,13.487,13.6777,13.8487,13.9539,14.0263,13.9539,13.9276,13.9737,13.9693,13.8969,13.916,14.0565,14.229,14.4215,14.6439,10.0295,10.0295,10.0295,10.0295,10.0295,10.0295,10.0295,10.0295,10.0295,10.0295,10.0295,10.0295,10.0295,10.0295,10.0295,10.0295,10.0295,10.0295,10.0295,10.0295,10.0295,10.0295,10.0295,10.0295,10.0295,10.0416,10.2,10.5363,10.8784,11.2527,11.4879,11.4879,11.4879,11.4879,11.4879,11.4879,11.4879,11.4879,11.4879,11.4879,11.4879,11.4879,11.4879,11.4879,11.4879,11.4879,11.4879,11.4879,11.4879,11.4879,11.4879,11.4879,11.5449,11.6734,11.8833,12.0535,12.1174,12.2782,12.3679,12.2595,12.2549,12.1867,12.0395,12.152,12.3546,12.4647,12.527,12.7148,12.8032,12.8879,12.9325,13.027,13.0784,13.0886,13.0576,13.0165,13.01,12.9838,12.9462,12.9544,12.9544,12.9791,12.9791,12.9873,12.9873,12.9873,12.9873,12.9873,12.9413,12.8558,12.7834,12.744,12.7111,12.7111,12.7506,12.8492,13.0004,13.1122,13.2109,13.3424,13.5265,13.6383,13.7238,13.829,13.9342,13.8882,13.875,13.8947,13.8947,13.8814,13.9795,14.1493,14.3538,14.5526,14.7528,9.993,10.0295,10.0295,10.0295,10.0295,10.0295,10.0295,10.0295,10.0295,10.0295,10.0295,10.0295,10.0295,10.0295,10.0295,10.0295,10.0295,10.0295,10.0295,10.0295,10.0295,10.0295,10.0295,10.0295,10.0295,10.0971,10.2172,10.3898,10.8109,11.2203,11.4879,11.4879,11.4879,11.4879,11.4879,11.4879,11.4879,11.4879,11.4879,11.4879,11.4879,11.4879,11.4879,11.4879,11.4879,11.4879,11.4879,11.4879,11.4879,11.4879,11.4879,11.4879,11.5194,11.5657,11.7287,12.005,12.005,12.0886,12.2657,12.0982,12.0744,12.0879,12.0517,12.1916,12.4321,12.6344,12.7255,12.7704,12.8513,12.92,12.9475,12.9729,12.9962,13.0195,12.9588,12.9047,12.8982,12.8982,12.9065,12.9065,12.9379,12.9544,12.9709,12.9791,12.9873,12.9873,12.9873,12.9873,12.9413,12.8886,12.8623,12.8163,12.7966,12.7966,12.8689,12.9413,13.0728,13.1846,13.2898,13.4476,13.5857,13.704,13.7764,13.829,13.8619,13.8619,13.8684,13.8619,13.8727,13.9265,13.9981,14.238,14.4809,14.6851,14.8515,9.9808,10.0295,10.0295,10.0295,10.0295,10.0295,10.0295,10.0295,10.0295,10.0295,10.0295,10.0295,10.0295,10.0295,10.0295,10.0295,10.0295,10.0295,10.0295,10.0295,10.0295,10.0295,10.0295,10.0295,10.0295,10.0901,10.212,10.408,10.7883,11.0287,11.2635,11.4669,11.4879,11.4879,11.4879,11.4879,11.4879,11.4879,11.4879,11.4879,11.4879,11.4879,11.4879,11.4879,11.4879,11.4879,11.4879,11.4879,11.4879,11.4879,11.4879,11.4879,11.4879,11.5089,11.5449,11.8833,11.8634,11.8435,12.0982,11.9031,11.7893,11.9432,12.2052,12.375,12.5091,12.6769,12.8154,12.7961,12.819,12.8404,12.8596,12.8766,12.8935,12.9104,12.8973,12.8647,12.8731,12.8731,12.8964,12.9047,12.9279,12.9527,12.9791,12.9873,12.9873,12.9873,12.9873,12.9873,12.9676,12.9741,12.9478,12.8886,12.8689,12.8821,12.9478,13.0333,13.1517,13.2766,13.4542,13.612,13.704,13.7698,13.829,13.8619,13.8619,13.8619,13.8619,13.888,13.8987,13.9522,14.091,14.3621,14.6161,14.8121,14.9845,10.0295,10.0295,10.0295,10.0295,10.0295,10.0295,10.0295,10.0295,10.0295,10.0295,10.0295,10.0295,10.0295,10.0295,10.0295,10.0295,10.0295,10.0295,10.0295,10.0295,10.0295,10.0295,10.0295,10.0295,10.0295,10.0295,10.1091,10.3427,10.7316,10.9064,11.1494,11.387,11.4879,11.4879,11.4879,11.4879,11.4879,11.4879,11.4879,11.4879,11.4879,11.4879,11.4879,11.4879,11.4879,11.4879,11.4879,11.4879,11.4879,11.4879,11.4879,11.4879,11.4879,11.4879,11.4879,11.5299,11.5657,11.6939,11.8535,11.7591,11.7185,12.0061,12.4005,12.5279,12.639,12.8053,12.8336,12.8055,12.7867,12.7845,12.7951,12.8036,12.8206,12.8291,12.8311,12.8395,12.8395,12.8395,12.8629,12.8796,12.9029,12.9445,12.9709,12.9873,12.9873,13.0004,13.0202,13.0136,13.0004,13.0136,13.0333,12.9676,12.9347,12.9544,13.0333,13.1254,13.2372,13.3424,13.5331,13.7172,13.783,13.8487,13.8619,13.8619,13.8619,13.8619,13.8619,13.8793,13.9246,14.0813,14.2223,14.4736,14.7391,14.9344,15.0373,10.0295,10.0295,10.0295,10.0295,10.0295,10.0295,10.0295,10.0295,10.0295,10.0295,10.0295,10.0295,10.0295,10.0295,10.0295,10.0295,10.0295,10.0295,10.0295,10.0295,10.0295,10.0295,10.0295,10.0295,10.0416,10.0295,10.0901,10.2953,10.7657,10.777,11.0397,11.3763,11.4879,11.4879,11.4879,11.4879,11.4879,11.4879,11.4879,11.4879,11.4879,11.4879,11.4879,11.4879,11.4879,11.4879,11.4879,11.4879,11.4879,11.4879,11.4879,11.4879,11.4879,11.4879,11.4879,11.5508,11.6072,11.7893,11.8734,11.7793,11.8833,12.1427,12.4747,12.6453,12.6956,12.8514,12.8418,12.8059,12.7995,12.7951,12.7951,12.8226,12.8311,12.8141,12.8226,12.8141,12.8056,12.7715,12.7866,12.8291,12.8544,12.913,12.9627,12.9709,12.9873,13.0202,13.0662,13.0333,13.007,13.0728,13.1188,13.0267,12.9741,12.9741,13.0399,13.1846,13.3161,13.4147,13.5988,13.7961,13.8619,13.8619,13.8619,13.8619,13.8619,13.8619,13.8619,13.8901,13.9522,14.091,14.308,14.5668,14.8444,14.9813,15.0789,10.0295,10.0295,10.0295,10.0295,10.0295,10.0295,10.0295,10.0295,10.0295,10.0295,10.0244,9.9838,9.9736,9.9584,9.938,9.9025,9.9177,9.9329,9.9787,9.9787,10.0142,10.0244,10.0295,10.0416,10.0729,10.1091,10.0971,10.3072,10.8672,10.7938,11.0618,11.3763,11.4879,11.4879,11.4879,11.4879,11.4879,11.4879,11.4879,11.4879,11.4879,11.4879,11.4879,11.4879,11.4879,11.4879,11.4879,11.4879,11.4879,11.4879,11.4879,11.4879,11.4879,11.4879,11.4879,11.5299,11.5761,11.7692,11.8195,12.0014,12.0982,12.4025,12.6646,12.7505,12.7214,12.8441,12.8248,12.765,12.7608,12.7694,12.778,12.7971,12.8056,12.7971,12.7886,12.7801,12.8056,12.7694,12.7608,12.8121,12.846,12.9196,12.9544,12.9627,12.9791,13.0136,13.178,13.178,13.053,13.1122,13.1846,13.0859,12.9873,12.9873,13.0662,13.2503,13.395,13.4673,13.6251,13.8158,13.8619,13.8619,13.8619,13.8619,13.8619,13.8619,13.8619,13.8727,13.9541,14.1007,14.3386,14.5881,14.8791,15.0476,15.1338,10.0295,10.0295,10.0295,10.0295,10.0295,10.0295,10.0295,10.0295,10.0295,10.0244,9.999,9.9279,9.8872,9.8466,9.7856,9.7754,9.7907,9.8567,9.9025,9.938,9.999,10.0244,10.0295,10.0538,10.0971,10.2716,10.2597,10.4432,11.0452,10.9008,11.0838,11.3763,11.4879,11.4879,11.4879,11.4879,11.4879,11.4879,11.4879,11.4879,11.4879,11.4879,11.4879,11.4879,11.4879,11.4879,11.4879,11.4879,11.4879,11.4879,11.4879,11.4879,11.4879,11.4879,11.4879,11.4984,11.5299,11.5403,11.5449,11.913,12.2688,12.6101,12.6714,12.7567,12.7494,12.7816,12.7961,12.737,12.735,12.735,12.7263,12.7199,12.7436,12.7522,12.7458,12.7544,12.8141,12.8291,12.8376,12.8713,12.9029,12.9279,12.9445,12.9544,12.9709,13.0859,13.2832,13.27,13.1122,13.132,13.224,13.132,12.9873,12.9873,13.0333,13.27,13.441,13.5068,13.6186,13.783,13.8619,13.8619,13.8619,13.8619,13.8619,13.8619,13.8619,13.8619,13.9626,14.0828,14.331,14.616,14.9067,15.1266,15.2265,10.0295,10.0295,10.0295,10.0295,10.0295,10.0295,10.0295,10.0295,10.0295,9.9939,9.9177,9.8872,9.8313,9.7602,9.7094,9.7246,9.7805,9.8415,9.9075,9.9482,9.9838,10.0244,10.0295,10.0487,10.0748,10.1452,10.2239,10.4432,10.9232,10.9788,11.1929,11.387,11.4879,11.4879,11.4879,11.4879,11.4879,11.4879,11.4879,11.4879,11.4879,11.4879,11.4879,11.4879,11.4879,11.4879,11.4879,11.4879,11.4879,11.4879,11.4879,11.4879,11.4879,11.4879,11.4879,11.5403,11.5969,11.6323,11.6836,11.972,12.4319,12.591,12.6459,12.6509,12.6519,12.6204,12.7095,12.6852,12.7436,12.7522,12.7177,12.7522,12.7694,12.7801,12.7715,12.7951,12.8544,12.8796,12.8964,12.9196,12.9196,12.9279,12.9445,12.9627,12.9922,13.0728,13.2503,13.2832,13.1648,13.178,13.2437,13.1188,12.9939,12.9873,13.0004,13.2306,13.4344,13.5068,13.6383,13.7895,13.8619,13.8619,13.8619,13.8619,13.8619,13.8619,13.8727,13.8987,13.9795,14.0828,14.347,14.63,14.9201,15.1655,15.2786,10.0295,10.0295,10.0295,10.0295,10.0295,10.0295,10.0295,10.0295,10.0295,9.9685,9.872,9.7805,9.7043,9.6535,9.6433,9.6637,9.684,9.75,9.7958,9.8466,9.8974,9.9329,9.9685,9.9806,10.0492,10.1949,10.3308,10.5479,10.8505,11.0175,11.2578,11.4188,11.4879,11.4879,11.4879,11.4879,11.4879,11.4879,11.4879,11.4879,11.4879,11.4879,11.4879,11.4879,11.4879,11.4879,11.4879,11.4879,11.4879,11.4879,11.4879,11.4879,11.4879,11.4879,11.4879,11.5089,11.6836,11.7083,11.7388,12.0886,12.4109,12.4926,12.4746,12.508,12.6829,12.6302,12.6327,12.6677,12.7522,12.778,12.7522,12.7866,12.8206,12.8311,12.8479,12.8713,12.888,12.8964,12.9196,12.9527,12.9527,12.9445,12.9544,12.9775,13.0185,13.0662,13.2109,13.3095,13.2503,13.2372,13.1648,13.0596,13.007,12.9873,13.007,13.1977,13.4213,13.5462,13.6712,13.7764,13.8619,13.8619,13.8619,13.8619,13.8619,13.8619,13.8814,13.9265,14.0399,14.2053,14.422,14.6645,14.9167,15.1776,15.3223,10.0295,10.0295,10.0295,10.0295,10.0295,10.0295,10.0295,10.0295,10.0295,9.9685,9.8517,9.6738,9.5773,9.5316,9.5214,9.4858,9.4147,9.5976,9.6484,9.6484,9.6535,9.7754,9.8313,9.8959,9.9981,10.247,10.4177,10.6762,10.9788,11.0775,11.2836,11.4505,11.4879,11.4879,11.4879,11.4879,11.4879,11.4879,11.4879,11.4879,11.4879,11.4879,11.4879,11.4879,11.4879,11.4879,11.4879,11.4879,11.4879,11.4879,11.4879,11.4879,11.4879,11.4879,11.4879,11.5449,11.7185,11.8435,11.9031,12.1651,12.303,12.2782,12.3494,12.5528,12.6916,12.7003,12.709,12.7177,12.778,12.7951,12.8121,12.8291,12.8395,12.8694,12.9188,12.957,12.9933,12.9802,12.9772,12.9906,12.9857,12.9775,12.9791,13.0382,13.0793,13.1385,13.2766,13.4016,13.3424,13.2372,13.1451,13.0465,13.0004,13.0004,13.0202,13.1648,13.3687,13.5199,13.6909,13.7961,13.8553,13.8619,13.8619,13.8619,13.8619,13.8619,13.8727,14.0149,14.1574,14.3156,14.4954,14.7123,14.9541,15.1197,15.2714,10.0295,10.0295,10.0295,10.0295,10.0295,10.0295,10.0295,10.0295,10.0295,9.9736,9.8517,9.7196,9.557,9.4452,9.4249,9.4503,9.4909,9.5519,9.6027,9.6535,9.6891,9.7094,9.7297,9.75,9.8482,10.0032,10.3338,10.6394,10.8954,11.114,11.311,11.4774,11.4821,11.4879,11.4879,11.4879,11.4879,11.4879,11.4879,11.4879,11.4879,11.4879,11.4879,11.4879,11.4879,11.4879,11.4879,11.4937,11.4937,11.4996,11.5112,11.5228,11.5054,11.5054,11.5054,11.5449,11.7934,11.972,12.0596,12.2125,12.4474,12.5376,12.6414,12.5998,12.6788,12.5998,12.5757,12.7415,12.7927,12.8246,12.8395,12.8395,12.8731,12.9225,12.9766,13.0624,13.1202,13.1136,13.1088,13.0925,13.0596,13.0333,13.0465,13.0991,13.1648,13.224,13.3292,13.4607,13.395,13.2766,13.1583,13.0202,12.9939,12.9939,13.0662,13.1911,13.3292,13.5002,13.7106,13.829,13.8553,13.8619,13.8619,13.8619,13.8619,13.8901,13.971,14.117,14.2702,14.4736,14.6576,14.8186,14.9227,15.0201,15.1837,10.0295,10.0295,10.0295,10.0295,10.0295,10.0295,10.0295,10.0295,10.0295,9.9685,9.8669,9.75,9.6078,9.4808,9.4401,9.4554,9.4706,9.5214,9.557,9.5468,9.5468,9.5773,9.6179,9.6383,9.7775,10.0059,10.3184,10.5914,10.8333,11.102,11.3251,11.4065,11.453,11.4821,11.4879,11.4879,11.4879,11.4879,11.4879,11.4879,11.4879,11.4879,11.4879,11.4879,11.4879,11.4879,11.5054,11.5286,11.5694,11.581,11.6392,11.6333,11.5868,11.5635,11.5345,11.5311,11.8094,11.972,12.0111,12.1651,12.2875,12.4165,12.5133,12.559,12.4952,12.4593,12.5138,12.6999,12.7568,12.821,12.8684,12.8898,12.9214,12.951,12.9921,13.0497,13.0777,13.1385,13.1714,13.1583,13.1385,13.1254,13.1254,13.2109,13.3161,13.3687,13.4476,13.4936,13.4081,13.2898,13.1517,13.0136,12.9939,12.9873,13.0925,13.2306,13.3687,13.4673,13.6777,13.8421,13.8553,13.8619,13.8619,13.8619,13.8814,13.9626,14.0664,14.2391,14.474,14.6645,14.845,14.9094,14.9784,15.0564,15.1563,10.0295,10.0295,10.0295,10.0295,10.0295,10.0295,10.0295,10.0295,10.0295,9.9634,9.8313,9.7348,9.6281,9.5214,9.5011,9.4503,9.4249,9.4554,9.4655,9.4147,9.4045,9.4503,9.5112,9.5394,9.7563,9.9991,10.2954,10.5352,10.8086,11.0824,11.2391,11.3192,11.4065,11.4763,11.4821,11.4879,11.4879,11.4879,11.4879,11.4879,11.4879,11.4879,11.4879,11.4937,11.5112,11.5286,11.5461,11.645,11.7031,11.7148,11.7962,11.7846,11.7031,11.6682,11.5926,11.6034,11.6691,11.8195,11.9031,12.0982,12.2439,12.3177,12.3787,12.3401,12.3342,12.3448,12.4249,12.5988,12.6956,12.7725,12.8659,12.9233,12.9462,12.9462,12.9397,12.9462,12.9741,12.9939,13.0728,13.0728,13.0136,13.053,13.0991,13.2766,13.4476,13.5002,13.5265,13.4805,13.4081,13.2832,13.1517,13.0333,12.9873,12.9873,13.0728,13.2569,13.3753,13.4279,13.6449,13.8553,13.8619,13.8619,13.8619,13.8814,13.9265,13.988,14.2234,14.4667,14.685,14.8315,14.9086,14.9784,15.0279,15.0778,15.148,10.0295,10.0295,10.0295,10.0295,10.0295,10.0295,10.0295,10.0295,10.0295,9.9228,9.75,9.6992,9.5925,9.4452,9.4045,9.3944,9.3741,9.3842,9.3944,9.3639,9.369,9.369,9.4512,9.5742,9.7553,9.9838,10.3223,10.6604,10.8475,11.0024,11.1273,11.2494,11.3076,11.3774,11.4705,11.4879,11.4879,11.4879,11.4879,11.4879,11.4879,11.4879,11.4879,11.4937,11.5868,11.6392,11.6508,11.7671,11.8311,11.8253,11.7846,11.7264,11.6741,11.5868,11.5635,11.6361,11.7472,11.8854,12.0184,12.2033,12.2955,12.3254,12.4489,12.4067,12.3297,12.2888,12.3427,12.4688,12.6139,12.7673,12.8067,12.8163,12.8163,12.8163,12.8097,12.8163,12.8295,12.8689,12.9413,12.9084,12.8886,12.8952,12.9281,13.0793,13.2898,13.3621,13.487,13.4476,13.4213,13.2898,13.1714,13.0596,13.0004,13.0004,13.0991,13.2898,13.4344,13.5002,13.6777,13.8487,13.8619,13.8619,13.8814,13.9074,13.9795,14.2223,14.4667,14.7117,14.8245,14.9086,14.9774,15.0208,15.0208,15.0636,15.1552,10.0295,10.0295,10.0295,10.0295,10.0295,10.0295,10.0295,10.0295,10.0295,9.9329,9.8059,9.7196,9.6027,9.4706,9.3995,9.369,9.3639,9.3639,9.3639,9.3639,9.3639,9.3639,9.403,9.4768,9.6865,10.0301,10.4063,10.7193,10.8207,10.9353,11.0808,11.2145,11.3425,11.4181,11.4763,11.4879,11.4879,11.4879,11.4879,11.4879,11.4879,11.4879,11.5345,11.5694,11.645,11.7148,11.7788,11.9009,11.9707,11.9591,11.9009,11.8776,11.8195,11.7197,11.5999,11.6264,11.6733,11.7627,11.9046,12.088,12.2292,12.2801,12.3661,12.3378,12.2495,12.2145,12.2086,12.264,12.4212,12.6754,12.7571,12.7769,12.7308,12.6914,12.6651,12.6651,12.6848,12.7374,12.7045,12.6453,12.6782,12.7242,12.7637,12.9413,13.132,13.2832,13.4147,13.441,13.4344,13.3161,13.1911,13.0991,13.0399,13.0596,13.1451,13.3687,13.5594,13.6054,13.7172,13.8224,13.8619,13.8619,13.8814,14.0048,14.2469,14.4885,14.6983,14.818,14.9086,15.0027,15.0148,15.0208,15.0208,15.0564,15.1552,10.0295,10.0295,10.0295,10.0295,10.0295,10.0295,10.0295,10.0295,10.0092,9.9431,9.8263,9.7196,9.6027,9.5011,9.3995,9.369,9.3639,9.3639,9.3639,9.3639,9.3639,9.4205,9.4604,9.5781,9.7653,10.1185,10.4246,10.6916,10.8149,10.9586,11.0749,11.1738,11.3367,11.4588,11.4763,11.4879,11.4879,11.4879,11.4879,11.4879,11.4879,11.4937,11.5345,11.6566,11.709,11.7904,11.9067,12.0289,12.1045,12.0987,12.0754,12.045,11.9368,11.731,11.6411,11.6618,11.6978,11.7525,11.8349,11.9638,12.0334,12.0604,12.1868,12.2127,12.1259,12.0987,12.118,12.1435,12.3218,12.5398,12.7177,12.6716,12.6322,12.5533,12.5007,12.4678,12.4941,12.5335,12.5401,12.4678,12.5072,12.5664,12.7308,12.9018,13.0465,13.1648,13.2898,13.3424,13.3818,13.3226,13.2306,13.1714,13.1122,13.1583,13.2109,13.4673,13.6317,13.6646,13.7304,13.8356,13.8706,13.8706,14.0316,14.2537,14.4954,14.6848,14.8051,14.9148,14.9835,15.0088,15.0148,15.0279,15.0279,15.035,15.1409,10.0295,10.0295,10.0295,10.0295,10.0295,10.0295,10.0244,10.0092,9.938,9.8313,9.7196,9.6129,9.5163,9.4147,9.3741,9.369,9.3639,9.3639,9.3639,9.3752,9.3866,9.4829,9.6393,9.8144,10.0341,10.2952,10.4595,10.6447,10.8298,10.9412,11.0808,11.2436,11.3309,11.4065,11.4763,11.4879,11.4879,11.4879,11.4879,11.4879,11.4879,11.4937,11.5461,11.6682,11.7613,11.8951,12.0347,12.1336,12.2092,12.2266,12.1278,11.9925,11.8198,11.6119,11.5176,11.81,11.8596,11.8919,11.9403,12.08,12.182,12.1289,12.1617,12.1213,12.0546,12.0301,12.0929,12.1819,12.2919,12.4283,12.5519,12.5335,12.4481,12.3757,12.2705,12.2048,12.1982,12.2048,12.3428,12.3297,12.4152,12.4941,12.6519,12.8032,12.9215,13.0399,13.1583,13.2503,13.3226,13.3358,13.3226,13.2766,13.2832,13.3161,13.3818,13.5725,13.6449,13.6975,13.7698,13.8377,13.8814,14.0233,14.2615,14.4954,14.6576,14.7985,14.9211,14.9774,15.0027,15.0148,15.0279,15.0279,15.0279,15.0279,15.1195,10.0295,10.0295,10.0295,10.0295,10.0193,9.9685,9.9431,9.9228,9.8263,9.7196,9.6179,9.5671,9.4757,9.369,9.3639,9.3639,9.3639,9.3639,9.3639,9.3866,9.5053,9.6003,9.7438,9.9383,10.2388,10.5357,10.5658,10.6905,10.8863,10.9935,11.1098,11.2843,11.3716,11.4298,11.4821,11.4879,11.4879,11.4879,11.4879,11.4879,11.4879,11.4879,11.5345,11.5984,11.7729,11.9823,12.1278,12.1685,12.1219,12.0289,11.8602,11.6864,11.5293,11.58,11.612,11.7235,11.8691,12.0067,11.9867,12.0691,12.1213,12.0596,12.0676,12.0381,12.02,12.0734,12.1544,12.2355,12.3311,12.4021,12.4336,12.4152,12.4152,12.3626,12.2837,12.2508,12.2574,12.3165,12.3955,12.4218,12.402,12.4415,12.5138,12.6388,12.7637,12.9347,13.053,13.2043,13.2766,13.3358,13.349,13.3884,13.4147,13.4673,13.5265,13.5988,13.6777,13.7501,13.8266,13.8809,14.0132,14.2458,14.4805,14.6369,14.7991,14.9211,14.9713,14.9967,15.0208,15.0279,15.0279,15.0279,15.0279,15.0279,15.0921,9.9584,9.9584,9.9584,9.9584,9.9431,9.872,9.8364,9.8263,9.7145,9.623,9.5519,9.5112,9.4452,9.3639,9.3639,9.3639,9.3639,9.3639,9.3639,9.3979,9.567,9.6724,9.9061,10.1185,10.3986,10.6214,10.7259,10.8132,10.947,11.0575,11.1796,11.3309,11.4356,11.4879,11.4879,11.4879,11.4879,11.4879,11.4879,11.4879,11.4879,11.4879,11.4937,11.517,11.709,11.9416,12.1045,12.0521,11.9277,11.7884,11.6072,11.4941,11.498,11.6386,11.7176,11.7291,11.9101,12.0119,11.9742,11.9897,12.0018,12.0162,12.0227,12.011,12.0319,12.1245,12.2028,12.3152,12.3914,12.4231,12.4205,12.4546,12.3955,12.3626,12.3363,12.3428,12.3889,12.4283,12.4744,12.5335,12.4941,12.4612,12.6388,12.7045,12.7506,12.8229,12.9807,13.1385,13.2306,13.3029,13.349,13.4147,13.4607,13.5397,13.6054,13.6777,13.7435,13.8158,13.8896,13.971,14.2223,14.4589,14.6161,14.7793,14.9157,14.9591,15.0027,15.0279,15.0279,15.0279,15.0279,15.0279,15.0279,15.0279,15.0636,9.7297,9.7297,9.7297,9.7348,9.7399,9.7196,9.7196,9.6992,9.6027,9.5468,9.5163,9.43,9.3893,9.3639,9.3639,9.3639,9.3639,9.3639,9.3639,9.3866,9.4716,9.76,10.2021,10.4392,10.6015,10.7063,10.7318,10.8597,11.0168,11.0808,11.2262,11.4065,11.4705,11.4879,11.4879,11.4879,11.4879,11.4879,11.4879,11.4879,11.4879,11.4879,11.4879,11.5112,11.645,11.7788,11.8486,11.8003,11.6941,11.5685,11.4371,11.466,11.6317,11.6606,11.7516,11.8883,11.9629,12.0177,11.9939,11.9953,12.011,12.0357,12.0435,12.0655,12.1017,12.1488,12.2604,12.4559,12.4205,12.4336,12.4612,12.3034,12.2639,12.3363,12.356,12.4152,12.4546,12.3165,12.3231,12.6585,12.619,12.6914,12.8426,12.9478,12.9347,12.9084,12.9676,13.0925,13.1517,13.2306,13.3095,13.3818,13.4805,13.5857,13.6646,13.7304,13.783,13.8661,13.937,14.1155,14.3621,14.6021,14.7661,14.8777,14.9406,14.9967,15.0279,15.0279,15.0279,15.0279,15.0279,15.0279,15.0279,15.0279,15.0279,9.6992,9.6992,9.6992,9.6992,9.6891,9.6332,9.6078,9.5875,9.4909,9.4401,9.43,9.3842,9.3639,9.3639,9.3639,9.3639,9.3639,9.3639,9.3639,9.3866,9.5053,9.8631,10.2801,10.4595,10.6015,10.7063,10.7318,10.8714,11.0575,11.0982,11.2436,11.4414,11.4879,11.4879,11.4879,11.4879,11.4879,11.4879,11.4879,11.4879,11.4879,11.4879,11.4879,11.5054,11.5345,11.608,11.6641,11.5963,11.5662,11.5606,11.4748,11.4326,11.5423,11.7075,11.8207,11.816,12.0431,12.105,12.054,12.0577,12.0732,12.0886,12.0963,12.1105,12.139,12.2179,12.3231,12.5138,12.4152,12.4349,12.4744,12.2968,12.2245,12.3165,12.4218,12.527,12.6651,12.619,12.7242,12.79,12.79,12.7637,12.9478,12.8952,12.9084,12.961,12.9873,13.0267,13.0793,13.1583,13.2372,13.2963,13.3818,13.5002,13.5923,13.658,13.7172,13.8571,13.9729,14.2053,14.4663,14.7528,14.8714,14.9415,14.9906,15.0279,15.0279,15.0279,15.0065,14.9922,15.0208,15.0279,15.0279,15.0279,15.0279,9.6129,9.6078,9.5773,9.5824,9.5925,9.496,9.4655,9.4757,9.3741,9.3436,9.3588,9.3385,9.3334,9.3639,9.3639,9.3639,9.3639,9.3639,9.3866,9.4829,9.6834,9.9916,10.2332,10.4031,10.5758,10.7121,10.7725,10.8888,11.0866,11.1389,11.2727,11.4821,11.4879,11.4879,11.4879,11.4879,11.4763,11.4472,11.4356,11.4239,11.389,11.3878,11.4099,11.4203,11.4706,11.5262,11.5508,11.5424,11.5764,11.6064,11.558,11.5531,11.6673,11.8519,11.9385,11.9064,12.0734,12.1715,12.1006,12.1105,12.1258,12.1324,12.1258,12.139,12.185,12.2902,12.4218,12.5467,12.4481,12.402,12.4809,12.2968,12.1916,12.2902,12.4415,12.5993,12.7242,12.8163,12.8755,12.9478,12.8097,12.8163,12.9018,12.9149,12.8886,12.961,12.9873,13.0004,13.0202,13.0793,13.1122,13.1846,13.27,13.4016,13.5133,13.5791,13.6818,13.8235,14.0426,14.2603,14.5391,14.8051,14.9227,14.9977,15.0219,14.9708,14.978,14.9922,14.9637,14.934,14.9197,14.871,14.9066,14.9352,14.9209,9.3842,9.369,9.2724,9.2979,9.3639,9.2775,9.2826,9.3436,9.2572,9.2572,9.3131,9.247,9.2572,9.3385,9.3436,9.3385,9.3639,9.3537,9.4665,9.6785,9.9007,10.0709,10.2124,10.5257,10.6866,10.7434,10.8306,10.9528,11.0749,11.1738,11.3541,11.4414,11.4577,11.4763,11.4681,11.4763,11.4169,11.3296,11.318,11.2597,11.1666,11.1854,11.2217,11.2217,11.3876,11.4926,11.5504,11.6869,11.7238,11.6394,11.7632,11.887,12.0422,12.1017,12.0994,12.0863,12.1171,12.1313,12.1248,12.1258,12.1324,12.1324,12.1324,12.1785,12.2705,12.31,12.4152,12.6322,12.4678,12.3889,12.4678,12.31,12.1653,12.1785,12.3626,12.5599,12.7111,12.5533,12.6322,12.8295,12.7637,12.6651,12.9018,12.9478,12.9413,12.9741,12.9807,12.9873,12.9939,13.0004,13.007,13.0596,13.1385,13.2503,13.3424,13.4297,13.6056,13.7836,14.0566,14.3048,14.581,14.7975,14.9415,14.9977,15.0136,14.9352,14.9054,14.9126,14.8983,14.9126,14.8555,14.7199,14.7057,14.7342,14.74,9.1607,9.1556,9.1149,9.12,9.1505,9.1149,9.12,9.1454,9.1149,9.12,9.1454,9.1099,9.12,9.1657,9.2318,9.2216,9.1759,9.308,9.5306,9.8038,10.034,10.2586,10.4999,10.6668,10.7318,10.7434,10.7783,10.8655,10.9819,11.04,11.1418,11.273,11.2905,11.3168,11.3357,11.3357,11.324,11.2771,11.2653,11.2477,11.2167,11.215,11.225,11.2174,11.2295,11.3076,11.4688,11.817,11.9822,11.9529,11.9888,12.05,12.1182,12.1324,12.1324,12.1324,12.1324,12.1324,12.1324,12.1324,12.1324,12.1324,12.1324,12.1587,12.1916,12.2048,12.2902,12.4481,12.3363,12.3034,12.4809,12.3692,12.2311,12.1456,12.2508,12.3428,12.4744,12.4809,12.5796,12.6388,12.6256,12.619,12.7111,12.7769,12.8492,12.8689,12.9281,12.9873,12.9873,12.9807,12.9873,13.0136,13.0399,13.0925,13.178,13.338,13.5133,13.7701,14.0172,14.2267,14.5023,14.7159,14.8687,14.9041,14.9494,14.871,14.827,14.8341,14.8341,14.9197,14.9423,14.8412,14.7556,14.7199,14.6015,9.0387,9.0336,8.9981,9.0032,9.0286,8.9981,9.0082,9.0286,8.9981,9.0032,9.0235,8.9981,9.0032,9.0489,9.1099,9.1099,9.0708,9.3638,9.6169,9.8469,10.1093,10.3801,10.6082,10.7358,10.7749,10.7807,10.8099,10.88,10.9718,11.0144,11.077,11.1774,11.2109,11.215,11.2568,11.255,11.2255,11.196,11.196,11.1724,11.1469,11.2096,11.2522,11.2499,11.2992,11.3775,11.5576,11.8673,12.0643,12.1248,12.1324,12.1324,12.1324,12.1324,12.1324,12.1324,12.1324,12.1324,12.1324,12.1324,12.1324,12.1324,12.1324,12.1456,12.185,12.2048,12.2705,12.3823,12.2902,12.2574,12.4152,12.3626,12.2837,12.2639,12.2639,12.3363,12.4415,12.5007,12.5533,12.5533,12.5204,12.5204,12.5664,12.6322,12.7045,12.7177,12.7769,12.836,12.8426,12.8229,12.8558,12.8623,12.9297,12.9641,13.116,13.2863,13.4376,13.6338,13.7978,13.9622,14.3142,14.5796,14.7022,14.7748,14.8223,14.8068,14.764,14.7485,14.7342,14.7841,14.7472,14.7686,14.84,14.7461,14.5654,9.0286,9.0032,8.9168,8.9219,8.9828,8.9066,8.927,8.9828,8.9117,8.9168,8.9727,8.9117,8.9219,9.0141,9.062,9.0453,9.1178,9.503,9.7443,9.8214,10.1614,10.3797,10.4942,10.7223,10.8305,10.8364,10.972,11.0251,11.0035,11.1036,11.1743,11.2255,11.2137,11.2177,11.2432,11.2335,11.1823,11.1036,11.0741,11.0209,10.9375,11.1297,11.2463,11.2735,11.6187,11.8189,11.8434,11.8774,11.9731,12.1105,12.1324,12.1324,12.1324,12.1324,12.1324,12.1324,12.1324,12.1324,12.1324,12.1324,12.1324,12.1324,12.1324,12.1785,12.2639,12.2968,12.3494,12.4349,12.3757,12.3297,12.3297,12.2376,12.2311,12.4809,12.4546,12.4546,12.5007,12.5401,12.5467,12.5138,12.4218,12.4086,12.5072,12.5467,12.5599,12.5599,12.5927,12.619,12.6322,12.6322,12.5862,12.6059,12.7232,12.8591,13.0368,13.2237,13.3545,13.488,13.6156,13.7821,14.1417,14.3444,14.4592,14.5883,14.6343,14.6557,14.6058,14.6272,14.62,14.6116,14.4359,14.3986,14.5434,14.6428,14.4904,8.8761,8.805,8.7644,8.7745,8.7999,8.7537,8.7745,8.7949,8.7644,8.7588,8.7949,8.7694,8.7907,8.8846,9.0996,9.1101,9.0196,9.3957,9.6991,9.9136,10.1903,10.3681,10.4732,10.5723,10.6099,10.6217,10.6512,10.6689,10.6867,10.7951,10.8733,10.9234,11.0123,11.073,11.1019,11.1114,11.0936,11.0578,11.0459,11.028,11.0206,11.1885,11.2823,11.3627,11.7815,12.0422,12.0422,12.0422,12.0732,12.1182,12.1324,12.1324,12.1324,12.1324,12.1324,12.1324,12.1258,12.1324,12.1324,12.1324,12.1258,12.1258,12.1324,12.139,12.1916,12.1982,12.2179,12.2442,12.2179,12.2508,12.2837,12.2113,12.1653,12.2376,12.2639,12.2639,12.2705,12.2782,12.2705,12.2782,12.2453,12.2245,12.2639,12.356,12.402,12.4152,12.5072,12.5533,12.5599,12.5599,12.5599,12.5678,12.6736,12.7778,12.8879,13.1094,13.2731,13.4235,13.5565,13.7102,13.9482,14.0721,14.2019,14.3446,14.4202,14.4417,14.4631,14.4916,14.5201,14.5616,14.4328,14.3571,14.4801,14.5458,14.5172,8.632,8.5764,8.566,8.5868,8.5971,8.5971,8.6024,8.6282,8.6282,8.6282,8.6282,8.6075,8.6179,8.6798,9.1268,9.2629,9.1895,9.5174,9.8157,10.0386,10.2554,10.4077,10.5019,10.5322,10.5322,10.5322,10.5262,10.5322,10.544,10.6152,10.6752,10.7301,10.9024,10.9999,11.0185,11.1429,11.2036,11.167,11.2097,11.2341,11.2552,11.4158,11.4555,11.385,11.7558,11.968,11.968,11.968,11.968,11.968,11.968,11.968,11.968,11.968,11.968,11.968,11.968,11.968,11.968,11.968,11.9878,12.0404,12.0535,12.0667,12.1193,12.1324,12.1324,12.1324,12.1324,12.1587,12.2311,12.185,12.1324,12.1324,12.1324,12.1619,12.1799,12.1639,12.1563,12.1874,12.1563,12.1497,12.2129,12.2354,12.287,12.3319,12.3672,12.4211,12.4574,12.4266,12.4376,12.5345,12.635,12.7145,12.7604,13.0036,13.1813,13.3306,13.4305,13.5367,13.6246,13.7338,13.8502,13.9794,14.1063,14.142,14.1705,14.2133,14.3955,14.4353,14.4487,14.4348,14.6622,14.5788,14.5526,8.363,8.3681,8.363,8.4035,8.4437,8.4388,8.4689,8.5297,8.5193,8.5142,8.5145,8.4942,8.4635,8.5329,9.1314,9.4661,9.5538,9.8223,10.0193,10.1498,10.316,10.4621,10.5451,10.5934,10.6056,10.5667,10.5607,10.5727,10.5846,10.6116,10.6235,10.6386,10.918,11.0091,10.9652,11.2978,11.4714,11.3308,11.4271,11.5343,11.5513,11.7249,11.6874,11.4749,11.6035,11.705,11.6984,11.6853,11.6918,11.6853,11.6984,11.6984,11.6918,11.6984,11.705,11.6984,11.6918,11.6918,11.6984,11.705,11.7642,11.8825,11.922,11.9746,12.0864,12.1193,12.1258,12.1258,12.1309,12.1261,12.1393,12.1287,12.127,12.1534,12.1441,12.2189,12.3355,12.255,12.2321,12.2989,12.255,12.2477,12.3283,12.2321,12.261,12.2916,12.2403,12.2032,12.2928,12.2204,12.2849,12.4548,12.5572,12.6251,12.7989,12.9861,13.06,13.1371,13.2158,13.2075,13.2894,13.3785,13.4891,13.6068,13.7495,13.8423,13.878,14.0054,14.2064,14.2974,14.3202,14.4404,14.598,14.5734,14.5637,8.363,8.363,8.4034,8.4386,8.4838,8.4538,8.4638,8.5038,8.5138,8.5138,8.5238,8.6571,8.7058,8.7522,9.0007,9.2135,9.3768,9.5859,9.8251,10.0742,10.1273,10.217,10.3278,10.3426,10.3514,10.3514,10.3574,10.3574,10.3634,10.4471,10.486,10.5398,10.7957,10.9258,10.9124,11.1301,11.2388,11.2074,11.2388,11.264,11.3137,11.5628,11.6904,11.6185,11.6566,11.6787,11.6787,11.6787,11.6787,11.6787,11.6787,11.6787,11.6787,11.6787,11.6787,11.6787,11.6787,11.6787,11.6787,11.6787,11.705,11.751,11.8562,11.9351,11.9812,12.0667,12.1258,12.1289,12.1062,12.0967,12.1035,12.1035,12.1576,12.2521,12.2656,12.3403,12.4694,12.4693,12.4418,12.4898,12.435,12.4555,12.483,12.4624,12.3941,12.3473,12.293,12.2659,12.1779,12.1441,12.1712,12.3535,12.4866,12.6562,12.9298,13.03,13.0592,13.0935,13.1097,13.147,13.1967,13.2163,13.2715,13.4213,13.4713,13.5498,13.6873,13.8779,14.0784,14.1524,14.3034,14.4865,14.5343,14.6195,14.6059,8.2755,8.2557,8.31,8.3644,8.4036,8.3742,8.3938,8.4427,8.4479,8.4913,8.5824,8.8398,8.9628,8.9826,9.1203,9.2408,9.3627,9.5172,9.7058,9.8822,10.0044,10.0941,10.1659,10.2138,10.2497,10.2497,10.2497,10.2785,10.345,10.4227,10.4996,10.5912,10.8703,10.9905,10.9548,11.2174,11.3286,11.2774,11.3286,11.3109,11.247,11.4215,11.5222,11.5077,11.5077,11.5077,11.5077,11.5077,11.5077,11.5077,11.5077,11.5077,11.5077,11.5077,11.5077,11.5077,11.5077,11.5077,11.5077,11.5587,11.5875,11.5871,11.7831,11.8983,11.8979,12.0318,12.1119,12.1133,12.1035,12.0872,12.0876,12.0872,12.1213,12.2096,12.2301,12.2838,12.4313,12.399,12.4335,12.5339,12.5016,12.4756,12.5436,12.6103,12.5742,12.4442,12.2834,12.2291,12.1918,12.1194,12.2197,12.4432,12.533,12.6851,12.9136,13.0313,13.0972,13.1257,13.1363,13.1363,13.1645,13.1573,13.1787,13.2715,13.3642,13.4605,13.5617,13.7584,13.9209,14.0019,14.1888,14.3418,14.4047,14.4674,14.4868,8.1533,8.1244,8.1776,8.2107,8.2592,8.2877,8.3256,8.3674,8.3902,8.491,8.7059,9.0229,9.1787,9.2231,9.3194,9.3661,9.378,9.4838,9.5436,9.6154,9.8488,9.9924,10.0642,10.1719,10.2317,10.2497,10.2497,10.3243,10.4755,10.49,10.5829,10.7723,11.0584,11.1336,11.0724,11.4346,11.5808,11.4623,11.5873,11.536,11.3273,11.3075,11.2935,11.2725,11.2795,11.2729,11.3277,11.2869,11.3005,11.2935,11.2939,11.2807,11.2807,11.2605,11.2473,11.2609,11.2609,11.2473,11.2613,11.3641,11.424,11.4441,11.6699,11.8223,11.8363,11.9704,12.071,12.0642,12.071,12.0969,12.1052,12.1111,12.1506,12.2181,12.2123,12.2107,12.3647,12.2494,12.2656,12.5346,12.4811,12.4123,12.5403,12.6437,12.6639,12.5259,12.3142,12.173,12.2115,12.1493,12.2349,12.567,12.6463,12.6588,12.8537,13.0065,13.0883,13.145,13.1573,13.1573,13.1573,13.1573,13.1573,13.2125,13.282,13.393,13.5036,13.6581,13.7972,13.8943,14.0069,14.1058,14.1818,14.2557,14.2497,8.182,8.1725,8.2202,8.2202,8.2202,8.3889,8.5002,8.5644,8.7128,8.8812,9.0457,9.1308,9.2539,9.3475,9.1092,8.9991,8.9572,8.7179,8.8136,9.1727,9.2564,9.5556,10.0163,10.0762,10.148,10.2377,10.2497,10.3329,10.4755,10.4922,10.593,10.8069,11.0241,11.1263,11.1012,11.3312,11.4215,11.395,11.3934,11.3666,11.3141,11.2795,11.3148,11.4041,11.3975,11.4576,11.5619,11.5683,11.5683,11.5616,11.4536,11.3864,11.3796,11.2781,11.211,11.211,11.211,11.211,11.2172,11.2421,11.2606,11.2544,11.4211,11.5629,11.6838,11.8108,11.8752,11.8892,11.9884,12.1002,12.191,12.2247,12.3352,12.566,12.6009,12.6067,12.7898,12.8062,12.7794,12.6987,12.6801,12.5951,12.5508,12.5597,12.5501,12.501,12.3649,12.201,12.1307,12.1066,12.1807,12.3845,12.4564,12.5674,12.8565,12.9472,13.0166,13.143,13.1502,13.1502,13.1573,13.1573,13.1625,13.1729,13.2526,13.3239,13.3645,13.5707,13.7439,13.7871,13.9432,14.1232,14.149,14.1723,14.1658,8.2393,8.2393,8.3662,8.3889,8.3609,8.6046,8.7218,8.7497,8.8454,8.9437,9.0478,9.2268,9.3527,9.4219,9.2265,9.1308,9.1188,8.9094,8.9692,9.2325,9.3043,9.5661,9.9651,10.1127,10.2394,10.3792,10.4427,10.5583,10.7201,10.7455,10.8472,11.0357,11.1667,11.2376,11.2376,11.3214,11.3696,11.3698,11.2305,11.1432,11.1236,10.9425,10.8727,10.9216,10.9093,10.9128,10.9165,10.9165,10.8825,10.8086,10.7269,10.7813,10.9846,10.9233,10.971,11.1745,11.195,11.195,11.195,11.195,11.1907,11.1874,11.3697,11.4565,11.3469,11.4557,11.5621,11.6377,11.786,11.908,11.9908,11.9979,12.0968,12.3369,12.358,12.4233,12.5465,12.5692,12.5692,12.5371,12.4753,12.426,12.4119,12.3594,12.3225,12.3208,12.268,12.1833,12.0881,12.1001,12.1644,12.2577,12.3611,12.5144,12.6671,12.7649,12.879,13.0217,13.0503,13.0788,13.1502,13.1573,13.1761,13.2167,13.2589,13.2938,13.3081,13.4625,13.5378,13.5659,13.6703,13.743,13.7833,13.7904,13.7476,8.3527,8.3339,8.559,8.5899,8.5192,8.7325,8.8001,8.7835,8.9006,8.9453,8.9632,9.3043,9.4479,9.4479,9.394,9.3701,9.3641,9.3103,9.3163,9.3701,9.514,9.6866,9.9007,10.1618,10.359,10.5019,10.6322,10.795,10.9587,11.0173,11.1326,11.3075,11.3627,11.3764,11.3833,11.3901,11.3505,11.2706,11.0542,10.9379,10.9218,10.6441,10.4446,10.3462,10.3517,10.252,10.0649,10.0771,9.9913,9.8632,9.8359,10.0049,10.39,10.3818,10.5335,10.9141,10.9346,10.9552,11.0157,11.0294,11.0408,11.0955,11.3192,11.2966,10.911,11.0622,11.2612,11.4152,11.5835,11.6736,11.7281,11.7543,11.8373,11.9677,11.9748,12.0077,12.1562,12.1725,12.2029,12.2726,12.1406,12.1297,12.1812,12.1156,12.0499,12.0346,12.0255,12.0621,12.0448,12.1023,12.1322,12.1561,12.2728,12.3754,12.4447,12.5593,12.7171,12.8694,12.92,12.9922,13.1356,13.1643,13.1868,13.2608,13.2831,13.2868,13.2651,13.2909,13.3066,13.2767,13.2861,13.3036,13.3457,13.282,13.235,8.559,8.5681,8.7664,8.6579,8.3386,8.3944,8.3096,8.2104,0.0,0.0,0.0,9.418,9.4479,9.424,9.1068,8.9632,8.9453,8.6341,8.6581,8.9709,9.1321,9.4513,9.898,10.0792,10.2292,10.3588,10.402,10.5838,10.8686,10.8984,11.078,11.3768,11.4106,11.4309,11.4511,11.4511,11.2331,10.826,10.8427,10.9308,11.042,11.0901,10.9172,10.4984,10.6164,10.5266,10.207,10.193,10.1697,10.1348,10.0088,9.9808,10.0508,9.8223,9.7174,9.7944,9.6824,9.7804,10.1558,10.1908,10.3567,10.7457,10.8444,10.7269,10.3694,10.8573,11.2478,11.3995,11.5544,11.7494,12.0208,12.0425,12.1147,12.2621,12.2765,12.2722,12.3039,12.3111,12.2446,12.174,12.1104,12.0612,11.9031,11.8581,11.8134,11.7608,11.775,11.7837,11.9028,11.9609,11.9767,11.9912,12.0152,12.0556,12.2189,12.3837,12.5559,12.6988,12.8265,12.9817,13.1241,13.175,13.1793,13.1673,13.2623,13.2319,13.1439,13.1694,13.2235,13.2162,13.2394,13.2664,13.2596,13.0733,12.9116,8.7575,0.0,8.9683,8.9283,0.0,8.8413,8.4825,7.8569,8.2743,8.6029,8.8675,9.0649,9.1906,9.2385,9.1251,9.0693,9.0547,9.0202,9.1044,9.2949,9.4456,9.6609,9.9272,10.1528,10.3032,10.3814,10.5517,10.7121,10.8817,10.9162,10.9112,10.8703,10.8895,10.8136,10.6462,10.6454,10.5431,10.3381,10.6771,10.8976,10.9603,10.8465,10.6674,10.4336,10.4853,0.0,0.0,0.0,0.0,0.0,0.0,0.0,0.0,0.0,0.0,9.667,9.4062,9.3183,9.4533,9.4675,9.5634,9.8016,9.9147,9.7675,9.2911,9.7857,10.2458,10.565,10.8193,11.1245,11.5172,11.5681,11.6335,11.7823,11.8003,11.8617,11.9845,11.9514,11.9297,11.9764,11.8708,11.7645,11.7235,11.6741,11.6328,11.6739,11.6955,11.766,11.8928,11.8813,11.8709,11.9438,11.931,11.9601,12.0715,12.1705,12.2614,12.4072,12.5093,12.6226,12.7757,12.8049,12.821,12.8752,12.986,13.0291,12.9228,13.0003,13.0733,13.0075,13.012,13.0132,12.9164,12.797,12.7047,8.8771,8.8943,9.078,9.1119,9.0558,9.2227,8.7538,7.8623,7.7809,8.0045,8.4496,8.8219,9.0299,9.1025,9.2464,9.3124,9.3096,9.5454,9.6588,9.6668,9.8226,9.8954,9.9098,10.1695,10.3098,10.363,10.6269,10.7855,10.8318,10.9108,10.7768,10.4503,10.5118,10.3416,9.9742,0.0,0.0,0.0,10.558,10.8633,10.8892,10.6279,10.4435,10.3389,10.3479,0.0,10.0646,10.0575,9.979,9.8219,9.739,0.0,0.0,0.0,0.0,0.0,0.0,0.0,0.0,0.0,0.0,0.0,8.8164,8.7499,8.3779,8.7268,9.1513,9.5765,9.9962,10.365,10.6608,10.6901,10.7925,11.034,11.0706,11.2101,11.5542,11.4922,11.4996,11.7438,11.547,11.4413,11.5723,11.5178,11.5069,11.6304,11.6782,11.755,11.9011,11.8202,11.7839,11.8865,11.901,11.9265,11.9303,11.9667,12.0471,12.1279,12.1864,12.2853,12.4354,12.4683,12.4868,12.5617,12.6638,12.7347,12.6397,12.7402,12.7915,12.6861,12.687,12.6649,12.5497,12.5245,12.5642,8.8007,8.817,8.9991,8.873,8.5822,8.7105,8.6894,8.5529,8.6434,8.7975,8.9892,9.2712,9.3396,9.2522,9.392,9.4545,9.459,9.4946,9.5142,9.5197,9.6732,9.7415,9.7554,9.9255,10.0092,10.0279,10.2113,10.3757,10.5077,10.6982,10.8302,10.9034,11.0352,10.8766,10.4082,9.8366,9.662,9.8922,10.4991,10.878,11.0161,11.1007,10.9225,10.4706,10.5682,10.4606,10.0874,10.0688,9.9823,9.8133,9.7908,9.7399,9.6221,8.776,8.3014,0.0,7.4827,0.0,0.0,0.0,0.0,0.0,0.0,0.0,0.0,8.4882,8.7041,8.9137,9.6176,9.914,9.5411,9.5138,9.7509,10.3067,10.3907,10.6353,11.218,11.2921,11.2968,11.3338,11.2968,11.3037,11.382,11.3935,11.4149,11.5175,11.5031,11.5116,11.7059,11.7116,11.6837,11.6712,11.7265,11.7917,11.7947,11.8894,11.9753,12.0109,12.1056,12.2806,12.4153,12.445,12.4659,12.4749,12.4897,12.4719,12.3284,12.3374,12.3656,12.3736,12.3536,12.3471,12.3569,12.352,12.4011,8.7825,8.7252,8.8074,8.6581,8.3649,8.3469,8.3905,8.4551,8.4307,8.4984,8.6398,8.8428,8.9317,8.9442,9.0929,9.1874,9.272,9.4327,9.4974,9.5013,9.653,9.652,9.5087,9.7277,9.8037,9.7561,9.9192,10.0894,10.2529,10.3485,10.3349,10.2461,10.3667,10.2193,9.8052,9.5634,9.63,9.9964,10.2747,10.6422,11.0862,11.2102,11.1957,11.0482,11.1064,11.0117,10.7368,10.7222,10.6459,10.486,10.4267,10.1486,9.5811,8.8867,8.2384,0.0,0.0,0.0,0.0,0.0,0.0,0.0,0.0,0.0,0.0,0.0,7.8591,8.1214,9.1269,9.6388,9.3491,9.395,9.4071,9.3476,9.4268,9.626,9.9845,10.2836,10.4198,10.3188,10.5392,10.7519,10.884,10.9748,11.1485,11.4542,11.0279,10.7142,10.8091,11.1213,11.3185,11.3014,11.5404,11.7377,11.7377,11.8018,11.8464,11.8538,11.9058,11.9801,12.0571,12.072,12.072,12.0794,12.1518,12.1797,12.1283,12.1889,12.274,12.2441,12.0381,11.869,11.9405,11.9648,12.0358,8.7014,8.5636,8.3915,8.2011,8.0139,7.9113,7.9826,8.1656,8.0921,8.1351,8.257,8.2618,8.3566,8.509,8.5205,8.6501,8.8837,9.112,9.2979,9.459,9.576,9.5239,9.3588,9.5598,9.6221,9.552,9.7082,9.8841,10.0404,9.9824,9.8431,9.6687,9.6606,9.4704,9.1291,9.3577,9.6633,10.0135,10.2191,10.5707,11.047,11.1537,11.2658,11.4183,11.4183,11.3667,11.259,11.2517,11.1784,11.0245,10.7626,10.2988,9.5881,8.7885,0.0,0.0,0.0,0.0,0.0,0.0,0.0,0.0,0.0,6.1756,5.9762,0.0,7.1047,0.0,8.6351,9.2259,9.1324,9.078,0.0,0.0,8.523,8.6094,8.8564,9.2629,9.4756,9.3401,9.7123,10.0501,10.2143,10.3779,10.6628,11.1313,10.6053,10.1379,10.0824,10.5819,10.945,10.8905,11.1436,11.4017,11.3818,11.4636,11.5302,11.6114,11.6236,11.6236,11.6263,11.6263,11.6263,11.6364,11.7335,11.8162,11.8339,11.9554,12.0467,12.0445,11.7278,11.4468,11.5729,11.6346,11.7278,8.4247,8.2533,7.5924,7.3015,7.2822,7.2697,7.4923,7.8706,7.9793,8.1123,8.2062,7.8284,7.8021,8.0379,7.6612,0.0,8.2868,8.3145,8.6812,9.3259,9.3021,9.3508,9.45,9.4394,9.4319,9.4251,9.5801,9.7388,9.8721,9.6409,9.5784,9.7013,9.4202,9.0971,8.7871,9.4163,9.7606,9.7602,10.5362,10.895,10.8004,10.9565,11.0818,11.1612,11.1717,11.1916,11.2484,11.2511,11.1796,10.9868,10.277,9.7725,9.5105,0.0,0.0,0.0,0.0,0.0,0.0,0.0,0.0,0.0,0.0,0.0,0.0,0.0,0.0,0.0,8.2258,0.0,8.4696,7.9312,0.0,0.0,0.0,7.7454,8.3511,8.5861,8.7,8.6908,0.0,0.0,9.403,9.565,9.8531,10.3684,10.4976,10.4358,10.1289,10.4827,10.7467,10.4414,10.4339,10.4563,10.5646,10.7233,10.9447,11.1882,11.2893,11.2871,11.2871,11.302,11.3046,11.3322,11.3247,11.3617,11.403,11.4372,11.4371,11.4902,11.4441,11.4167,11.4596,11.578,11.6582,7.8937,7.1957,6.9095,6.7901,6.7901,6.7901,6.9354,7.1692,7.22,7.3171,7.436,7.3023,7.303,7.4025,7.2735,0.0,0.0,0.0,7.993,8.5381,8.6143,8.7835,9.0235,9.1905,9.2648,9.2716,9.3657,9.4882,9.6372,9.5287,9.0986,8.3361,0.0,0.0,8.0751,8.8357,9.3159,9.5164,10.3157,10.6803,10.5646,10.8172,10.9834,11.0589,11.1551,11.1318,10.97,11.0517,10.7991,10.1553,9.8173,9.1243,0.0,0.0,0.0,0.0,0.0,0.0,0.0,0.0,0.0,0.0,0.0,5.3772,5.159,0.0,0.0,0.0,7.0809,7.2688,7.3831,7.6745,0.0,0.0,0.0,0.0,0.0,0.0,0.0,7.6027,8.3083,8.921,9.1597,9.0083,8.9472,9.1513,9.1392,9.073,8.9426,0.0,9.8609,10.0275,10.0521,10.1476,10.4434,10.3404,10.2634,10.3905,10.6443,10.8503,10.8652,11.1138,11.2945,11.3192,11.3295,11.3453,11.3701,11.2245,11.1128,11.1574,11.2373,11.3002,11.3216,11.4518,11.5586,7.1858,0.0,0.0,0.0,0.0,6.251,6.3744,6.5802,6.5845,6.6383,6.7111,6.5929,0.0,0.0,0.0,0.0,0.0,0.0,7.3731,7.7772,8.1809,8.4395,8.5784,8.77,8.866,8.8705,8.775,8.8261,8.9795,8.9176,8.3146,7.2202,0.0,0.0,0.0,0.0,8.8103,9.062,9.9806,10.4417,10.3763,10.6495,10.8119,10.8586,10.9774,10.9328,10.7026,10.6282,10.2664,9.5772,9.0672,0.0,0.0,0.0,0.0,0.0,0.0,0.0,0.0,0.0,0.0,0.0,0.0,0.0,0.0,0.0,0.0,0.0,0.0,0.0,6.5705,7.2415,7.3736,0.0,0.0,0.0,0.0,0.0,0.0,0.0,0.0,0.0,8.6811,8.5464,8.4637,0.0,0.0,8.5219,8.3395,8.8289,9.27,9.4322,9.4518,0.0,9.9374,9.7645,9.6352,9.7852,10.1314,10.3906,10.3906,10.6024,10.7729,10.7809,10.9111,10.9416,10.7558,10.5304,10.3934,10.4245,10.5177,10.586,10.6087,10.7301,10.8435,0.0,0.0,0.0,0.0,0.0,0.0,0.0,0.0,6.2169,6.2134,0.0,5.6398,0.0,0.0,0.0,0.0,0.0,6.381,0.0,0.0,8.1273,8.4808,8.1999,8.1605,8.1381,8.1136,7.7262,7.6236,7.7795,7.5672,0.0,0.0,0.0,0.0,0.0,0.0,8.3168,8.3276,9.598,10.2745,10.2769,10.4402,10.5293,10.5392,10.5392,10.5318,10.4946,9.9281,9.5908,9.5237,7.9203,0.0,0.0,0.0,0.0,0.0,0.0,0.0,0.0,0.0,0.0,0.0,0.0,0.0,0.0,0.0,0.0,0.0,0.0,0.0,0.0,6.4088,0.0,0.0,0.0,0.0,0.0,0.0,0.0,0.0,0.0,0.0,7.7672,8.1546,8.5735,8.8751,0.0,0.0,0.0,0.0,9.2139,8.6248,8.5056,8.5308,8.5697,8.7911,9.1201,9.5915,0.0,0.0,9.8906,9.6394,9.4663,9.4594,9.8742,9.9454,9.2292,9.1123,9.1058,9.1062,9.1366,9.091,9.0986,9.3414,9.4704,0.0,0.0,0.0,0.0,0.0,0.0,0.0,0.0,0.0,5.0674,0.0,4.7841,0.0,0.0,0.0,0.0,0.0,0.0,0.0,0.0,6.8125,7.2367,7.4614,7.6218,7.7112,0.0,7.6014,6.9954,0.0,0.0,0.0,0.0,0.0,0.0,0.0,0.0,8.2607,8.1949,9.5373,10.2644,10.2644,10.3238,10.4055,10.5095,10.3164,10.0039,9.5932,9.164,8.5791,0.0,0.0,0.0,0.0,0.0,0.0,0.0,0.0,0.0,0.0,0.0,0.0,0.0,0.0,0.0,0.0,0.0,0.0,0.0,0.0,0.0,0.0,0.0,6.3323,0.0,0.0,0.0,0.0,0.0,0.0,0.0,0.0,0.0,7.0683,7.5961,8.1364,8.5659,8.6888,8.7665,8.8514,0.0,0.0,0.0,0.0,0.0,0.0,0.0,8.5876,8.4236,8.4441,8.5476,8.7599,8.9696,9.1085,9.1175,0.0,0.0,8.3225,8.4384,8.6664,8.6737,8.6661,8.704,8.8102,8.9696,9.1062,0.0,0.0,0.0,0.0,0.0,0.0,0.0,0.0,0.0,4.218,4.2085,0.0,0.0,0.0,0.0,0.0,0.0,0.0,0.0,0.0,0.0,0.0,6.6098,6.8301,0.0,0.0,0.0,0.0,0.0,0.0,0.0,0.0,0.0,0.0,0.0,0.0,7.9917,8.0511,9.3286,10.0787,10.1827,10.1827,10.2421,10.3461,10.1456,9.7311,9.0989,0.0,0.0,0.0,0.0,0.0,0.0,0.0,0.0,0.0,0.0,0.0,0.0,0.0,0.0,0.0,0.0,0.0,0.0,0.0,0.0,0.0,0.0,0.0,0.0,0.0,5.8149,0.0,0.0,0.0,0.0,0.0,0.0,0.0,0.0,0.0,0.0,0.0,7.6321,8.0656,8.2709,8.4993,8.8291,8.8711,9.0099,0.0,0.0,0.0,0.0,0.0,0.0,0.0,0.0,0.0,0.0,0.0,0.0,0.0,0.0,7.9712,7.4207,7.5893,7.8254,7.8254,0.0,0.0,0.0,0.0,0.0,0.0,0.0,0.0,0.0,0.0,0.0,0.0,0.0,0.0,0.0,0.0,0.0,0.0,3.5179,0.0,0.0,0.0,0.0,0.0,0.0,0.0,0.0,0.0,0.0,0.0,0.0,0.0,0.0,0.0,0.0,0.0,0.0,0.0,0.0,0.0,0.0,7.5089,7.8413,8.9795,9.7148,10.0267,10.0341,10.0244,10.0416,10.0119,9.7014,9.0542,0.0,0.0,0.0,0.0,0.0,0.0,0.0,0.0,0.0,0.0,0.0,0.0,0.0,0.0,0.0,0.0,0.0,0.0,0.0,0.0,0.0,0.0,0.0,0.0,0.0,0.0,4.6768,5.275,5.8304,0.0,0.0,0.0,0.0,0.0,0.0,0.0,0.0,0.0,0.0,8.1616,8.6964,8.7287,8.731,8.8079,8.9717,8.5892,8.3836,8.7013,8.7452,8.7435,0.0,0.0,0.0,0.0,0.0,0.0,0.0,0.0,0.0,0.0,0.0,0.0,0.0,0.0,0.0,0.0,0.0,0.0,0.0,0.0,0.0,0.0,0.0,0.0,0.0,0.0,0.0,0.0,0.0,0.0,0.0,0.0,0.0,0.0,0.0,0.0,0.0,0.0,0.0,0.0,0.0,0.0,0.0,0.0,0.0,0.0,0.0,0.0,0.0,0.0,0.0,0.0,0.0,0.0,7.494,7.8339,8.9646,9.7022,10.0267,9.9153,9.9056,10.0119,9.5964,9.0578,0.0,0.0,0.0,0.0,0.0,0.0,0.0,0.0,0.0,0.0,0.0,0.0,0.0,0.0,0.0,0.0,0.0,0.0,0.0,0.0,0.0,0.0,0.0,0.0,0.0,0.0,0.0,0.0,6.0459,6.1448,5.8426,0.0,0.0,0.0,0.0,0.0,0.0,0.0,0.0,0.0,0.0,8.1897,8.6509,8.8168,8.9168,8.974,8.8522,8.7084,8.5877,8.7624,8.6713,7.9727,0.0,0.0,0.0,0.0,0.0,0.0,0.0,0.0,0.0,0.0,0.0,0.0,0.0,0.0,0.0,0.0,0.0,0.0,0.0,0.0,0.0,0.0,0.0,0.0,0.0,0.0,0.0,0.0,0.0,0.0,0.0,0.0,0.0,0.0,0.0,0.0,0.0,0.0,0.0,0.0,0.0,0.0,0.0,0.0,0.0,0.0,0.0,0.0,0.0,0.0,0.0,0.0,0.0,7.3481,7.7497,8.8722,9.5737,9.8262,9.8099,9.8164,9.8589,9.3025,8.6542,0.0,0.0,0.0,0.0,0.0,0.0,0.0,0.0,0.0,0.0,0.0,0.0,0.0,0.0,0.0,0.0,0.0,0.0,0.0,0.0,0.0,0.0,0.0,0.0,0.0,0.0,0.0,0.0,5.6587,5.7946,5.4836,0.0,0.0,0.0,0.0,0.0,0.0,0.0,0.0,0.0,0.0,7.7601,8.3448,8.5191,0.0,0.0,8.8155,8.6712,8.5934,8.8593,8.7385,7.7441,7.638,0.0,0.0,0.0,0.0,0.0,0.0,0.0,0.0,0.0,0.0,0.0,0.0,0.0,0.0,0.0,0.0,0.0,0.0,0.0,0.0,0.0,0.0,0.0,0.0,0.0,0.0,0.0,0.0,0.0,0.0,0.0,0.0,0.0,0.0,0.0,0.0,0.0,0.0,0.0,0.0,0.0,0.0,0.0,0.0,0.0,0.0,0.0,0.0,0.0,0.0,0.0,0.0,0.0,7.6224,8.726,9.3849,9.5453,9.7311,9.7451,9.5808,9.0866,8.4475,0.0,0.0,0.0,0.0,0.0,0.0,0.0,0.0,0.0,0.0,0.0,0.0,0.0,0.0,0.0,0.0,0.0,0.0,0.0,0.0,0.0,0.0,0.0,0.0,0.0,0.0,0.0,0.0,0.0,0.0,0.0,0.0,0.0,0.0,0.0,0.0,0.0,0.0,0.0,0.0,0.0,7.39,7.8683,7.947,8.1754,0.0,0.0,8.2891,8.5653,8.9026,8.8131,7.8228,0.0,0.0,0.0,0.0,0.0,0.0,0.0,0.0,0.0,0.0,0.0,0.0,0.0,0.0,0.0,0.0,0.0,0.0,0.0,0.0,0.0,0.0,0.0,0.0,0.0,0.0,0.0,0.0,0.0,0.0,0.0,0.0,0.0,0.0,0.0,0.0,0.0,0.0,0.0,0.0,0.0,0.0,0.0,0.0,0.0,0.0,0.0,0.0,0.0,0.0,0.0,0.0,0.0,0.0,7.636,8.7444,9.409,9.5995,9.7582,9.7692,9.6026,8.7806,0.0,0.0,0.0,0.0,0.0,0.0,0.0,0.0,0.0,0.0,0.0,0.0,0.0,0.0,0.0,0.0,0.0,0.0,0.0,0.0,0.0,0.0,0.0,0.0,0.0,0.0,0.0,3.6661,0.0,0.0,0.0,0.0,0.0,0.0,0.0,0.0,0.0,0.0,0.0,0.0,0.0,0.0,7.1318,7.3819,7.5274,7.6643,0.0,0.0,7.6188,7.4425,7.914,7.9993,0.0,0.0,0.0,0.0,0.0,0.0,0.0,0.0,0.0,0.0,0.0,0.0,0.0,0.0,0.0,0.0,0.0,0.0,0.0,0.0,0.0,0.0,0.0,0.0,0.0,0.0,0.0,0.0,0.0,0.0,0.0,0.0,0.0,0.0,0.0,0.0,0.0,0.0,0.0,0.0,0.0,0.0,0.0,0.0,0.0,0.0,0.0,0.0,0.0,0.0,0.0,0.0,0.0,0.0,6.8924,7.5535,8.4535,9.1108,9.5004,9.6093,9.6156,9.5314,8.5194,7.8434,0.0,0.0,0.0,0.0,0.0,0.0,0.0,0.0,0.0,0.0,0.0,0.0,0.0,0.0,0.0,0.0,0.0,0.0,0.0,0.0,0.0,0.0,0.0,0.0,0.0,0.0,0.0,0.0,0.0,0.0,0.0,0.0,0.0,0.0,0.0,0.0,0.0,0.0,0.0,0.0,0.0,0.0,7.1807,7.1883,0.0,0.0,0.0,7.4156,7.2262,0.0,0.0,0.0,0.0,0.0,0.0,0.0,0.0,0.0,0.0,0.0,0.0,0.0,0.0,0.0,0.0,0.0,0.0,0.0,0.0,0.0,0.0,0.0,0.0,0.0,0.0,0.0,0.0,0.0,0.0,0.0,0.0,0.0,0.0,0.0,0.0,0.0,0.0,0.0,0.0,0.0,0.0,0.0,0.0,0.0,0.0,0.0,0.0,0.0,0.0,0.0,0.0,0.0,0.0,0.0,0.0,0.0,7.4131,8.0553,8.7086,9.3406,9.4033,9.4129,9.3978,8.3656,7.695,0.0,0.0,0.0,0.0,0.0,0.0,0.0,0.0,0.0,0.0,0.0,0.0,0.0,0.0,0.0,0.0,0.0,0.0,0.0,0.0,0.0,0.0,0.0,0.0,0.0,0.0,0.0,0.0,0.0,0.0,0.0,0.0,0.0,0.0,0.0,0.0,0.0,0.0,0.0,0.0,0.0,6.446,7.0823,6.8853,6.7263,0.0,0.0,7.3474,7.3625,7.5816,0.0,0.0,0.0,0.0,0.0,0.0,0.0,0.0,0.0,0.0,0.0,0.0,0.0,0.0,0.0,0.0,0.0,0.0,0.0,0.0,0.0,0.0,0.0,0.0,0.0,0.0,0.0,0.0,0.0,0.0,0.0,0.0,0.0,0.0,0.0,0.0,0.0,0.0,0.0,0.0,0.0,0.0,0.0,0.0,0.0,0.0,0.0,0.0,0.0,0.0,0.0,0.0,0.0,0.0,0.0,0.0,7.4405,8.0864,8.7402,9.3979,9.4403,9.4414,9.4263,8.7049,8.0424,0.0,0.0,0.0,0.0,0.0,0.0,0.0,0.0,0.0,0.0,0.0,0.0,0.0,0.0,0.0,0.0,0.0,0.0,0.0,0.0,0.0,0.0,0.0,0.0,0.0,0.0,0.0,0.0,0.0,0.0,0.0,0.0,0.0,0.0,0.0,0.0,0.0,0.0,0.0,0.0,0.0,6.2263,6.749,6.545,0.0,0.0,0.0,0.0,6.6738,6.5218,0.0,0.0,0.0,0.0,0.0,0.0,0.0,0.0,0.0,0.0,0.0,0.0,0.0,0.0,0.0,0.0,0.0,0.0,0.0,0.0,0.0,0.0,0.0,0.0,0.0,0.0,0.0,0.0,0.0,0.0,0.0,0.0,0.0,0.0,0.0,0.0,0.0,0.0,0.0,0.0,0.0,0.0,0.0,0.0,0.0,0.0,0.0,0.0,0.0,0.0,0.0,0.0,0.0,0.0,0.0,0.0,7.1958,7.7093,8.3656,9.1676,9.2053,9.2431,9.311,8.6012,7.982,0.0,0.0,0.0,0.0,0.0,0.0,0.0,0.0,0.0,0.0,0.0,0.0,0.0,0.0,0.0,0.0,0.0,0.0,0.0,0.0,0.0,0.0,0.0,0.0,0.0,0.0,0.0,0.0,0.0,0.0,0.0,0.0,0.0,0.0,0.0,0.0,0.0,0.0,0.0,0.0,5.726,5.8022,6.3021,0.0,0.0,0.0,0.0,0.0,0.0,6.2112,6.0744,0.0,0.0,0.0,0.0,0.0,0.0,0.0,0.0,0.0,0.0,0.0,0.0,0.0,0.0,0.0,0.0,0.0,0.0,0.0,0.0,0.0,0.0,0.0,0.0,0.0,0.0,0.0,0.0,0.0,0.0,0.0,0.0,0.0,0.0,0.0,0.0,0.0,0.0,0.0,0.0,0.0,0.0,0.0,0.0,0.0,0.0,0.0,0.0,0.0,0.0,0.0,0.0,0.0,0.0,0.0,6.8635,7.2419,7.8922,8.8277,8.8892,8.9863,9.1222,8.3973,7.8083,7.4164,0.0,0.0,0.0,0.0,0.0,0.0,0.0,0.0,0.0,0.0,0.0,0.0,0.0,0.0,0.0,0.0,0.0,0.0,0.0,0.0,0.0,0.0,0.0,0.0,0.0,0.0,0.0,0.0,0.0,0.0,0.0,0.0,0.0,0.0,0.0,0.0,0.0,0.0,0.0,5.3549,5.3776,0.0,0.0,0.0,0.0,0.0,0.0,0.0,0.0,5.9381,0.0,0.0,0.0,0.0,0.0,0.0,0.0,0.0,0.0,0.0,0.0,0.0,0.0,0.0,0.0,0.0,0.0,0.0,0.0,0.0,0.0,0.0,0.0,0.0,0.0,0.0,0.0,0.0,0.0,0.0,0.0,0.0,0.0,0.0,0.0,0.0,0.0,0.0,0.0,0.0,0.0,0.0,0.0,0.0,0.0,0.0,0.0,0.0,0.0,0.0,0.0,0.0,0.0,0.0,0.0,0.0,7.0154,7.6648,8.4955,8.6692,8.8202,8.9647,8.4511,7.8771,7.2646,0.0,0.0,0.0,0.0,0.0,0.0,0.0,0.0,0.0,0.0,0.0,0.0,0.0,0.0,0.0,0.0,0.0,0.0,0.0,0.0,0.0,0.0,0.0,0.0,0.0,0.0,0.0,0.0,0.0,0.0,0.0,0.0,0.0,0.0,0.0,0.0,0.0,0.0,4.8402,4.969,0.0,0.0,0.0,0.0,0.0,0.0,0.0,0.0,5.5442,0.0,0.0,0.0,0.0,0.0,0.0,0.0,0.0,0.0,0.0,0.0,0.0,0.0,0.0,0.0,0.0,0.0,0.0,0.0,0.0,0.0,0.0,0.0,0.0,0.0,0.0,0.0,0.0,0.0,0.0,0.0,0.0,0.0,0.0,0.0,0.0,0.0,0.0,0.0,0.0,0.0,0.0,0.0,0.0,0.0,0.0,0.0,0.0,0.0,0.0,0.0,0.0,0.0,0.0,0.0,0.0,0.0,0.0,7.5289,8.1708,8.4426,8.6541,8.7834,8.0735,7.4458,0.0,0.0,0.0,0.0,0.0,0.0,0.0,0.0,0.0,0.0,0.0,0.0,0.0,0.0,0.0,0.0,0.0,0.0,0.0,0.0,0.0,0.0,0.0,0.0,0.0,0.0,0.0,0.0,0.0,0.0,0.0,0.0,0.0,0.0,0.0,0.0,0.0,0.0,0.0,0.0,0.0,0.0,0.0,0.0,0.0,0.0,0.0,0.0,0.0,0.0,0.0,0.0,0.0,0.0,0.0,0.0,0.0,0.0,0.0,0.0,0.0,0.0,0.0,0.0,0.0,0.0,0.0,0.0,0.0,0.0,0.0,0.0,0.0,0.0,0.0,0.0,0.0,0.0,0.0,0.0,0.0,0.0,0.0,0.0,0.0,0.0,0.0,0.0,0.0,0.0,0.0,0.0,0.0,0.0,0.0,0.0,0.0,0.0,0.0,0.0,0.0,0.0,0.0,0.0,0.0,0.0,0.0,0.0,7.325,7.7856,8.1934,8.4653,8.5936,7.627,6.9474,0.0,0.0,0.0,0.0,0.0,0.0,0.0,0.0,0.0,0.0,0.0,0.0,0.0,0.0,0.0,0.0,0.0,0.0,0.0,0.0,0.0,0.0,0.0,0.0,0.0,0.0,0.0,0.0,0.0,0.0,0.0,0.0,0.0,0.0,0.0,0.0,0.0,0.0,0.0,0.0,0.0,0.0,0.0,0.0,0.0,0.0,0.0,0.0,5.3397,0.0,0.0,0.0,0.0,0.0,0.0,0.0,0.0,0.0,0.0,0.0,0.0,0.0,0.0,0.0,0.0,0.0,0.0,0.0,0.0,0.0,0.0,0.0,0.0,0.0,0.0,0.0,0.0,0.0,0.0,0.0,0.0,0.0,0.0,0.0,0.0,0.0,0.0,0.0,0.0,0.0,0.0,0.0,0.0,0.0,0.0,0.0,0.0,0.0,0.0,0.0,0.0,0.0,0.0,0.0,0.0,0.0,0.0,0.0,6.9323,7.2872,7.8998,8.2321,8.2246,7.2805,6.6076,0.0,0.0,0.0,0.0,0.0,0.0,0.0,0.0,0.0,0.0,0.0,0.0,0.0,0.0,0.0,0.0,0.0,0.0,0.0,0.0,0.0,0.0,0.0,0.0,0.0,0.0,0.0,0.0,0.0,0.0,0.0,0.0,0.0,0.0,0.0,0.0,0.0,0.0,0.0,0.0,0.0,0.0,0.0,0.0,0.0,0.0,0.0,0.0,0.0,0.0,0.0,0.0,0.0,0.0,0.0,0.0,0.0,0.0,0.0,0.0,0.0,0.0,0.0,0.0,0.0,0.0,0.0,0.0,0.0,0.0,0.0,0.0,0.0,0.0,0.0,0.0,0.0,0.0,0.0,0.0,0.0,0.0,0.0,0.0,0.0,0.0,0.0,0.0,0.0,0.0,0.0,0.0,0.0,0.0,0.0,0.0,0.0,0.0,0.0,0.0,0.0,0.0,0.0,0.0,0.0,0.0,0.0,0.0,6.6302,7.0599,7.5297,7.5919,7.2097,6.6023,6.1243,0.0,0.0,0.0,0.0,0.0,0.0,0.0,0.0,0.0,0.0,0.0,0.0,0.0,0.0,0.0,0.0,0.0,0.0,0.0,0.0,0.0,0.0,0.0,0.0,0.0,0.0,0.0,0.0,0.0,0.0,0.0,0.0,0.0,0.0,0.0,0.0,0.0,0.0,0.0,0.0,0.0,0.0,0.0,0.0,0.0,0.0,0.0,0.0,0.0,0.0,0.0,0.0,0.0,0.0,0.0,0.0,0.0,0.0,0.0,0.0,0.0,0.0,0.0,0.0,0.0,0.0,0.0,0.0,0.0,0.0,0.0,0.0,0.0,0.0,0.0,0.0,0.0,0.0,0.0,0.0,0.0,0.0,0.0,0.0,0.0,0.0,0.0,0.0,0.0,0.0,0.0,0.0,0.0,0.0,0.0,0.0,0.0,0.0,0.0,0.0,0.0,0.0,0.0,0.0,0.0,0.0,0.0,0.0,0.0,6.6846,6.9482,6.8372,6.3577,6.059,5.7241,0.0,0.0,0.0,0.0,0.0,0.0,0.0,0.0,0.0,0.0,0.0,0.0,0.0,0.0,0.0,0.0,0.0,0.0,0.0,0.0,0.0,0.0,0.0,0.0,0.0,0.0,0.0,0.0,0.0,0.0,0.0,0.0,0.0,0.0,0.0,0.0,0.0,0.0,0.0,0.0,0.0,0.0,0.0,0.0,0.0,0.0,0.0,0.0,0.0,0.0,0.0,0.0,0.0,0.0,0.0,0.0,0.0,0.0,0.0,0.0,0.0,0.0,0.0,0.0,0.0,0.0,0.0,0.0,0.0,0.0,0.0,0.0,0.0,0.0,0.0,0.0,0.0,0.0,0.0,0.0,0.0,0.0,0.0,0.0,0.0,0.0,0.0,0.0,0.0,0.0,0.0,0.0,0.0,0.0,0.0,0.0,0.0,0.0,0.0,0.0,0.0,0.0,0.0,0.0,0.0,0.0,0.0,0.0,0.0,6.0182,6.0446,6.035,5.9822,5.8147,5.5044,0.0,0.0,0.0,0.0,0.0,0.0,0.0,0.0,0.0,0.0,0.0,0.0,0.0,0.0,0.0,0.0,0.0,0.0,0.0,0.0,0.0,0.0,0.0,0.0,0.0,0.0,0.0,0.0,0.0,0.0,0.0,0.0,0.0,0.0,0.0,0.0,0.0,0.0,0.0,0.0,0.0,0.0,0.0,0.0,0.0,0.0,0.0,0.0,0.0,0.0,0.0,0.0,0.0,0.0,0.0,0.0,0.0,0.0,0.0,0.0,0.0,0.0,0.0,0.0,0.0,0.0,0.0,0.0,0.0,0.0,0.0,0.0,0.0,0.0,0.0,0.0,0.0,0.0,0.0,0.0,0.0,0.0,0.0,0.0,0.0,0.0,0.0,0.0,0.0,0.0,0.0,0.0,0.0,0.0,0.0,0.0,0.0,0.0,0.0,0.0,0.0,0.0,0.0,0.0,0.0,0.0,0.0,0.0,0.0,5.1886,5.2884,5.3403,5.3453,5.1821,4.9532,4.6668,0.0,0.0,0.0,0.0,0.0,0.0,0.0,0.0,0.0,0.0,0.0,0.0,0.0,0.0,0.0,0.0,0.0,0.0,0.0,0.0,0.0,0.0,0.0,0.0,0.0,0.0,0.0,0.0,0.0,0.0,0.0,0.0,0.0,0.0,0.0,0.0,0.0,0.0,0.0,0.0,0.0,0.0,0.0,0.0,0.0,0.0,0.0,0.0,0.0,0.0,0.0,0.0,0.0,0.0,0.0,0.0,0.0,0.0,0.0,0.0,0.0,0.0,0.0,0.0,0.0,0.0,0.0,0.0,0.0,0.0,0.0,0.0,0.0,0.0,0.0,0.0,0.0,0.0,0.0,0.0,0.0,0.0,0.0,0.0,0.0,0.0,0.0,0.0,0.0,0.0,0.0,0.0,0.0,0.0,0.0,0.0,0.0,0.0,0.0,0.0,0.0,0.0,0.0,0.0,0.0,0.0,0.0,0.0,4.6502,4.7592,4.8198,4.8165,4.7067,4.5687,0.0,0.0,0.0,0.0,0.0,0.0,0.0,0.0,0.0,0.0,0.0,0.0,0.0,0.0,0.0,0.0,0.0,0.0,0.0,0.0,0.0,0.0,0.0,0.0,0.0,0.0,0.0,0.0,0.0,0.0,0.0,0.0,0.0,0.0,0.0,0.0,0.0,0.0,0.0,0.0,0.0,0.0,0.0,0.0,0.0,0.0,0.0,0.0,0.0,0.0,0.0,0.0,0.0,0.0,0.0,0.0,0.0,0.0,0.0,0.0,0.0,0.0,0.0,0.0,0.0,0.0,0.0,0.0,0.0,0.0,0.0,0.0,0.0,0.0,0.0,0.0,0.0,0.0,0.0,0.0,0.0,0.0,0.0,0.0,0.0,0.0,0.0,0.0,0.0,0.0,0.0,0.0,0.0,0.0,0.0,0.0,0.0,0.0,0.0,0.0,0.0,0.0,0.0,0.0,0.0,0.0,0.0,0.0,4.1533,4.4564,4.4791,4.4947,4.4786,4.4786,4.395,0.0,0.0,0.0,0.0,0.0,0.0,0.0,0.0,0.0,0.0,0.0,0.0,0.0,0.0,0.0,0.0,0.0,0.0,0.0,0.0,0.0,0.0,0.0,0.0,0.0,0.0,0.0,0.0,0.0,0.0,0.0,0.0,0.0,0.0,0.0,0.0,0.0,0.0,0.0,0.0,0.0,0.0,0.0,0.0,0.0,0.0,0.0,0.0,0.0,0.0,0.0,0.0,0.0,0.0,0.0,0.0,0.0,0.0,0.0,0.0,0.0,0.0,0.0,0.0,0.0,0.0,0.0,0.0,0.0,0.0,0.0,0.0,0.0,0.0,0.0,0.0,0.0,0.0,0.0,0.0,0.0,0.0,0.0,0.0,0.0,0.0,0.0,0.0,0.0,0.0,0.0,0.0,0.0,0.0,0.0,0.0,0.0,0.0,0.0,0.0,0.0,0.0,0.0,0.0,0.0,0.0,0.0,0.0,0.0,4.2996,0.0,4.4784,0.0,4.3572,4.2742,0.0,0.0,0.0,0.0,0.0,0.0,0.0,0.0,0.0,0.0,0.0,0.0,0.0,0.0,0.0,0.0,0.0,0.0,0.0,0.0,0.0,0.0,0.0,0.0,0.0,0.0,0.0,0.0,0.0,0.0,0.0,0.0,0.0,0.0,0.0,0.0,0.0,0.0,0.0,0.0,0.0,0.0,0.0,0.0,0.0,0.0,0.0,0.0,0.0,0.0,0.0,0.0,0.0,0.0,0.0,0.0,0.0,0.0,0.0,0.0,0.0,0.0,0.0,0.0,0.0,0.0,0.0,0.0,0.0,0.0,0.0,0.0,0.0,0.0,0.0,0.0,0.0,0.0,0.0,0.0,0.0,0.0,0.0,0.0,0.0,0.0,0.0,0.0,0.0,0.0,0.0,0.0,0.0,0.0,0.0,0.0,0.0,0.0,0.0,0.0,0.0,0.0,0.0,0.0,0.0,0.0,0.0,0.0,0.0,4.0422,4.2239,4.304,0.0,4.1906,4.1378,0.0,0.0,0.0,0.0,0.0,0.0,0.0,0.0,0.0,0.0,0.0,0.0,0.0,0.0,0.0,0.0,0.0,0.0,0.0,0.0,0.0,0.0,0.0,0.0,0.0,0.0,0.0,0.0,0.0,0.0,0.0,0.0,0.0,0.0,0.0,0.0,0.0,0.0,0.0,0.0,0.0,0.0,0.0,0.0,0.0,0.0,0.0,0.0,0.0,0.0,0.0,0.0,0.0,0.0,0.0,0.0,0.0,0.0,0.0,0.0,0.0,0.0,0.0,0.0,0.0,0.0,0.0,0.0,0.0,0.0,0.0,0.0,0.0,0.0,0.0,0.0,0.0,0.0,0.0,0.0,0.0,0.0,0.0,0.0,0.0,0.0,0.0,0.0,0.0,0.0,0.0,0.0,0.0,0.0,0.0,0.0,0.0,0.0,0.0,0.0,0.0,0.0,0.0,0.0,0.0,0.0,0.0,0.0,0.0,0.0,3.9117,3.9863,3.9938,3.9863,3.9863,0.0,0.0,0.0,0.0,0.0,0.0,0.0,0.0,0.0,0.0,0.0,0.0,0.0,0.0,0.0,0.0,0.0,0.0,0.0,0.0,0.0,0.0,0.0,0.0,0.0,0.0,0.0,0.0,0.0,0.0,0.0,0.0,0.0,0.0,0.0,0.0,0.0,0.0,0.0,0.0,0.0,0.0,0.0,0.0,0.0,0.0,0.0,0.0,0.0,0.0,0.0,0.0,0.0,0.0,0.0,0.0,0.0,0.0,0.0,0.0,0.0,0.0,0.0,0.0,0.0,0.0,0.0,0.0,0.0,0.0,0.0,0.0,0.0,0.0,0.0,0.0,0.0,0.0,0.0,0.0,0.0,0.0,0.0,0.0,0.0,0.0,0.0,0.0,0.0,0.0,0.0,0.0,0.0,0.0,0.0,0.0,0.0,0.0,0.0,0.0,0.0,0.0,0.0,0.0,0.0,0.0,0.0,0.0,0.0,0.0,3.9636,0.0,3.9863,3.9863,3.9863,3.9863,0.0,0.0,0.0,0.0,0.0,0.0,0.0,0.0,0.0,0.0,0.0,0.0,0.0,0.0,0.0,0.0,0.0,0.0,0.0,0.0,0.0,0.0,0.0,0.0,0.0,0.0,0.0,0.0,0.0,0.0,0.0,0.0,0.0,0.0,0.0,0.0,0.0,0.0,0.0,0.0,0.0,0.0,0.0,0.0,0.0,0.0,0.0,0.0,0.0,0.0,0.0,0.0,0.0,0.0,0.0,0.0,0.0,0.0,0.0,0.0,0.0,0.0,0.0,0.0,0.0,0.0,0.0,0.0,0.0,0.0,0.0,0.0,0.0,0.0,0.0,0.0,0.0,0.0,0.0,0.0,0.0,0.0,0.0,0.0,0.0,0.0,0.0,0.0,0.0,0.0,0.0,0.0,0.0,0.0,0.0,0.0,0.0,0.0,0.0,0.0,0.0,0.0,0.0,0.0,0.0,0.0,0.0,0.0,0.0,0.0,0.0,3.9863,3.9863,3.9863,0.0,0.0,0.0,0.0,0.0,0.0,0.0,0.0,0.0,0.0,0.0,0.0,0.0,0.0,0.0,0.0,0.0,0.0,0.0,0.0,0.0,0.0,0.0,0.0,0.0,0.0,0.0,0.0,0.0,0.0,0.0,0.0,0.0,0.0,0.0,0.0,0.0,0.0,0.0,0.0,0.0,0.0,0.0,0.0,0.0,0.0,0.0,0.0,0.0,0.0,0.0,0.0,0.0,0.0,0.0,0.0,0.0,0.0,0.0,0.0,0.0,0.0,0.0,0.0,0.0,0.0,0.0,0.0,0.0,0.0,0.0,0.0,0.0,0.0,0.0,0.0,0.0,0.0,0.0,0.0,0.0,0.0,0.0,0.0,0.0,0.0,0.0,0.0,0.0,0.0,0.0,0.0,0.0,0.0,0.0,0.0,0.0,0.0,0.0,0.0,0.0,0.0,0.0,0.0,0.0,0.0,0.0,0.0,0.0,0.0,0.0,3.9863,3.9863,3.9863,0.0,3.9863,0.0,0.0,0.0,0.0,0.0,0.0,0.0,0.0,0.0,0.0,0.0,0.0,0.0,0.0,0.0,0.0,0.0,0.0,0.0,0.0,0.0,0.0,0.0,0.0,0.0,0.0,0.0,0.0,0.0,0.0,0.0,0.0,0.0,0.0,0.0,0.0,0.0,0.0,0.0,0.0,0.0,0.0,0.0,0.0,0.0,0.0,0.0,0.0,0.0,0.0,0.0,0.0,0.0,0.0,0.0,0.0,0.0,0.0,0.0,0.0,0.0,0.0,0.0,0.0,0.0,0.0,0.0,0.0,0.0,0.0,0.0,0.0,0.0,0.0,0.0,0.0,0.0,0.0,0.0,0.0,0.0,0.0,0.0,0.0,0.0,0.0,0.0,0.0,0.0,0.0,0.0,0.0,0.0,0.0,0.0,0.0,0.0,0.0,0.0,0.0,0.0,0.0,0.0,0.0,0.0,0.0,0.0,0.0,0.0,0.0,0.0,0.0,3.9863,3.9863,3.9863,0.0,0.0,0.0,0.0,0.0,0.0,0.0,0.0,0.0,0.0,0.0,0.0,0.0,0.0,0.0,0.0,0.0,0.0,0.0,0.0,0.0,0.0,0.0,0.0,0.0,0.0,0.0,0.0,0.0,0.0,0.0,0.0,0.0,0.0,0.0,0.0,0.0,0.0,0.0,0.0,0.0,0.0,0.0,0.0,0.0,0.0,0.0,0.0,0.0,0.0,0.0,0.0,0.0,0.0,0.0,0.0,0.0,0.0,0.0,0.0,0.0,0.0,0.0,0.0,0.0,0.0,0.0,0.0,0.0,0.0,0.0,0.0,0.0,0.0,0.0,0.0,0.0,0.0,0.0,0.0,0.0,0.0,0.0,0.0,0.0,0.0,0.0,0.0,0.0,0.0,0.0,0.0,0.0,0.0,0.0,0.0,0.0,0.0,0.0,0.0,0.0,0.0,0.0,0.0,0.0,0.0,0.0,0.0,0.0,0.0,3.9829,3.9863,3.9863,3.9863,3.9863,0.0,0.0,0.0,0.0,0.0,0.0,0.0,0.0,0.0,0.0,0.0,0.0,0.0,0.0,0.0,0.0,0.0,0.0,0.0,0.0,0.0,0.0,0.0,0.0,0.0,0.0,0.0,0.0,0.0,0.0,0.0,0.0,0.0,0.0,0.0,0.0,0.0,0.0,0.0,0.0,0.0,0.0,0.0,0.0,0.0,0.0,0.0,0.0,0.0,0.0,0.0,0.0,0.0,0.0,0.0,0.0,0.0,0.0,0.0,0.0,0.0,0.0,0.0,0.0,0.0,0.0,0.0,0.0,0.0,0.0,0.0,0.0,0.0,0.0,0.0,0.0,0.0,0.0,0.0,0.0,0.0,0.0,0.0,0.0,0.0,0.0,0.0,0.0,0.0,0.0,0.0,0.0,0.0,0.0,0.0,0.0,0.0,0.0,0.0,0.0,0.0,0.0,0.0,0.0,0.0,0.0,0.0,0.0,0.0,0.0,0.0,0.0,0.0,0.0,3.9863,0.0,0.0,0.0,0.0,0.0,0.0,0.0,0.0,0.0,0.0,0.0,0.0,0.0,0.0,0.0,0.0,0.0,0.0,0.0,0.0,0.0,0.0,0.0,0.0,0.0,0.0,0.0,0.0,0.0,0.0,0.0,0.0,0.0,0.0,0.0,0.0,0.0,0.0,0.0,0.0,0.0,0.0,0.0,0.0,0.0,0.0,0.0,0.0,0.0,0.0,0.0,0.0,0.0,0.0,0.0,0.0,0.0,0.0,0.0,0.0,0.0,0.0,0.0,0.0,0.0,0.0,0.0,0.0,0.0,0.0,0.0,0.0,0.0,0.0,0.0,0.0,0.0,0.0,0.0,0.0,0.0,0.0,0.0,0.0,0.0,0.0,0.0,0.0,0.0,0.0,0.0,0.0,0.0,0.0,0.0,0.0,0.0,0.0,0.0,0.0,0.0,0.0,0.0,0.0,0.0,0.0,0.0,0.0,0.0,0.0,0.0,0.0,0.0,0.0,0.0,0.0,0.0,0.0,0.0,0.0,0.0,0.0,0.0,0.0,0.0,0.0,0.0,0.0,0.0,0.0,0.0,0.0,0.0,0.0,0.0,0.0,0.0,0.0,0.0,0.0,0.0,0.0,0.0,0.0,0.0,0.0,0.0,0.0,0.0,0.0,0.0,0.0,0.0,0.0,0.0,0.0,0.0,0.0,0.0,0.0,0.0,0.0,0.0,0.0,0.0,0.0,0.0,0.0,0.0,0.0,0.0,0.0,0.0,0.0,0.0,0.0,0.0,0.0,0.0,0.0,0.0,0.0,0.0,0.0,0.0,0.0,0.0,0.0,0.0,0.0,0.0,0.0,0.0,0.0,0.0,0.0,0.0,0.0,0.0,0.0,0.0,0.0,0.0,0.0,0.0,0.0,0.0,0.0,0.0,0.0,0.0,0.0,0.0,0.0,0.0,0.0,0.0,0.0,0.0,0.0,0.0,0.0,0.0,0.0,0.0,0.0,0.0,0.0,0.0,0.0,0.0,0.0,0.0,0.0,0.0,0.0,0.0,0.0,0.0,0.0,0.0,0.0,0.0,0.0,0.0,0.0,0.0,0.0,0.0,0.0,0.0,0.0,0.0,0.0,0.0,0.0,0.0,0.0,0.0,0.0,0.0,0.0,0.0,0.0,0.0,0.0,0.0,0.0,0.0,0.0,0.0,0.0,0.0,0.0,0.0,0.0,0.0,0.0,0.0,0.0,0.0,0.0,0.0,0.0,0.0,0.0,0.0,0.0,0.0,0.0,0.0,0.0,0.0,0.0,0.0,0.0,0.0,0.0,0.0,0.0,0.0,0.0,0.0,0.0,0.0,0.0,0.0,0.0,0.0,0.0,0.0,0.0,0.0,0.0,0.0,0.0,0.0,0.0,0.0,0.0,0.0,0.0,0.0,0.0,0.0,0.0,0.0,0.0,0.0,0.0,0.0,0.0,0.0,0.0,0.0,0.0,0.0,0.0,0.0,0.0,0.0,0.0,0.0,0.0,0.0,0.0,0.0,0.0,0.0,0.0,0.0,0.0,0.0,0.0,0.0,0.0,0.0,0.0,0.0,0.0,0.0,0.0,0.0,0.0,0.0,0.0,0.0,0.0,0.0,0.0,0.0,0.0,0.0,0.0,0.0,0.0,0.0,0.0,0.0,0.0,0.0,0.0,0.0,0.0,0.0,0.0,0.0,0.0,0.0,0.0,0.0,0.0,0.0,0.0,0.0,0.0,0.0,0.0,0.0,0.0,0.0,0.0,0.0,0.0,0.0,0.0,0.0,0.0,0.0,0.0,0.0,0.0,0.0,0.0,0.0,0.0,0.0,0.0,0.0,0.0,0.0,0.0,0.0,0.0,0.0,0.0,0.0,0.0,0.0,0.0,0.0,0.0,0.0,0.0,0.0,0.0,0.0,0.0,0.0,0.0,0.0,0.0,0.0,0.0,0.0,0.0,0.0,0.0,0.0,0.0,0.0,0.0,0.0,0.0,0.0,0.0,0.0,0.0,0.0,0.0,0.0,0.0,0.0,0.0,0.0,0.0,0.0,0.0,0.0,0.0,0.0,0.0,0.0,0.0,0.0,0.0,0.0,0.0,0.0,0.0,0.0,0.0,0.0,0.0,0.0,0.0,0.0,0.0,0.0,0.0,0.0,0.0,0.0,0.0,0.0,0.0,0.0,0.0,0.0,0.0,0.0,0.0,0.0,0.0,0.0,0.0,0.0,0.0,0.0,0.0,0.0,0.0,0.0,0.0,0.0,0.0,0.0,0.0,0.0,0.0,0.0,0.0,0.0,0.0,0.0,0.0,0.0,0.0,0.0,0.0,0.0,0.0,0.0,0.0,0.0,0.0,0.0,0.0,0.0,0.0,0.0,0.0,0.0,0.0,0.0,0.0,0.0,0.0,0.0,0.0,0.0,0.0,0.0,0.0,0.0,0.0,0.0,0.0,0.0,0.0,0.0,0.0,0.0,0.0,0.0,0.0,0.0,0.0,0.0,0.0,0.0,0.0,0.0,0.0,0.0,0.0,0.0,0.0,0.0,0.0,0.0,0.0,0.0,0.0,0.0,0.0,0.0,0.0,0.0,0.0,0.0,0.0,0.0,0.0,0.0,0.0,0.0,0.0,0.0,0.0,0.0,0.0,0.0,0.0,0.0,0.0,0.0,0.0,0.0,0.0,0.0,0.0,0.0,0.0,0.0,0.0,0.0,0.0,0.0,0.0,0.0,0.0,0.0,0.0,0.0,0.0,0.0,0.0,0.0,0.0,0.0,0.0,0.0,0.0,0.0,0.0,0.0,0.0,0.0,0.0,0.0,0.0,0.0,0.0,0.0,0.0,0.0,0.0,0.0,0.0,0.0,0.0,0.0,0.0,0.0,0.0,0.0,0.0,0.0,0.0,0.0,0.0,0.0,0.0,0.0,0.0,0.0,0.0,0.0,0.0,0.0,0.0,0.0,0.0,0.0,0.0,0.0,0.0,0.0,0.0,0.0,0.0,0.0,0.0,0.0,0.0,0.0,0.0,0.0,0.0,0.0,0.0,0.0,0.0,0.0,0.0,0.0,0.0,0.0,0.0,0.0,0.0,0.0,0.0,0.0,0.0,0.0,0.0,0.0,0.0,0.0,0.0,0.0,0.0,0.0,0.0,0.0,0.0,0.0,0.0,0.0,0.0,0.0,0.0,0.0,0.0,0.0,0.0,0.0,0.0,0.0,0.0,0.0,0.0,0.0,0.0,0.0,0.0,0.0,0.0,0.0,0.0,0.0,0.0,0.0,0.0,0.0,0.0,0.0,0.0,0.0,0.0,0.0,0.0,0.0,0.0,0.0,0.0,0.0,0.0,0.0,0.0,0.0,0.0,0.0,0.0,0.0,0.0,0.0,0.0,0.0,0.0,0.0,0.0,0.0,0.0,0.0,0.0,0.0,0.0,0.0,0.0,0.0,0.0,0.0,0.0,0.0,0.0,0.0,0.0,0.0,0.0,0.0,0.0,0.0,0.0,0.0,0.0,0.0,0.0,0.0,0.0,0.0,0.0,0.0,0.0,0.0,0.0,0.0,0.0,0.0,0.0,0.0,0.0,0.0,0.0,0.0,0.0,0.0,0.0,0.0,0.0,0.0,0.0,0.0,0.0,0.0,0.0,0.0,0.0,0.0,0.0,0.0,0.0,0.0,0.0,0.0,0.0,0.0,0.0,0.0,0.0,0.0,0.0,0.0,0.0,0.0,0.0,0.0,0.0,0.0,0.0,0.0,0.0,0.0,0.0,0.0,0.0,0.0,0.0,0.0,0.0,0.0,0.0,0.0,0.0,0.0,0.0,0.0,0.0,0.0,0.0,0.0,0.0,0.0,0.0,0.0,0.0,0.0,0.0,0.0,0.0,0.0,0.0,0.0,0.0,0.0,0.0,0.0,0.0,0.0,0.0,0.0,0.0,0.0,0.0,0.0,0.0,0.0,0.0,0.0,0.0,0.0,0.0,0.0,0.0,0.0,0.0,0.0,0.0,0.0,0.0,0.0,0.0,0.0,0.0,0.0,0.0,0.0,0.0,0.0,0.0,0.0,0.0,0.0,0.0,0.0,0.0,0.0,0.0,0.0,0.0,0.0,0.0,0.0,0.0,0.0,0.0,0.0,0.0,0.0,0.0,0.0,0.0,0.0,0.0,0.0,0.0,0.0,0.0,0.0,0.0,0.0,0.0,0.0,0.0,0.0,0.0,0.0,0.0,0.0,0.0,0.0,0.0,0.0,0.0,0.0,0.0,0.0,0.0,0.0,0.0,0.0,0.0,0.0,0.0,0.0,0.0,0.0,0.0,0.0,0.0,0.0,0.0,0.0,0.0,0.0,0.0]}]]]